<?xml version="1.0" encoding="UTF-8" standalone="no" ?>
<gpx xmlns="http://www.topografix.com/GPX/1/1" xmlns:xsi="http://www.w3.org/2001/XMLSchema-instance" xsi:schemaLocation="http://www.topografix.com/GPX/1/1 http://www.topografix.com/GPX/1/1/gpx.xsd" version="1.1" creator="VisuGPX - https://www.visugpx.com">
  <metadata>
    <name>Loire Sur Rhône</name>
    <desc><![CDATA[Cette promenade vous fera découvrir les combes et ruisseaux sur les hauteurs de Loire sur Rhône.]]></desc>
  </metadata>
  <trk>
    <name><![CDATA[20180202_080501.gpx]]></name>
    <trkseg>
      <trkpt lat="45.5538" lon="4.80337">
        <ele>277.7</ele>
        <time>2018-02-02T07:05:02Z</time>
      </trkpt>
      <trkpt lat="45.55376" lon="4.80342">
        <ele>301.71332</ele>
        <time>2018-02-02T07:05:39Z</time>
      </trkpt>
      <trkpt lat="45.55376" lon="4.80342">
        <ele>301.71332</ele>
        <time>2018-02-02T07:05:39Z</time>
      </trkpt>
      <trkpt lat="45.55378" lon="4.80337">
        <ele>302.07004</ele>
        <time>2018-02-02T07:05:52Z</time>
      </trkpt>
      <trkpt lat="45.55383" lon="4.80326">
        <ele>302.868</ele>
        <time>2018-02-02T07:06:01Z</time>
      </trkpt>
      <trkpt lat="45.55373" lon="4.80324">
        <ele>304.19177</ele>
        <time>2018-02-02T07:06:12Z</time>
      </trkpt>
      <trkpt lat="45.55372" lon="4.80325">
        <ele>304.38995</ele>
        <time>2018-02-02T07:06:13Z</time>
      </trkpt>
      <trkpt lat="45.55371" lon="4.80325">
        <ele>304.58548</ele>
        <time>2018-02-02T07:06:14Z</time>
      </trkpt>
      <trkpt lat="45.5537" lon="4.80326">
        <ele>304.493</ele>
        <time>2018-02-02T07:06:15Z</time>
      </trkpt>
      <trkpt lat="45.5536" lon="4.80329">
        <ele>305.60013</ele>
        <time>2018-02-02T07:06:23Z</time>
      </trkpt>
      <trkpt lat="45.55359" lon="4.8033">
        <ele>305.75864</ele>
        <time>2018-02-02T07:06:24Z</time>
      </trkpt>
      <trkpt lat="45.55358" lon="4.8033">
        <ele>305.85114</ele>
        <time>2018-02-02T07:06:25Z</time>
      </trkpt>
      <trkpt lat="45.55357" lon="4.8033">
        <ele>305.89078</ele>
        <time>2018-02-02T07:06:26Z</time>
      </trkpt>
      <trkpt lat="45.55356" lon="4.80331">
        <ele>306.04666</ele>
        <time>2018-02-02T07:06:27Z</time>
      </trkpt>
      <trkpt lat="45.55354" lon="4.80332">
        <ele>306.1127</ele>
        <time>2018-02-02T07:06:28Z</time>
      </trkpt>
      <trkpt lat="45.55353" lon="4.80332">
        <ele>306.28445</ele>
        <time>2018-02-02T07:06:29Z</time>
      </trkpt>
      <trkpt lat="45.55351" lon="4.80333">
        <ele>306.4853</ele>
        <time>2018-02-02T07:06:30Z</time>
      </trkpt>
      <trkpt lat="45.5535" lon="4.80333">
        <ele>306.5619</ele>
        <time>2018-02-02T07:06:31Z</time>
      </trkpt>
      <trkpt lat="45.55349" lon="4.80334">
        <ele>306.74423</ele>
        <time>2018-02-02T07:06:32Z</time>
      </trkpt>
      <trkpt lat="45.55347" lon="4.80335">
        <ele>306.95032</ele>
        <time>2018-02-02T07:06:33Z</time>
      </trkpt>
      <trkpt lat="45.55346" lon="4.80336">
        <ele>306.91595</ele>
        <time>2018-02-02T07:06:34Z</time>
      </trkpt>
      <trkpt lat="45.55336" lon="4.80337">
        <ele>307.95703</ele>
        <time>2018-02-02T07:06:41Z</time>
      </trkpt>
      <trkpt lat="45.55335" lon="4.80338">
        <ele>308.0495</ele>
        <time>2018-02-02T07:06:42Z</time>
      </trkpt>
      <trkpt lat="45.55334" lon="4.80338">
        <ele>308.15784</ele>
        <time>2018-02-02T07:06:43Z</time>
      </trkpt>
      <trkpt lat="45.55332" lon="4.80338">
        <ele>308.5621</ele>
        <time>2018-02-02T07:06:44Z</time>
      </trkpt>
      <trkpt lat="45.55331" lon="4.80338">
        <ele>308.55682</ele>
        <time>2018-02-02T07:06:45Z</time>
      </trkpt>
      <trkpt lat="45.55322" lon="4.80342">
        <ele>310.0365</ele>
        <time>2018-02-02T07:06:53Z</time>
      </trkpt>
      <trkpt lat="45.5532" lon="4.80342">
        <ele>310.0867</ele>
        <time>2018-02-02T07:06:54Z</time>
      </trkpt>
      <trkpt lat="45.55317" lon="4.80341">
        <ele>310.24524</ele>
        <time>2018-02-02T07:06:55Z</time>
      </trkpt>
      <trkpt lat="45.55317" lon="4.80341">
        <ele>310.24524</ele>
        <time>2018-02-02T07:06:55Z</time>
      </trkpt>
      <trkpt lat="45.55307" lon="4.80344">
        <ele>311.85703</ele>
        <time>2018-02-02T07:07:03Z</time>
      </trkpt>
      <trkpt lat="45.55306" lon="4.80344">
        <ele>312.0605</ele>
        <time>2018-02-02T07:07:04Z</time>
      </trkpt>
      <trkpt lat="45.55305" lon="4.80344">
        <ele>311.92838</ele>
        <time>2018-02-02T07:07:05Z</time>
      </trkpt>
      <trkpt lat="45.55296" lon="4.80346">
        <ele>312.90073</ele>
        <time>2018-02-02T07:07:14Z</time>
      </trkpt>
      <trkpt lat="45.55295" lon="4.80346">
        <ele>313.39746</ele>
        <time>2018-02-02T07:07:15Z</time>
      </trkpt>
      <trkpt lat="45.55293" lon="4.80346">
        <ele>313.45825</ele>
        <time>2018-02-02T07:07:16Z</time>
      </trkpt>
      <trkpt lat="45.55291" lon="4.80346">
        <ele>313.5243</ele>
        <time>2018-02-02T07:07:17Z</time>
      </trkpt>
      <trkpt lat="45.5529" lon="4.80347">
        <ele>313.37897</ele>
        <time>2018-02-02T07:07:18Z</time>
      </trkpt>
      <trkpt lat="45.5528" lon="4.80346">
        <ele>314.80316</ele>
        <time>2018-02-02T07:07:27Z</time>
      </trkpt>
      <trkpt lat="45.55278" lon="4.80347">
        <ele>315.10437</ele>
        <time>2018-02-02T07:07:28Z</time>
      </trkpt>
      <trkpt lat="45.55277" lon="4.80346">
        <ele>315.13608</ele>
        <time>2018-02-02T07:07:29Z</time>
      </trkpt>
      <trkpt lat="45.55275" lon="4.80347">
        <ele>315.2127</ele>
        <time>2018-02-02T07:07:30Z</time>
      </trkpt>
      <trkpt lat="45.55275" lon="4.80346">
        <ele>315.55356</ele>
        <time>2018-02-02T07:07:31Z</time>
      </trkpt>
      <trkpt lat="45.55274" lon="4.80346">
        <ele>315.74115</ele>
        <time>2018-02-02T07:07:32Z</time>
      </trkpt>
      <trkpt lat="45.55273" lon="4.80345">
        <ele>315.69626</ele>
        <time>2018-02-02T07:07:33Z</time>
      </trkpt>
      <trkpt lat="45.55264" lon="4.80347">
        <ele>316.68973</ele>
        <time>2018-02-02T07:07:40Z</time>
      </trkpt>
      <trkpt lat="45.55263" lon="4.80347">
        <ele>316.69766</ele>
        <time>2018-02-02T07:07:41Z</time>
      </trkpt>
      <trkpt lat="45.55262" lon="4.80347">
        <ele>317.0253</ele>
        <time>2018-02-02T07:07:42Z</time>
      </trkpt>
      <trkpt lat="45.5526" lon="4.80348">
        <ele>317.09137</ele>
        <time>2018-02-02T07:07:43Z</time>
      </trkpt>
      <trkpt lat="45.55258" lon="4.80348">
        <ele>317.67267</ele>
        <time>2018-02-02T07:07:44Z</time>
      </trkpt>
      <trkpt lat="45.55257" lon="4.80349">
        <ele>317.456</ele>
        <time>2018-02-02T07:07:45Z</time>
      </trkpt>
      <trkpt lat="45.55246" lon="4.8035">
        <ele>317.89197</ele>
        <time>2018-02-02T07:07:50Z</time>
      </trkpt>
      <trkpt lat="45.55245" lon="4.80351">
        <ele>317.92896</ele>
        <time>2018-02-02T07:07:51Z</time>
      </trkpt>
      <trkpt lat="45.55243" lon="4.80352">
        <ele>318.10864</ele>
        <time>2018-02-02T07:07:52Z</time>
      </trkpt>
      <trkpt lat="45.55242" lon="4.80352">
        <ele>318.37024</ele>
        <time>2018-02-02T07:07:53Z</time>
      </trkpt>
      <trkpt lat="45.55242" lon="4.80352">
        <ele>318.37024</ele>
        <time>2018-02-02T07:07:53Z</time>
      </trkpt>
      <trkpt lat="45.55234" lon="4.8036">
        <ele>319.54074</ele>
        <time>2018-02-02T07:08:01Z</time>
      </trkpt>
      <trkpt lat="45.55233" lon="4.8036">
        <ele>319.7627</ele>
        <time>2018-02-02T07:08:02Z</time>
      </trkpt>
      <trkpt lat="45.55233" lon="4.80361">
        <ele>319.71777</ele>
        <time>2018-02-02T07:08:03Z</time>
      </trkpt>
      <trkpt lat="45.55226" lon="4.80372">
        <ele>321.1499</ele>
        <time>2018-02-02T07:08:10Z</time>
      </trkpt>
      <trkpt lat="45.55225" lon="4.80374">
        <ele>321.22388</ele>
        <time>2018-02-02T07:08:11Z</time>
      </trkpt>
      <trkpt lat="45.55217" lon="4.80381">
        <ele>321.932</ele>
        <time>2018-02-02T07:08:18Z</time>
      </trkpt>
      <trkpt lat="45.55216" lon="4.80382">
        <ele>322.02448</ele>
        <time>2018-02-02T07:08:19Z</time>
      </trkpt>
      <trkpt lat="45.55215" lon="4.80383">
        <ele>322.38647</ele>
        <time>2018-02-02T07:08:20Z</time>
      </trkpt>
      <trkpt lat="45.55214" lon="4.80384">
        <ele>322.5186</ele>
        <time>2018-02-02T07:08:21Z</time>
      </trkpt>
      <trkpt lat="45.55212" lon="4.80385">
        <ele>322.88058</ele>
        <time>2018-02-02T07:08:22Z</time>
      </trkpt>
      <trkpt lat="45.5521" lon="4.80386">
        <ele>322.74582</ele>
        <time>2018-02-02T07:08:23Z</time>
      </trkpt>
      <trkpt lat="45.55201" lon="4.80389">
        <ele>324.09866</ele>
        <time>2018-02-02T07:08:31Z</time>
      </trkpt>
      <trkpt lat="45.55199" lon="4.80389">
        <ele>324.1066</ele>
        <time>2018-02-02T07:08:32Z</time>
      </trkpt>
      <trkpt lat="45.55198" lon="4.8039">
        <ele>324.44217</ele>
        <time>2018-02-02T07:08:33Z</time>
      </trkpt>
      <trkpt lat="45.55196" lon="4.8039">
        <ele>324.59543</ele>
        <time>2018-02-02T07:08:34Z</time>
      </trkpt>
      <trkpt lat="45.55196" lon="4.8039">
        <ele>325.01025</ele>
        <time>2018-02-02T07:08:35Z</time>
      </trkpt>
      <trkpt lat="45.55194" lon="4.80391">
        <ele>325.23486</ele>
        <time>2018-02-02T07:08:36Z</time>
      </trkpt>
      <trkpt lat="45.55193" lon="4.80391">
        <ele>325.09744</ele>
        <time>2018-02-02T07:08:37Z</time>
      </trkpt>
      <trkpt lat="45.55183" lon="4.80391">
        <ele>326.51636</ele>
        <time>2018-02-02T07:08:44Z</time>
      </trkpt>
      <trkpt lat="45.55181" lon="4.80391">
        <ele>326.482</ele>
        <time>2018-02-02T07:08:45Z</time>
      </trkpt>
      <trkpt lat="45.55171" lon="4.80392">
        <ele>327.47815</ele>
        <time>2018-02-02T07:08:52Z</time>
      </trkpt>
      <trkpt lat="45.5517" lon="4.80392">
        <ele>327.50192</ele>
        <time>2018-02-02T07:08:53Z</time>
      </trkpt>
      <trkpt lat="45.55169" lon="4.80392">
        <ele>327.84015</ele>
        <time>2018-02-02T07:08:54Z</time>
      </trkpt>
      <trkpt lat="45.55168" lon="4.80392">
        <ele>327.91412</ele>
        <time>2018-02-02T07:08:55Z</time>
      </trkpt>
      <trkpt lat="45.55166" lon="4.80392">
        <ele>328.07794</ele>
        <time>2018-02-02T07:08:56Z</time>
      </trkpt>
      <trkpt lat="45.55165" lon="4.80391">
        <ele>328.5694</ele>
        <time>2018-02-02T07:08:57Z</time>
      </trkpt>
      <trkpt lat="45.55164" lon="4.8039">
        <ele>328.45844</ele>
        <time>2018-02-02T07:08:58Z</time>
      </trkpt>
      <trkpt lat="45.55158" lon="4.8038">
        <ele>328.6883</ele>
        <time>2018-02-02T07:09:05Z</time>
      </trkpt>
      <trkpt lat="45.55157" lon="4.80379">
        <ele>329.14276</ele>
        <time>2018-02-02T07:09:06Z</time>
      </trkpt>
      <trkpt lat="45.55156" lon="4.80377">
        <ele>328.95782</ele>
        <time>2018-02-02T07:09:07Z</time>
      </trkpt>
      <trkpt lat="45.55151" lon="4.80365">
        <ele>329.62897</ele>
        <time>2018-02-02T07:09:14Z</time>
      </trkpt>
      <trkpt lat="45.5515" lon="4.80363">
        <ele>330.08078</ele>
        <time>2018-02-02T07:09:15Z</time>
      </trkpt>
      <trkpt lat="45.5515" lon="4.80361">
        <ele>330.2261</ele>
        <time>2018-02-02T07:09:16Z</time>
      </trkpt>
      <trkpt lat="45.55149" lon="4.80359">
        <ele>330.36615</ele>
        <time>2018-02-02T07:09:17Z</time>
      </trkpt>
      <trkpt lat="45.55148" lon="4.80357">
        <ele>330.18646</ele>
        <time>2018-02-02T07:09:18Z</time>
      </trkpt>
      <trkpt lat="45.55143" lon="4.80346">
        <ele>330.91574</ele>
        <time>2018-02-02T07:09:25Z</time>
      </trkpt>
      <trkpt lat="45.55143" lon="4.80343">
        <ele>331.24866</ele>
        <time>2018-02-02T07:09:26Z</time>
      </trkpt>
      <trkpt lat="45.55142" lon="4.80342">
        <ele>331.67935</ele>
        <time>2018-02-02T07:09:27Z</time>
      </trkpt>
      <trkpt lat="45.55141" lon="4.8034">
        <ele>331.65558</ele>
        <time>2018-02-02T07:09:28Z</time>
      </trkpt>
      <trkpt lat="45.55135" lon="4.80329">
        <ele>332.081</ele>
        <time>2018-02-02T07:09:35Z</time>
      </trkpt>
      <trkpt lat="45.55134" lon="4.80327">
        <ele>332.5434</ele>
        <time>2018-02-02T07:09:36Z</time>
      </trkpt>
      <trkpt lat="45.55133" lon="4.80325">
        <ele>332.64908</ele>
        <time>2018-02-02T07:09:37Z</time>
      </trkpt>
      <trkpt lat="45.55132" lon="4.80324">
        <ele>332.9503</ele>
        <time>2018-02-02T07:09:38Z</time>
      </trkpt>
      <trkpt lat="45.55132" lon="4.80322">
        <ele>333.24094</ele>
        <time>2018-02-02T07:09:39Z</time>
      </trkpt>
      <trkpt lat="45.5513" lon="4.8032">
        <ele>333.23566</ele>
        <time>2018-02-02T07:09:40Z</time>
      </trkpt>
      <trkpt lat="45.55124" lon="4.80309">
        <ele>334.6572</ele>
        <time>2018-02-02T07:09:47Z</time>
      </trkpt>
      <trkpt lat="45.55124" lon="4.80307">
        <ele>334.73383</ele>
        <time>2018-02-02T07:09:48Z</time>
      </trkpt>
      <trkpt lat="45.55123" lon="4.80305">
        <ele>334.7682</ele>
        <time>2018-02-02T07:09:49Z</time>
      </trkpt>
      <trkpt lat="45.55122" lon="4.80303">
        <ele>334.99542</ele>
        <time>2018-02-02T07:09:50Z</time>
      </trkpt>
      <trkpt lat="45.55122" lon="4.80302">
        <ele>335.3125</ele>
        <time>2018-02-02T07:09:51Z</time>
      </trkpt>
      <trkpt lat="45.55121" lon="4.803">
        <ele>335.331</ele>
        <time>2018-02-02T07:09:52Z</time>
      </trkpt>
      <trkpt lat="45.5512" lon="4.80299">
        <ele>335.37326</ele>
        <time>2018-02-02T07:09:53Z</time>
      </trkpt>
      <trkpt lat="45.55119" lon="4.80297">
        <ele>335.45517</ele>
        <time>2018-02-02T07:09:54Z</time>
      </trkpt>
      <trkpt lat="45.55119" lon="4.80296">
        <ele>335.7828</ele>
        <time>2018-02-02T07:09:55Z</time>
      </trkpt>
      <trkpt lat="45.55118" lon="4.80294">
        <ele>335.87</ele>
        <time>2018-02-02T07:09:56Z</time>
      </trkpt>
      <trkpt lat="45.55117" lon="4.80292">
        <ele>335.9308</ele>
        <time>2018-02-02T07:09:57Z</time>
      </trkpt>
      <trkpt lat="45.55116" lon="4.8029">
        <ele>336.29807</ele>
        <time>2018-02-02T07:09:58Z</time>
      </trkpt>
      <trkpt lat="45.55116" lon="4.80288">
        <ele>336.32184</ele>
        <time>2018-02-02T07:09:59Z</time>
      </trkpt>
      <trkpt lat="45.55115" lon="4.80286">
        <ele>336.66003</ele>
        <time>2018-02-02T07:10:00Z</time>
      </trkpt>
      <trkpt lat="45.55115" lon="4.80285">
        <ele>336.68118</ele>
        <time>2018-02-02T07:10:01Z</time>
      </trkpt>
      <trkpt lat="45.55114" lon="4.80283">
        <ele>336.85556</ele>
        <time>2018-02-02T07:10:02Z</time>
      </trkpt>
      <trkpt lat="45.55113" lon="4.80281">
        <ele>337.21756</ele>
        <time>2018-02-02T07:10:03Z</time>
      </trkpt>
      <trkpt lat="45.55113" lon="4.80279">
        <ele>337.4078</ele>
        <time>2018-02-02T07:10:04Z</time>
      </trkpt>
      <trkpt lat="45.55112" lon="4.80278">
        <ele>337.42896</ele>
        <time>2018-02-02T07:10:05Z</time>
      </trkpt>
      <trkpt lat="45.55111" lon="4.80276">
        <ele>337.43423</ele>
        <time>2018-02-02T07:10:06Z</time>
      </trkpt>
      <trkpt lat="45.55111" lon="4.80274">
        <ele>337.7698</ele>
        <time>2018-02-02T07:10:07Z</time>
      </trkpt>
      <trkpt lat="45.5511" lon="4.80272">
        <ele>337.74866</ele>
        <time>2018-02-02T07:10:08Z</time>
      </trkpt>
      <trkpt lat="45.55107" lon="4.80259">
        <ele>338.9139</ele>
        <time>2018-02-02T07:10:14Z</time>
      </trkpt>
      <trkpt lat="45.55106" lon="4.80257">
        <ele>339.19662</ele>
        <time>2018-02-02T07:10:15Z</time>
      </trkpt>
      <trkpt lat="45.55106" lon="4.80255">
        <ele>339.07245</ele>
        <time>2018-02-02T07:10:16Z</time>
      </trkpt>
      <trkpt lat="45.55104" lon="4.80241">
        <ele>340.18747</ele>
        <time>2018-02-02T07:10:23Z</time>
      </trkpt>
      <trkpt lat="45.55104" lon="4.80239">
        <ele>340.2773</ele>
        <time>2018-02-02T07:10:24Z</time>
      </trkpt>
      <trkpt lat="45.55104" lon="4.80238">
        <ele>340.29318</ele>
        <time>2018-02-02T07:10:25Z</time>
      </trkpt>
      <trkpt lat="45.55104" lon="4.80237">
        <ele>340.44113</ele>
        <time>2018-02-02T07:10:26Z</time>
      </trkpt>
      <trkpt lat="45.55104" lon="4.80235">
        <ele>340.457</ele>
        <time>2018-02-02T07:10:27Z</time>
      </trkpt>
      <trkpt lat="45.55104" lon="4.80233">
        <ele>340.54947</ele>
        <time>2018-02-02T07:10:28Z</time>
      </trkpt>
      <trkpt lat="45.55105" lon="4.80232">
        <ele>340.65515</ele>
        <time>2018-02-02T07:10:29Z</time>
      </trkpt>
      <trkpt lat="45.55105" lon="4.8023">
        <ele>340.81635</ele>
        <time>2018-02-02T07:10:30Z</time>
      </trkpt>
      <trkpt lat="45.55105" lon="4.80228">
        <ele>341.10434</ele>
        <time>2018-02-02T07:10:31Z</time>
      </trkpt>
      <trkpt lat="45.55106" lon="4.80225">
        <ele>340.9273</ele>
        <time>2018-02-02T07:10:32Z</time>
      </trkpt>
      <trkpt lat="45.55108" lon="4.80211">
        <ele>341.92874</ele>
        <time>2018-02-02T07:10:39Z</time>
      </trkpt>
      <trkpt lat="45.55109" lon="4.80209">
        <ele>341.8574</ele>
        <time>2018-02-02T07:10:40Z</time>
      </trkpt>
      <trkpt lat="45.55114" lon="4.80196">
        <ele>342.16125</ele>
        <time>2018-02-02T07:10:46Z</time>
      </trkpt>
      <trkpt lat="45.55115" lon="4.80194">
        <ele>342.52588</ele>
        <time>2018-02-02T07:10:47Z</time>
      </trkpt>
      <trkpt lat="45.55116" lon="4.80192">
        <ele>342.38586</ele>
        <time>2018-02-02T07:10:48Z</time>
      </trkpt>
      <trkpt lat="45.55122" lon="4.80182">
        <ele>343.90253</ele>
        <time>2018-02-02T07:10:55Z</time>
      </trkpt>
      <trkpt lat="45.55122" lon="4.8018">
        <ele>343.80212</ele>
        <time>2018-02-02T07:10:56Z</time>
      </trkpt>
      <trkpt lat="45.55122" lon="4.80167">
        <ele>344.96735</ele>
        <time>2018-02-02T07:11:03Z</time>
      </trkpt>
      <trkpt lat="45.55121" lon="4.80164">
        <ele>345.29764</ele>
        <time>2018-02-02T07:11:04Z</time>
      </trkpt>
      <trkpt lat="45.55121" lon="4.80163">
        <ele>345.45352</ele>
        <time>2018-02-02T07:11:05Z</time>
      </trkpt>
      <trkpt lat="45.55121" lon="4.80161">
        <ele>345.34518</ele>
        <time>2018-02-02T07:11:06Z</time>
      </trkpt>
      <trkpt lat="45.55115" lon="4.80149">
        <ele>346.25943</ele>
        <time>2018-02-02T07:11:13Z</time>
      </trkpt>
      <trkpt lat="45.55115" lon="4.80149">
        <ele>346.25943</ele>
        <time>2018-02-02T07:11:13Z</time>
      </trkpt>
      <trkpt lat="45.55109" lon="4.80138">
        <ele>347.53564</ele>
        <time>2018-02-02T07:11:20Z</time>
      </trkpt>
      <trkpt lat="45.55109" lon="4.80136">
        <ele>347.37976</ele>
        <time>2018-02-02T07:11:21Z</time>
      </trkpt>
      <trkpt lat="45.55103" lon="4.80127">
        <ele>348.47894</ele>
        <time>2018-02-02T07:11:27Z</time>
      </trkpt>
      <trkpt lat="45.55101" lon="4.80126">
        <ele>348.23584</ele>
        <time>2018-02-02T07:11:28Z</time>
      </trkpt>
      <trkpt lat="45.55093" lon="4.80117">
        <ele>349.44336</ele>
        <time>2018-02-02T07:11:35Z</time>
      </trkpt>
      <trkpt lat="45.55092" lon="4.80116">
        <ele>349.51736</ele>
        <time>2018-02-02T07:11:36Z</time>
      </trkpt>
      <trkpt lat="45.5509" lon="4.80115">
        <ele>349.76044</ele>
        <time>2018-02-02T07:11:37Z</time>
      </trkpt>
      <trkpt lat="45.55089" lon="4.80115">
        <ele>349.88992</ele>
        <time>2018-02-02T07:11:38Z</time>
      </trkpt>
      <trkpt lat="45.55087" lon="4.80114">
        <ele>350.22018</ele>
        <time>2018-02-02T07:11:39Z</time>
      </trkpt>
      <trkpt lat="45.55086" lon="4.80113">
        <ele>350.08807</ele>
        <time>2018-02-02T07:11:40Z</time>
      </trkpt>
      <trkpt lat="45.55077" lon="4.80107">
        <ele>351.11856</ele>
        <time>2018-02-02T07:11:46Z</time>
      </trkpt>
      <trkpt lat="45.55076" lon="4.80106">
        <ele>351.41187</ele>
        <time>2018-02-02T07:11:47Z</time>
      </trkpt>
      <trkpt lat="45.55075" lon="4.80106">
        <ele>351.68137</ele>
        <time>2018-02-02T07:11:48Z</time>
      </trkpt>
      <trkpt lat="45.55074" lon="4.80105">
        <ele>351.8082</ele>
        <time>2018-02-02T07:11:49Z</time>
      </trkpt>
      <trkpt lat="45.55071" lon="4.80106">
        <ele>351.93237</ele>
        <time>2018-02-02T07:11:50Z</time>
      </trkpt>
      <trkpt lat="45.55071" lon="4.80104">
        <ele>352.0407</ele>
        <time>2018-02-02T07:11:51Z</time>
      </trkpt>
      <trkpt lat="45.5507" lon="4.80103">
        <ele>352.3208</ele>
        <time>2018-02-02T07:11:52Z</time>
      </trkpt>
      <trkpt lat="45.55069" lon="4.80102">
        <ele>352.48727</ele>
        <time>2018-02-02T07:11:53Z</time>
      </trkpt>
      <trkpt lat="45.55069" lon="4.801">
        <ele>352.80435</ele>
        <time>2018-02-02T07:11:54Z</time>
      </trkpt>
      <trkpt lat="45.55068" lon="4.80099">
        <ele>352.9206</ele>
        <time>2018-02-02T07:11:55Z</time>
      </trkpt>
      <trkpt lat="45.55067" lon="4.80098">
        <ele>352.77792</ele>
        <time>2018-02-02T07:11:56Z</time>
      </trkpt>
      <trkpt lat="45.55058" lon="4.80092">
        <ele>353.88504</ele>
        <time>2018-02-02T07:12:04Z</time>
      </trkpt>
      <trkpt lat="45.55057" lon="4.80091">
        <ele>354.03827</ele>
        <time>2018-02-02T07:12:05Z</time>
      </trkpt>
      <trkpt lat="45.55056" lon="4.80091">
        <ele>354.18625</ele>
        <time>2018-02-02T07:12:06Z</time>
      </trkpt>
      <trkpt lat="45.55055" lon="4.8009">
        <ele>354.4452</ele>
        <time>2018-02-02T07:12:07Z</time>
      </trkpt>
      <trkpt lat="45.55054" lon="4.80089">
        <ele>354.2893</ele>
        <time>2018-02-02T07:12:08Z</time>
      </trkpt>
      <trkpt lat="45.55063" lon="4.80085">
        <ele>356.72812</ele>
        <time>2018-02-02T07:12:21Z</time>
      </trkpt>
      <trkpt lat="45.55065" lon="4.80086">
        <ele>356.53522</ele>
        <time>2018-02-02T07:12:22Z</time>
      </trkpt>
      <trkpt lat="45.55074" lon="4.80092">
        <ele>356.24722</ele>
        <time>2018-02-02T07:12:29Z</time>
      </trkpt>
      <trkpt lat="45.55084" lon="4.80097">
        <ele>356.03848</ele>
        <time>2018-02-02T07:12:36Z</time>
      </trkpt>
      <trkpt lat="45.55092" lon="4.80102">
        <ele>355.4413</ele>
        <time>2018-02-02T07:12:42Z</time>
      </trkpt>
      <trkpt lat="45.55101" lon="4.80108">
        <ele>355.15598</ele>
        <time>2018-02-02T07:12:49Z</time>
      </trkpt>
      <trkpt lat="45.5511" lon="4.80112">
        <ele>354.7702</ele>
        <time>2018-02-02T07:12:55Z</time>
      </trkpt>
      <trkpt lat="45.5512" lon="4.80117">
        <ele>354.66714</ele>
        <time>2018-02-02T07:13:02Z</time>
      </trkpt>
      <trkpt lat="45.55129" lon="4.80121">
        <ele>354.66187</ele>
        <time>2018-02-02T07:13:08Z</time>
      </trkpt>
      <trkpt lat="45.55138" lon="4.80123">
        <ele>354.30515</ele>
        <time>2018-02-02T07:13:14Z</time>
      </trkpt>
      <trkpt lat="45.55147" lon="4.8012">
        <ele>354.11755</ele>
        <time>2018-02-02T07:13:21Z</time>
      </trkpt>
      <trkpt lat="45.55155" lon="4.80112">
        <ele>354.06207</ele>
        <time>2018-02-02T07:13:28Z</time>
      </trkpt>
      <trkpt lat="45.55163" lon="4.80103">
        <ele>354.50333</ele>
        <time>2018-02-02T07:13:34Z</time>
      </trkpt>
      <trkpt lat="45.55167" lon="4.80091">
        <ele>354.40027</ele>
        <time>2018-02-02T07:13:40Z</time>
      </trkpt>
      <trkpt lat="45.55172" lon="4.80078">
        <ele>354.89438</ele>
        <time>2018-02-02T07:13:47Z</time>
      </trkpt>
      <trkpt lat="45.55174" lon="4.80065">
        <ele>355.3277</ele>
        <time>2018-02-02T07:13:54Z</time>
      </trkpt>
      <trkpt lat="45.55176" lon="4.80051">
        <ele>355.8641</ele>
        <time>2018-02-02T07:14:00Z</time>
      </trkpt>
      <trkpt lat="45.55179" lon="4.80039">
        <ele>355.85352</ele>
        <time>2018-02-02T07:14:06Z</time>
      </trkpt>
      <trkpt lat="45.55183" lon="4.80026">
        <ele>356.32385</ele>
        <time>2018-02-02T07:14:12Z</time>
      </trkpt>
      <trkpt lat="45.55185" lon="4.8001">
        <ele>356.76776</ele>
        <time>2018-02-02T07:14:20Z</time>
      </trkpt>
      <trkpt lat="45.55186" lon="4.80008">
        <ele>356.9448</ele>
        <time>2018-02-02T07:14:21Z</time>
      </trkpt>
      <trkpt lat="45.55186" lon="4.80006">
        <ele>356.76245</ele>
        <time>2018-02-02T07:14:22Z</time>
      </trkpt>
      <trkpt lat="45.55188" lon="4.79993">
        <ele>357.0769</ele>
        <time>2018-02-02T07:14:28Z</time>
      </trkpt>
      <trkpt lat="45.55189" lon="4.79991">
        <ele>357.3464</ele>
        <time>2018-02-02T07:14:29Z</time>
      </trkpt>
      <trkpt lat="45.55189" lon="4.79989">
        <ele>357.01877</ele>
        <time>2018-02-02T07:14:30Z</time>
      </trkpt>
      <trkpt lat="45.55192" lon="4.79973">
        <ele>356.9025</ele>
        <time>2018-02-02T07:14:37Z</time>
      </trkpt>
      <trkpt lat="45.55193" lon="4.79959">
        <ele>356.37668</ele>
        <time>2018-02-02T07:14:44Z</time>
      </trkpt>
      <trkpt lat="45.55195" lon="4.79946">
        <ele>355.58136</ele>
        <time>2018-02-02T07:14:50Z</time>
      </trkpt>
      <trkpt lat="45.55195" lon="4.79933">
        <ele>355.08463</ele>
        <time>2018-02-02T07:14:57Z</time>
      </trkpt>
      <trkpt lat="45.55198" lon="4.79907">
        <ele>353.19012</ele>
        <time>2018-02-02T07:15:09Z</time>
      </trkpt>
      <trkpt lat="45.552" lon="4.79893">
        <ele>352.11734</ele>
        <time>2018-02-02T07:15:16Z</time>
      </trkpt>
      <trkpt lat="45.55202" lon="4.7988">
        <ele>351.24805</ele>
        <time>2018-02-02T07:15:22Z</time>
      </trkpt>
      <trkpt lat="45.55204" lon="4.79859">
        <ele>349.6151</ele>
        <time>2018-02-02T07:15:32Z</time>
      </trkpt>
      <trkpt lat="45.55199" lon="4.79847">
        <ele>349.07874</ele>
        <time>2018-02-02T07:15:40Z</time>
      </trkpt>
      <trkpt lat="45.5519" lon="4.79848">
        <ele>349.121</ele>
        <time>2018-02-02T07:15:46Z</time>
      </trkpt>
      <trkpt lat="45.55181" lon="4.79852">
        <ele>349.6019</ele>
        <time>2018-02-02T07:15:53Z</time>
      </trkpt>
      <trkpt lat="45.55172" lon="4.79855">
        <ele>349.87143</ele>
        <time>2018-02-02T07:15:59Z</time>
      </trkpt>
      <trkpt lat="45.55162" lon="4.79859">
        <ele>349.9348</ele>
        <time>2018-02-02T07:16:06Z</time>
      </trkpt>
      <trkpt lat="45.55152" lon="4.79865">
        <ele>350.67203</ele>
        <time>2018-02-02T07:16:13Z</time>
      </trkpt>
      <trkpt lat="45.55143" lon="4.79869">
        <ele>350.709</ele>
        <time>2018-02-02T07:16:19Z</time>
      </trkpt>
      <trkpt lat="45.55132" lon="4.79873">
        <ele>349.90576</ele>
        <time>2018-02-02T07:16:26Z</time>
      </trkpt>
      <trkpt lat="45.55123" lon="4.79877">
        <ele>349.9269</ele>
        <time>2018-02-02T07:16:32Z</time>
      </trkpt>
      <trkpt lat="45.55114" lon="4.7988">
        <ele>350.34967</ele>
        <time>2018-02-02T07:16:38Z</time>
      </trkpt>
      <trkpt lat="45.55105" lon="4.79884">
        <ele>350.01675</ele>
        <time>2018-02-02T07:16:45Z</time>
      </trkpt>
      <trkpt lat="45.55095" lon="4.79889">
        <ele>350.6641</ele>
        <time>2018-02-02T07:16:52Z</time>
      </trkpt>
      <trkpt lat="45.55085" lon="4.79893">
        <ele>350.89398</ele>
        <time>2018-02-02T07:16:59Z</time>
      </trkpt>
      <trkpt lat="45.55075" lon="4.79897">
        <ele>351.32468</ele>
        <time>2018-02-02T07:17:05Z</time>
      </trkpt>
      <trkpt lat="45.55065" lon="4.79901">
        <ele>352.1411</ele>
        <time>2018-02-02T07:17:12Z</time>
      </trkpt>
      <trkpt lat="45.55056" lon="4.79902">
        <ele>352.44235</ele>
        <time>2018-02-02T07:17:18Z</time>
      </trkpt>
      <trkpt lat="45.55045" lon="4.79904">
        <ele>352.49518</ele>
        <time>2018-02-02T07:17:25Z</time>
      </trkpt>
      <trkpt lat="45.55035" lon="4.79906">
        <ele>353.0765</ele>
        <time>2018-02-02T07:17:32Z</time>
      </trkpt>
      <trkpt lat="45.55025" lon="4.79906">
        <ele>354.16776</ele>
        <time>2018-02-02T07:17:39Z</time>
      </trkpt>
      <trkpt lat="45.55016" lon="4.79905">
        <ele>354.24173</ele>
        <time>2018-02-02T07:17:45Z</time>
      </trkpt>
      <trkpt lat="45.55006" lon="4.79905">
        <ele>354.68036</ele>
        <time>2018-02-02T07:17:51Z</time>
      </trkpt>
      <trkpt lat="45.54996" lon="4.79904">
        <ele>354.99478</ele>
        <time>2018-02-02T07:17:58Z</time>
      </trkpt>
      <trkpt lat="45.54986" lon="4.79903">
        <ele>355.36472</ele>
        <time>2018-02-02T07:18:05Z</time>
      </trkpt>
      <trkpt lat="45.54976" lon="4.79901">
        <ele>355.93542</ele>
        <time>2018-02-02T07:18:12Z</time>
      </trkpt>
      <trkpt lat="45.54966" lon="4.79899">
        <ele>356.8655</ele>
        <time>2018-02-02T07:18:19Z</time>
      </trkpt>
      <trkpt lat="45.54957" lon="4.79895">
        <ele>357.47852</ele>
        <time>2018-02-02T07:18:25Z</time>
      </trkpt>
      <trkpt lat="45.54955" lon="4.79895">
        <ele>357.66876</ele>
        <time>2018-02-02T07:18:26Z</time>
      </trkpt>
      <trkpt lat="45.54954" lon="4.79895">
        <ele>357.86166</ele>
        <time>2018-02-02T07:18:27Z</time>
      </trkpt>
      <trkpt lat="45.54953" lon="4.79894">
        <ele>357.89865</ele>
        <time>2018-02-02T07:18:28Z</time>
      </trkpt>
      <trkpt lat="45.54951" lon="4.79894">
        <ele>357.86694</ele>
        <time>2018-02-02T07:18:29Z</time>
      </trkpt>
      <trkpt lat="45.54941" lon="4.79891">
        <ele>358.97668</ele>
        <time>2018-02-02T07:18:36Z</time>
      </trkpt>
      <trkpt lat="45.5494" lon="4.7989">
        <ele>359.0084</ele>
        <time>2018-02-02T07:18:37Z</time>
      </trkpt>
      <trkpt lat="45.54939" lon="4.79889">
        <ele>359.33075</ele>
        <time>2018-02-02T07:18:38Z</time>
      </trkpt>
      <trkpt lat="45.54938" lon="4.79889">
        <ele>359.5897</ele>
        <time>2018-02-02T07:18:39Z</time>
      </trkpt>
      <trkpt lat="45.54937" lon="4.79888">
        <ele>359.7958</ele>
        <time>2018-02-02T07:18:40Z</time>
      </trkpt>
      <trkpt lat="45.54937" lon="4.79888">
        <ele>359.7958</ele>
        <time>2018-02-02T07:18:40Z</time>
      </trkpt>
      <trkpt lat="45.54927" lon="4.79883">
        <ele>360.58585</ele>
        <time>2018-02-02T07:18:47Z</time>
      </trkpt>
      <trkpt lat="45.54925" lon="4.79882">
        <ele>360.98746</ele>
        <time>2018-02-02T07:18:48Z</time>
      </trkpt>
      <trkpt lat="45.54925" lon="4.79882">
        <ele>360.98746</ele>
        <time>2018-02-02T07:18:48Z</time>
      </trkpt>
      <trkpt lat="45.54916" lon="4.79875">
        <ele>361.25433</ele>
        <time>2018-02-02T07:18:55Z</time>
      </trkpt>
      <trkpt lat="45.54915" lon="4.79874">
        <ele>361.44193</ele>
        <time>2018-02-02T07:18:56Z</time>
      </trkpt>
      <trkpt lat="45.54906" lon="4.79868">
        <ele>362.43808</ele>
        <time>2018-02-02T07:19:03Z</time>
      </trkpt>
      <trkpt lat="45.54905" lon="4.79867">
        <ele>362.5411</ele>
        <time>2018-02-02T07:19:04Z</time>
      </trkpt>
      <trkpt lat="45.54903" lon="4.79866">
        <ele>362.80536</ele>
        <time>2018-02-02T07:19:05Z</time>
      </trkpt>
      <trkpt lat="45.54902" lon="4.79865">
        <ele>363.1462</ele>
        <time>2018-02-02T07:19:06Z</time>
      </trkpt>
      <trkpt lat="45.54901" lon="4.79864">
        <ele>363.0511</ele>
        <time>2018-02-02T07:19:07Z</time>
      </trkpt>
      <trkpt lat="45.54903" lon="4.79852">
        <ele>363.384</ele>
        <time>2018-02-02T07:19:15Z</time>
      </trkpt>
      <trkpt lat="45.54904" lon="4.7985">
        <ele>362.98502</ele>
        <time>2018-02-02T07:19:16Z</time>
      </trkpt>
      <trkpt lat="45.5491" lon="4.79839">
        <ele>362.76572</ele>
        <time>2018-02-02T07:19:23Z</time>
      </trkpt>
      <trkpt lat="45.54916" lon="4.79828">
        <ele>362.18176</ele>
        <time>2018-02-02T07:19:30Z</time>
      </trkpt>
      <trkpt lat="45.54922" lon="4.79816">
        <ele>361.95453</ele>
        <time>2018-02-02T07:19:37Z</time>
      </trkpt>
      <trkpt lat="45.54929" lon="4.79806">
        <ele>361.56082</ele>
        <time>2018-02-02T07:19:43Z</time>
      </trkpt>
      <trkpt lat="45.54935" lon="4.79796">
        <ele>360.533</ele>
        <time>2018-02-02T07:19:49Z</time>
      </trkpt>
      <trkpt lat="45.54941" lon="4.79786">
        <ele>359.42853</ele>
        <time>2018-02-02T07:19:55Z</time>
      </trkpt>
      <trkpt lat="45.54947" lon="4.79774">
        <ele>358.33463</ele>
        <time>2018-02-02T07:20:02Z</time>
      </trkpt>
      <trkpt lat="45.54954" lon="4.79761">
        <ele>356.85495</ele>
        <time>2018-02-02T07:20:09Z</time>
      </trkpt>
      <trkpt lat="45.5496" lon="4.79749">
        <ele>355.97772</ele>
        <time>2018-02-02T07:20:16Z</time>
      </trkpt>
      <trkpt lat="45.54966" lon="4.79737">
        <ele>354.1889</ele>
        <time>2018-02-02T07:20:22Z</time>
      </trkpt>
      <trkpt lat="45.54972" lon="4.79723">
        <ele>352.46613</ele>
        <time>2018-02-02T07:20:31Z</time>
      </trkpt>
      <trkpt lat="45.54978" lon="4.79711">
        <ele>351.71045</ele>
        <time>2018-02-02T07:20:37Z</time>
      </trkpt>
      <trkpt lat="45.54981" lon="4.79699">
        <ele>351.21896</ele>
        <time>2018-02-02T07:20:43Z</time>
      </trkpt>
      <trkpt lat="45.54981" lon="4.79683">
        <ele>350.25983</ele>
        <time>2018-02-02T07:20:51Z</time>
      </trkpt>
      <trkpt lat="45.54976" lon="4.79671">
        <ele>349.5147</ele>
        <time>2018-02-02T07:20:57Z</time>
      </trkpt>
      <trkpt lat="45.54969" lon="4.79661">
        <ele>348.98096</ele>
        <time>2018-02-02T07:21:03Z</time>
      </trkpt>
      <trkpt lat="45.54963" lon="4.79652">
        <ele>348.39438</ele>
        <time>2018-02-02T07:21:10Z</time>
      </trkpt>
      <trkpt lat="45.54955" lon="4.79641">
        <ele>348.11694</ele>
        <time>2018-02-02T07:21:16Z</time>
      </trkpt>
      <trkpt lat="45.54949" lon="4.79632">
        <ele>347.73117</ele>
        <time>2018-02-02T07:21:23Z</time>
      </trkpt>
      <trkpt lat="45.54942" lon="4.79622">
        <ele>347.13138</ele>
        <time>2018-02-02T07:21:29Z</time>
      </trkpt>
      <trkpt lat="45.54936" lon="4.7961">
        <ele>345.8816</ele>
        <time>2018-02-02T07:21:36Z</time>
      </trkpt>
      <trkpt lat="45.54932" lon="4.79597">
        <ele>344.39398</ele>
        <time>2018-02-02T07:21:43Z</time>
      </trkpt>
      <trkpt lat="45.54932" lon="4.79582">
        <ele>342.93018</ele>
        <time>2018-02-02T07:21:51Z</time>
      </trkpt>
      <trkpt lat="45.54929" lon="4.79569">
        <ele>342.008</ele>
        <time>2018-02-02T07:21:59Z</time>
      </trkpt>
      <trkpt lat="45.54922" lon="4.79557">
        <ele>341.04092</ele>
        <time>2018-02-02T07:22:07Z</time>
      </trkpt>
      <trkpt lat="45.54916" lon="4.79546">
        <ele>338.45944</ele>
        <time>2018-02-02T07:22:17Z</time>
      </trkpt>
      <trkpt lat="45.5491" lon="4.79535">
        <ele>336.9877</ele>
        <time>2018-02-02T07:22:26Z</time>
      </trkpt>
      <trkpt lat="45.54904" lon="4.79526">
        <ele>336.10254</ele>
        <time>2018-02-02T07:22:37Z</time>
      </trkpt>
      <trkpt lat="45.54895" lon="4.79518">
        <ele>335.52914</ele>
        <time>2018-02-02T07:22:42Z</time>
      </trkpt>
      <trkpt lat="45.54888" lon="4.79509">
        <ele>335.64014</ele>
        <time>2018-02-02T07:22:48Z</time>
      </trkpt>
      <trkpt lat="45.54881" lon="4.795">
        <ele>336.0946</ele>
        <time>2018-02-02T07:22:57Z</time>
      </trkpt>
      <trkpt lat="45.54886" lon="4.79488">
        <ele>336.4249</ele>
        <time>2018-02-02T07:23:09Z</time>
      </trkpt>
      <trkpt lat="45.54895" lon="4.7948">
        <ele>336.10254</ele>
        <time>2018-02-02T07:23:15Z</time>
      </trkpt>
      <trkpt lat="45.54905" lon="4.79473">
        <ele>336.66797</ele>
        <time>2018-02-02T07:23:22Z</time>
      </trkpt>
      <trkpt lat="45.54915" lon="4.79469">
        <ele>336.30334</ele>
        <time>2018-02-02T07:23:27Z</time>
      </trkpt>
      <trkpt lat="45.54925" lon="4.79466">
        <ele>335.8832</ele>
        <time>2018-02-02T07:23:32Z</time>
      </trkpt>
      <trkpt lat="45.54935" lon="4.79463">
        <ele>335.619</ele>
        <time>2018-02-02T07:23:39Z</time>
      </trkpt>
      <trkpt lat="45.54944" lon="4.79461">
        <ele>335.82773</ele>
        <time>2018-02-02T07:23:45Z</time>
      </trkpt>
      <trkpt lat="45.54954" lon="4.7946">
        <ele>335.89642</ele>
        <time>2018-02-02T07:23:50Z</time>
      </trkpt>
      <trkpt lat="45.54963" lon="4.79459">
        <ele>334.59906</ele>
        <time>2018-02-02T07:23:56Z</time>
      </trkpt>
      <trkpt lat="45.54973" lon="4.79455">
        <ele>334.97427</ele>
        <time>2018-02-02T07:24:02Z</time>
      </trkpt>
      <trkpt lat="45.54982" lon="4.79451">
        <ele>335.331</ele>
        <time>2018-02-02T07:24:08Z</time>
      </trkpt>
      <trkpt lat="45.54992" lon="4.79449">
        <ele>335.91492</ele>
        <time>2018-02-02T07:24:14Z</time>
      </trkpt>
      <trkpt lat="45.55001" lon="4.79447">
        <ele>336.55435</ele>
        <time>2018-02-02T07:24:21Z</time>
      </trkpt>
      <trkpt lat="45.55011" lon="4.79445">
        <ele>336.48566</ele>
        <time>2018-02-02T07:24:28Z</time>
      </trkpt>
      <trkpt lat="45.55021" lon="4.79441">
        <ele>337.1383</ele>
        <time>2018-02-02T07:24:35Z</time>
      </trkpt>
      <trkpt lat="45.5503" lon="4.79439">
        <ele>337.55313</ele>
        <time>2018-02-02T07:24:42Z</time>
      </trkpt>
      <trkpt lat="45.5504" lon="4.79434">
        <ele>338.2824</ele>
        <time>2018-02-02T07:24:49Z</time>
      </trkpt>
      <trkpt lat="45.55048" lon="4.79427">
        <ele>339.3631</ele>
        <time>2018-02-02T07:24:55Z</time>
      </trkpt>
      <trkpt lat="45.55053" lon="4.79416">
        <ele>340.53625</ele>
        <time>2018-02-02T07:25:05Z</time>
      </trkpt>
      <trkpt lat="45.5506" lon="4.79408">
        <ele>341.2893</ele>
        <time>2018-02-02T07:25:11Z</time>
      </trkpt>
      <trkpt lat="45.55069" lon="4.79403">
        <ele>340.8058</ele>
        <time>2018-02-02T07:25:17Z</time>
      </trkpt>
      <trkpt lat="45.55079" lon="4.79402">
        <ele>340.6948</ele>
        <time>2018-02-02T07:25:23Z</time>
      </trkpt>
      <trkpt lat="45.5509" lon="4.79403">
        <ele>339.56125</ele>
        <time>2018-02-02T07:25:31Z</time>
      </trkpt>
      <trkpt lat="45.551" lon="4.79403">
        <ele>338.7633</ele>
        <time>2018-02-02T07:25:37Z</time>
      </trkpt>
      <trkpt lat="45.55111" lon="4.79404">
        <ele>338.10538</ele>
        <time>2018-02-02T07:25:44Z</time>
      </trkpt>
      <trkpt lat="45.5512" lon="4.79403">
        <ele>337.37344</ele>
        <time>2018-02-02T07:25:50Z</time>
      </trkpt>
      <trkpt lat="45.55129" lon="4.79398">
        <ele>336.5438</ele>
        <time>2018-02-02T07:25:56Z</time>
      </trkpt>
      <trkpt lat="45.55136" lon="4.79386">
        <ele>336.19235</ele>
        <time>2018-02-02T07:26:03Z</time>
      </trkpt>
      <trkpt lat="45.55139" lon="4.79374">
        <ele>335.57935</ele>
        <time>2018-02-02T07:26:09Z</time>
      </trkpt>
      <trkpt lat="45.55142" lon="4.79361">
        <ele>333.80902</ele>
        <time>2018-02-02T07:26:16Z</time>
      </trkpt>
      <trkpt lat="45.55145" lon="4.79347">
        <ele>333.87244</ele>
        <time>2018-02-02T07:26:23Z</time>
      </trkpt>
      <trkpt lat="45.55138" lon="4.79337">
        <ele>333.6267</ele>
        <time>2018-02-02T07:26:30Z</time>
      </trkpt>
      <trkpt lat="45.55129" lon="4.79331">
        <ele>333.96228</ele>
        <time>2018-02-02T07:26:37Z</time>
      </trkpt>
      <trkpt lat="45.5512" lon="4.79326">
        <ele>334.27936</ele>
        <time>2018-02-02T07:26:44Z</time>
      </trkpt>
      <trkpt lat="45.5511" lon="4.7932">
        <ele>334.74176</ele>
        <time>2018-02-02T07:26:51Z</time>
      </trkpt>
      <trkpt lat="45.55102" lon="4.79314">
        <ele>335.67975</ele>
        <time>2018-02-02T07:26:58Z</time>
      </trkpt>
      <trkpt lat="45.55093" lon="4.79307">
        <ele>334.98483</ele>
        <time>2018-02-02T07:27:05Z</time>
      </trkpt>
      <trkpt lat="45.55085" lon="4.793">
        <ele>334.9188</ele>
        <time>2018-02-02T07:27:11Z</time>
      </trkpt>
      <trkpt lat="45.55077" lon="4.79294">
        <ele>334.607</ele>
        <time>2018-02-02T07:27:17Z</time>
      </trkpt>
      <trkpt lat="45.55068" lon="4.79286">
        <ele>334.21066</ele>
        <time>2018-02-02T07:27:28Z</time>
      </trkpt>
      <trkpt lat="45.55066" lon="4.79273">
        <ele>335.42346</ele>
        <time>2018-02-02T07:27:41Z</time>
      </trkpt>
      <trkpt lat="45.55063" lon="4.79261">
        <ele>336.40375</ele>
        <time>2018-02-02T07:27:53Z</time>
      </trkpt>
      <trkpt lat="45.55059" lon="4.79248">
        <ele>337.7566</ele>
        <time>2018-02-02T07:28:00Z</time>
      </trkpt>
      <trkpt lat="45.55056" lon="4.79235">
        <ele>339.66696</ele>
        <time>2018-02-02T07:28:08Z</time>
      </trkpt>
      <trkpt lat="45.55057" lon="4.79221">
        <ele>341.5694</ele>
        <time>2018-02-02T07:28:19Z</time>
      </trkpt>
      <trkpt lat="45.55053" lon="4.79209">
        <ele>343.38727</ele>
        <time>2018-02-02T07:28:27Z</time>
      </trkpt>
      <trkpt lat="45.5505" lon="4.79196">
        <ele>346.06918</ele>
        <time>2018-02-02T07:28:37Z</time>
      </trkpt>
      <trkpt lat="45.55047" lon="4.79181">
        <ele>347.89236</ele>
        <time>2018-02-02T07:28:48Z</time>
      </trkpt>
      <trkpt lat="45.55044" lon="4.79169">
        <ele>349.09723</ele>
        <time>2018-02-02T07:28:56Z</time>
      </trkpt>
      <trkpt lat="45.5504" lon="4.79156">
        <ele>350.3576</ele>
        <time>2018-02-02T07:29:03Z</time>
      </trkpt>
      <trkpt lat="45.55036" lon="4.79143">
        <ele>351.00494</ele>
        <time>2018-02-02T07:29:09Z</time>
      </trkpt>
      <trkpt lat="45.5503" lon="4.79132">
        <ele>351.40393</ele>
        <time>2018-02-02T07:29:16Z</time>
      </trkpt>
      <trkpt lat="45.55023" lon="4.79127">
        <ele>352.58768</ele>
        <time>2018-02-02T07:29:34Z</time>
      </trkpt>
      <trkpt lat="45.55017" lon="4.79131">
        <ele>352.7013</ele>
        <time>2018-02-02T07:30:12Z</time>
      </trkpt>
      <trkpt lat="45.55007" lon="4.79134">
        <ele>354.4082</ele>
        <time>2018-02-02T07:30:20Z</time>
      </trkpt>
      <trkpt lat="45.54998" lon="4.79135">
        <ele>355.94864</ele>
        <time>2018-02-02T07:30:28Z</time>
      </trkpt>
      <trkpt lat="45.54988" lon="4.79138">
        <ele>357.80615</ele>
        <time>2018-02-02T07:30:37Z</time>
      </trkpt>
      <trkpt lat="45.54977" lon="4.79141">
        <ele>359.8037</ele>
        <time>2018-02-02T07:30:47Z</time>
      </trkpt>
      <trkpt lat="45.54971" lon="4.79131">
        <ele>361.0588</ele>
        <time>2018-02-02T07:31:00Z</time>
      </trkpt>
      <trkpt lat="45.54971" lon="4.79116">
        <ele>360.0204</ele>
        <time>2018-02-02T07:31:08Z</time>
      </trkpt>
      <trkpt lat="45.54971" lon="4.79103">
        <ele>359.4523</ele>
        <time>2018-02-02T07:31:15Z</time>
      </trkpt>
      <trkpt lat="45.54972" lon="4.79089">
        <ele>358.97668</ele>
        <time>2018-02-02T07:31:22Z</time>
      </trkpt>
      <trkpt lat="45.54973" lon="4.79075">
        <ele>358.11002</ele>
        <time>2018-02-02T07:31:29Z</time>
      </trkpt>
      <trkpt lat="45.54972" lon="4.79061">
        <ele>357.05576</ele>
        <time>2018-02-02T07:31:37Z</time>
      </trkpt>
      <trkpt lat="45.54969" lon="4.79047">
        <ele>356.22607</ele>
        <time>2018-02-02T07:31:45Z</time>
      </trkpt>
      <trkpt lat="45.54965" lon="4.79033">
        <ele>354.53238</ele>
        <time>2018-02-02T07:31:54Z</time>
      </trkpt>
      <trkpt lat="45.54963" lon="4.7902">
        <ele>352.86777</ele>
        <time>2018-02-02T07:32:05Z</time>
      </trkpt>
      <trkpt lat="45.54955" lon="4.79014">
        <ele>351.2269</ele>
        <time>2018-02-02T07:32:18Z</time>
      </trkpt>
      <trkpt lat="45.54946" lon="4.79008">
        <ele>350.5267</ele>
        <time>2018-02-02T07:32:24Z</time>
      </trkpt>
      <trkpt lat="45.54938" lon="4.79001">
        <ele>349.52264</ele>
        <time>2018-02-02T07:32:32Z</time>
      </trkpt>
      <trkpt lat="45.54929" lon="4.78997">
        <ele>348.61368</ele>
        <time>2018-02-02T07:32:41Z</time>
      </trkpt>
      <trkpt lat="45.54917" lon="4.78994">
        <ele>348.16452</ele>
        <time>2018-02-02T07:32:48Z</time>
      </trkpt>
      <trkpt lat="45.54906" lon="4.7899">
        <ele>347.0574</ele>
        <time>2018-02-02T07:32:59Z</time>
      </trkpt>
      <trkpt lat="45.54897" lon="4.78983">
        <ele>346.91736</ele>
        <time>2018-02-02T07:33:07Z</time>
      </trkpt>
      <trkpt lat="45.54888" lon="4.78981">
        <ele>346.23566</ele>
        <time>2018-02-02T07:33:17Z</time>
      </trkpt>
      <trkpt lat="45.54881" lon="4.78972">
        <ele>346.25415</ele>
        <time>2018-02-02T07:33:26Z</time>
      </trkpt>
      <trkpt lat="45.54872" lon="4.78965">
        <ele>346.67426</ele>
        <time>2018-02-02T07:33:33Z</time>
      </trkpt>
      <trkpt lat="45.54868" lon="4.78953">
        <ele>346.55536</ele>
        <time>2018-02-02T07:33:41Z</time>
      </trkpt>
      <trkpt lat="45.54859" lon="4.78948">
        <ele>345.908</ele>
        <time>2018-02-02T07:33:46Z</time>
      </trkpt>
      <trkpt lat="45.54849" lon="4.7894">
        <ele>344.12448</ele>
        <time>2018-02-02T07:33:57Z</time>
      </trkpt>
      <trkpt lat="45.54839" lon="4.78934">
        <ele>343.1574</ele>
        <time>2018-02-02T07:34:02Z</time>
      </trkpt>
      <trkpt lat="45.54828" lon="4.78926">
        <ele>342.5391</ele>
        <time>2018-02-02T07:34:09Z</time>
      </trkpt>
      <trkpt lat="45.54822" lon="4.78917">
        <ele>341.8389</ele>
        <time>2018-02-02T07:34:16Z</time>
      </trkpt>
      <trkpt lat="45.54815" lon="4.78909">
        <ele>341.3078</ele>
        <time>2018-02-02T07:34:20Z</time>
      </trkpt>
      <trkpt lat="45.54806" lon="4.78898">
        <ele>339.3763</ele>
        <time>2018-02-02T07:34:28Z</time>
      </trkpt>
      <trkpt lat="45.54798" lon="4.78893">
        <ele>339.31818</ele>
        <time>2018-02-02T07:34:30Z</time>
      </trkpt>
      <trkpt lat="45.54791" lon="4.78885">
        <ele>338.24542</ele>
        <time>2018-02-02T07:34:38Z</time>
      </trkpt>
      <trkpt lat="45.54783" lon="4.78876">
        <ele>337.17792</ele>
        <time>2018-02-02T07:34:46Z</time>
      </trkpt>
      <trkpt lat="45.54777" lon="4.78865">
        <ele>336.084</ele>
        <time>2018-02-02T07:34:53Z</time>
      </trkpt>
      <trkpt lat="45.54763" lon="4.78851">
        <ele>334.3322</ele>
        <time>2018-02-02T07:35:05Z</time>
      </trkpt>
      <trkpt lat="45.54751" lon="4.78833">
        <ele>331.25925</ele>
        <time>2018-02-02T07:35:16Z</time>
      </trkpt>
      <trkpt lat="45.5474" lon="4.78826">
        <ele>330.33444</ele>
        <time>2018-02-02T07:35:21Z</time>
      </trkpt>
      <trkpt lat="45.54737" lon="4.78814">
        <ele>327.95905</ele>
        <time>2018-02-02T07:35:29Z</time>
      </trkpt>
      <trkpt lat="45.54729" lon="4.78803">
        <ele>325.5995</ele>
        <time>2018-02-02T07:35:39Z</time>
      </trkpt>
      <trkpt lat="45.54725" lon="4.78791">
        <ele>323.1739</ele>
        <time>2018-02-02T07:35:48Z</time>
      </trkpt>
      <trkpt lat="45.54718" lon="4.7878">
        <ele>321.3058</ele>
        <time>2018-02-02T07:35:56Z</time>
      </trkpt>
      <trkpt lat="45.54712" lon="4.7877">
        <ele>319.9635</ele>
        <time>2018-02-02T07:36:04Z</time>
      </trkpt>
      <trkpt lat="45.54709" lon="4.78758">
        <ele>317.50885</ele>
        <time>2018-02-02T07:36:14Z</time>
      </trkpt>
      <trkpt lat="45.54704" lon="4.78747">
        <ele>316.5259</ele>
        <time>2018-02-02T07:36:21Z</time>
      </trkpt>
      <trkpt lat="45.54697" lon="4.78736">
        <ele>314.70538</ele>
        <time>2018-02-02T07:36:28Z</time>
      </trkpt>
      <trkpt lat="45.54694" lon="4.78724">
        <ele>313.47144</ele>
        <time>2018-02-02T07:36:35Z</time>
      </trkpt>
      <trkpt lat="45.54693" lon="4.7871">
        <ele>310.90845</ele>
        <time>2018-02-02T07:36:45Z</time>
      </trkpt>
      <trkpt lat="45.54689" lon="4.78696">
        <ele>309.82776</ele>
        <time>2018-02-02T07:36:54Z</time>
      </trkpt>
      <trkpt lat="45.54685" lon="4.78682">
        <ele>308.56738</ele>
        <time>2018-02-02T07:37:02Z</time>
      </trkpt>
      <trkpt lat="45.5468" lon="4.78665">
        <ele>306.517</ele>
        <time>2018-02-02T07:37:11Z</time>
      </trkpt>
      <trkpt lat="45.54679" lon="4.78652">
        <ele>304.58813</ele>
        <time>2018-02-02T07:37:19Z</time>
      </trkpt>
      <trkpt lat="45.54678" lon="4.78638">
        <ele>302.7121</ele>
        <time>2018-02-02T07:37:28Z</time>
      </trkpt>
      <trkpt lat="45.54674" lon="4.78625">
        <ele>299.9483</ele>
        <time>2018-02-02T07:37:37Z</time>
      </trkpt>
      <trkpt lat="45.54672" lon="4.78612">
        <ele>297.83182</ele>
        <time>2018-02-02T07:37:46Z</time>
      </trkpt>
      <trkpt lat="45.54667" lon="4.78599">
        <ele>296.24118</ele>
        <time>2018-02-02T07:37:54Z</time>
      </trkpt>
      <trkpt lat="45.54676" lon="4.78596">
        <ele>292.3544</ele>
        <time>2018-02-02T07:38:11Z</time>
      </trkpt>
      <trkpt lat="45.54682" lon="4.78606">
        <ele>291.53793</ele>
        <time>2018-02-02T07:38:20Z</time>
      </trkpt>
      <trkpt lat="45.54689" lon="4.78616">
        <ele>290.9117</ele>
        <time>2018-02-02T07:38:29Z</time>
      </trkpt>
      <trkpt lat="45.54696" lon="4.78627">
        <ele>290.63956</ele>
        <time>2018-02-02T07:38:36Z</time>
      </trkpt>
      <trkpt lat="45.54701" lon="4.78639">
        <ele>290.14017</ele>
        <time>2018-02-02T07:38:43Z</time>
      </trkpt>
      <trkpt lat="45.54707" lon="4.7865">
        <ele>290.36212</ele>
        <time>2018-02-02T07:38:50Z</time>
      </trkpt>
      <trkpt lat="45.54713" lon="4.78661">
        <ele>290.07147</ele>
        <time>2018-02-02T07:38:58Z</time>
      </trkpt>
      <trkpt lat="45.54718" lon="4.78671">
        <ele>291.2922</ele>
        <time>2018-02-02T07:39:05Z</time>
      </trkpt>
      <trkpt lat="45.54726" lon="4.78679">
        <ele>291.73346</ele>
        <time>2018-02-02T07:39:13Z</time>
      </trkpt>
      <trkpt lat="45.54733" lon="4.78689">
        <ele>290.93286</ele>
        <time>2018-02-02T07:39:20Z</time>
      </trkpt>
      <trkpt lat="45.54741" lon="4.787">
        <ele>290.73734</ele>
        <time>2018-02-02T07:39:26Z</time>
      </trkpt>
      <trkpt lat="45.54749" lon="4.78707">
        <ele>291.6912</ele>
        <time>2018-02-02T07:39:33Z</time>
      </trkpt>
      <trkpt lat="45.54757" lon="4.78717">
        <ele>291.78632</ele>
        <time>2018-02-02T07:39:40Z</time>
      </trkpt>
      <trkpt lat="45.54766" lon="4.78723">
        <ele>291.26843</ele>
        <time>2018-02-02T07:39:47Z</time>
      </trkpt>
      <trkpt lat="45.54774" lon="4.7873">
        <ele>290.90643</ele>
        <time>2018-02-02T07:39:55Z</time>
      </trkpt>
      <trkpt lat="45.54781" lon="4.7874">
        <ele>290.83774</ele>
        <time>2018-02-02T07:40:01Z</time>
      </trkpt>
      <trkpt lat="45.54789" lon="4.78744">
        <ele>291.00684</ele>
        <time>2018-02-02T07:40:08Z</time>
      </trkpt>
      <trkpt lat="45.54798" lon="4.7875">
        <ele>289.22595</ele>
        <time>2018-02-02T07:40:16Z</time>
      </trkpt>
      <trkpt lat="45.54807" lon="4.78754">
        <ele>286.85318</ele>
        <time>2018-02-02T07:40:25Z</time>
      </trkpt>
      <trkpt lat="45.54816" lon="4.78754">
        <ele>285.57962</ele>
        <time>2018-02-02T07:40:32Z</time>
      </trkpt>
      <trkpt lat="45.54825" lon="4.78759">
        <ele>284.17126</ele>
        <time>2018-02-02T07:40:40Z</time>
      </trkpt>
      <trkpt lat="45.54834" lon="4.78766">
        <ele>283.878</ele>
        <time>2018-02-02T07:40:47Z</time>
      </trkpt>
      <trkpt lat="45.54843" lon="4.78771">
        <ele>282.66782</ele>
        <time>2018-02-02T07:40:54Z</time>
      </trkpt>
      <trkpt lat="45.54852" lon="4.78774">
        <ele>281.85135</ele>
        <time>2018-02-02T07:40:59Z</time>
      </trkpt>
      <trkpt lat="45.54861" lon="4.78779">
        <ele>281.27005</ele>
        <time>2018-02-02T07:41:05Z</time>
      </trkpt>
      <trkpt lat="45.5487" lon="4.78783">
        <ele>281.26743</ele>
        <time>2018-02-02T07:41:12Z</time>
      </trkpt>
      <trkpt lat="45.5488" lon="4.78786">
        <ele>281.40216</ele>
        <time>2018-02-02T07:41:20Z</time>
      </trkpt>
      <trkpt lat="45.54889" lon="4.78792">
        <ele>281.5977</ele>
        <time>2018-02-02T07:41:28Z</time>
      </trkpt>
      <trkpt lat="45.54898" lon="4.78795">
        <ele>282.24506</ele>
        <time>2018-02-02T07:41:33Z</time>
      </trkpt>
      <trkpt lat="45.54907" lon="4.78798">
        <ele>282.76028</ele>
        <time>2018-02-02T07:41:41Z</time>
      </trkpt>
      <trkpt lat="45.54917" lon="4.788">
        <ele>282.504</ele>
        <time>2018-02-02T07:41:47Z</time>
      </trkpt>
      <trkpt lat="45.54926" lon="4.78808">
        <ele>282.22128</ele>
        <time>2018-02-02T07:41:53Z</time>
      </trkpt>
      <trkpt lat="45.54934" lon="4.78815">
        <ele>281.70074</ele>
        <time>2018-02-02T07:42:02Z</time>
      </trkpt>
      <trkpt lat="45.54944" lon="4.78817">
        <ele>281.9042</ele>
        <time>2018-02-02T07:42:09Z</time>
      </trkpt>
      <trkpt lat="45.54954" lon="4.7882">
        <ele>282.02838</ele>
        <time>2018-02-02T07:42:17Z</time>
      </trkpt>
      <trkpt lat="45.54964" lon="4.78825">
        <ele>282.86072</ele>
        <time>2018-02-02T07:42:25Z</time>
      </trkpt>
      <trkpt lat="45.54973" lon="4.78828">
        <ele>283.15665</ele>
        <time>2018-02-02T07:42:33Z</time>
      </trkpt>
      <trkpt lat="45.54981" lon="4.78835">
        <ele>283.88855</ele>
        <time>2018-02-02T07:42:40Z</time>
      </trkpt>
      <trkpt lat="45.5499" lon="4.78841">
        <ele>285.3233</ele>
        <time>2018-02-02T07:42:47Z</time>
      </trkpt>
      <trkpt lat="45.54996" lon="4.7885">
        <ele>286.52554</ele>
        <time>2018-02-02T07:42:53Z</time>
      </trkpt>
      <trkpt lat="45.55005" lon="4.78854">
        <ele>287.28915</ele>
        <time>2018-02-02T07:43:02Z</time>
      </trkpt>
      <trkpt lat="45.55013" lon="4.78859">
        <ele>287.43185</ele>
        <time>2018-02-02T07:43:16Z</time>
      </trkpt>
      <trkpt lat="45.55023" lon="4.78862">
        <ele>288.62085</ele>
        <time>2018-02-02T07:43:24Z</time>
      </trkpt>
      <trkpt lat="45.55033" lon="4.78865">
        <ele>287.62473</ele>
        <time>2018-02-02T07:43:33Z</time>
      </trkpt>
      <trkpt lat="45.55043" lon="4.78869">
        <ele>285.57697</ele>
        <time>2018-02-02T07:43:41Z</time>
      </trkpt>
      <trkpt lat="45.55053" lon="4.78871">
        <ele>284.16864</ele>
        <time>2018-02-02T07:43:47Z</time>
      </trkpt>
      <trkpt lat="45.55062" lon="4.78874">
        <ele>283.7485</ele>
        <time>2018-02-02T07:43:53Z</time>
      </trkpt>
      <trkpt lat="45.55071" lon="4.78878">
        <ele>283.26498</ele>
        <time>2018-02-02T07:43:59Z</time>
      </trkpt>
      <trkpt lat="45.5508" lon="4.7888">
        <ele>283.02454</ele>
        <time>2018-02-02T07:44:05Z</time>
      </trkpt>
      <trkpt lat="45.55087" lon="4.78888">
        <ele>281.82758</ele>
        <time>2018-02-02T07:44:11Z</time>
      </trkpt>
      <trkpt lat="45.55097" lon="4.78893">
        <ele>280.41925</ele>
        <time>2018-02-02T07:44:18Z</time>
      </trkpt>
      <trkpt lat="45.55107" lon="4.78895">
        <ele>278.892</ele>
        <time>2018-02-02T07:44:25Z</time>
      </trkpt>
      <trkpt lat="45.55116" lon="4.78904">
        <ele>277.46518</ele>
        <time>2018-02-02T07:44:34Z</time>
      </trkpt>
      <trkpt lat="45.55124" lon="4.78908">
        <ele>274.65643</ele>
        <time>2018-02-02T07:44:43Z</time>
      </trkpt>
      <trkpt lat="45.55134" lon="4.7891">
        <ele>272.51355</ele>
        <time>2018-02-02T07:44:52Z</time>
      </trkpt>
      <trkpt lat="45.55143" lon="4.78911">
        <ele>270.95197</ele>
        <time>2018-02-02T07:45:00Z</time>
      </trkpt>
      <trkpt lat="45.55153" lon="4.7891">
        <ele>270.6164</ele>
        <time>2018-02-02T07:45:06Z</time>
      </trkpt>
      <trkpt lat="45.55162" lon="4.78911">
        <ele>270.03247</ele>
        <time>2018-02-02T07:45:21Z</time>
      </trkpt>
      <trkpt lat="45.55169" lon="4.78921">
        <ele>270.6085</ele>
        <time>2018-02-02T07:45:34Z</time>
      </trkpt>
      <trkpt lat="45.55178" lon="4.78926">
        <ele>270.38126</ele>
        <time>2018-02-02T07:45:40Z</time>
      </trkpt>
      <trkpt lat="45.55185" lon="4.78934">
        <ele>270.31256</ele>
        <time>2018-02-02T07:45:48Z</time>
      </trkpt>
      <trkpt lat="45.55193" lon="4.78941">
        <ele>270.60583</ele>
        <time>2018-02-02T07:45:55Z</time>
      </trkpt>
      <trkpt lat="45.55199" lon="4.78951">
        <ele>270.63226</ele>
        <time>2018-02-02T07:46:03Z</time>
      </trkpt>
      <trkpt lat="45.55203" lon="4.78963">
        <ele>271.26376</ele>
        <time>2018-02-02T07:46:09Z</time>
      </trkpt>
      <trkpt lat="45.5521" lon="4.78974">
        <ele>271.43814</ele>
        <time>2018-02-02T07:46:15Z</time>
      </trkpt>
      <trkpt lat="45.55216" lon="4.78985">
        <ele>273.03143</ele>
        <time>2018-02-02T07:46:23Z</time>
      </trkpt>
      <trkpt lat="45.55221" lon="4.78997">
        <ele>273.48328</ele>
        <time>2018-02-02T07:46:30Z</time>
      </trkpt>
      <trkpt lat="45.55228" lon="4.79007">
        <ele>274.33145</ele>
        <time>2018-02-02T07:46:36Z</time>
      </trkpt>
      <trkpt lat="45.55231" lon="4.79019">
        <ele>274.69873</ele>
        <time>2018-02-02T07:46:42Z</time>
      </trkpt>
      <trkpt lat="45.55239" lon="4.79027">
        <ele>275.15582</ele>
        <time>2018-02-02T07:46:49Z</time>
      </trkpt>
      <trkpt lat="45.55247" lon="4.79034">
        <ele>275.68692</ele>
        <time>2018-02-02T07:46:57Z</time>
      </trkpt>
      <trkpt lat="45.55256" lon="4.79041">
        <ele>277.24588</ele>
        <time>2018-02-02T07:47:13Z</time>
      </trkpt>
      <trkpt lat="45.55264" lon="4.79046">
        <ele>279.21173</ele>
        <time>2018-02-02T07:47:23Z</time>
      </trkpt>
      <trkpt lat="45.55275" lon="4.79049">
        <ele>280.7971</ele>
        <time>2018-02-02T07:47:30Z</time>
      </trkpt>
      <trkpt lat="45.55281" lon="4.79059">
        <ele>282.41153</ele>
        <time>2018-02-02T07:47:40Z</time>
      </trkpt>
      <trkpt lat="45.55291" lon="4.7906">
        <ele>283.40503</ele>
        <time>2018-02-02T07:47:47Z</time>
      </trkpt>
      <trkpt lat="45.55301" lon="4.79064">
        <ele>284.38528</ele>
        <time>2018-02-02T07:47:52Z</time>
      </trkpt>
      <trkpt lat="45.5531" lon="4.79066">
        <ele>285.33124</ele>
        <time>2018-02-02T07:48:01Z</time>
      </trkpt>
      <trkpt lat="45.5532" lon="4.79066">
        <ele>286.36966</ele>
        <time>2018-02-02T07:48:07Z</time>
      </trkpt>
      <trkpt lat="45.55327" lon="4.79073">
        <ele>285.31802</ele>
        <time>2018-02-02T07:48:13Z</time>
      </trkpt>
      <trkpt lat="45.55335" lon="4.79082">
        <ele>284.3589</ele>
        <time>2018-02-02T07:48:20Z</time>
      </trkpt>
      <trkpt lat="45.55341" lon="4.79093">
        <ele>284.6601</ele>
        <time>2018-02-02T07:48:25Z</time>
      </trkpt>
      <trkpt lat="45.55349" lon="4.79101">
        <ele>284.7922</ele>
        <time>2018-02-02T07:48:30Z</time>
      </trkpt>
      <trkpt lat="45.55358" lon="4.79107">
        <ele>284.779</ele>
        <time>2018-02-02T07:48:35Z</time>
      </trkpt>
      <trkpt lat="45.55367" lon="4.79115">
        <ele>284.03387</ele>
        <time>2018-02-02T07:48:42Z</time>
      </trkpt>
      <trkpt lat="45.55375" lon="4.79125">
        <ele>283.89383</ele>
        <time>2018-02-02T07:48:49Z</time>
      </trkpt>
      <trkpt lat="45.55383" lon="4.79133">
        <ele>284.52533</ele>
        <time>2018-02-02T07:48:56Z</time>
      </trkpt>
      <trkpt lat="45.55388" lon="4.79143">
        <ele>284.94547</ele>
        <time>2018-02-02T07:49:03Z</time>
      </trkpt>
      <trkpt lat="45.55388" lon="4.79156">
        <ele>285.93103</ele>
        <time>2018-02-02T07:49:11Z</time>
      </trkpt>
      <trkpt lat="45.55392" lon="4.79168">
        <ele>287.31558</ele>
        <time>2018-02-02T07:49:17Z</time>
      </trkpt>
      <trkpt lat="45.55398" lon="4.79179">
        <ele>288.68164</ele>
        <time>2018-02-02T07:49:27Z</time>
      </trkpt>
      <trkpt lat="45.55404" lon="4.79189">
        <ele>289.58002</ele>
        <time>2018-02-02T07:49:35Z</time>
      </trkpt>
      <trkpt lat="45.55411" lon="4.792">
        <ele>291.12573</ele>
        <time>2018-02-02T07:49:46Z</time>
      </trkpt>
      <trkpt lat="45.55418" lon="4.79209">
        <ele>291.6225</ele>
        <time>2018-02-02T07:49:53Z</time>
      </trkpt>
      <trkpt lat="45.55427" lon="4.79216">
        <ele>293.1682</ele>
        <time>2018-02-02T07:50:04Z</time>
      </trkpt>
      <trkpt lat="45.55434" lon="4.79225">
        <ele>294.3361</ele>
        <time>2018-02-02T07:50:12Z</time>
      </trkpt>
      <trkpt lat="45.55443" lon="4.79233">
        <ele>295.45908</ele>
        <time>2018-02-02T07:50:21Z</time>
      </trkpt>
      <trkpt lat="45.55449" lon="4.79245">
        <ele>295.86597</ele>
        <time>2018-02-02T07:50:25Z</time>
      </trkpt>
      <trkpt lat="45.55455" lon="4.79259">
        <ele>296.92816</ele>
        <time>2018-02-02T07:50:32Z</time>
      </trkpt>
      <trkpt lat="45.55461" lon="4.7927">
        <ele>298.39728</ele>
        <time>2018-02-02T07:50:40Z</time>
      </trkpt>
      <trkpt lat="45.5547" lon="4.79275">
        <ele>300.46353</ele>
        <time>2018-02-02T07:50:48Z</time>
      </trkpt>
      <trkpt lat="45.55477" lon="4.79264">
        <ele>300.1042</ele>
        <time>2018-02-02T07:50:56Z</time>
      </trkpt>
      <trkpt lat="45.55485" lon="4.79256">
        <ele>298.9363</ele>
        <time>2018-02-02T07:51:03Z</time>
      </trkpt>
      <trkpt lat="45.55493" lon="4.7925">
        <ele>297.7499</ele>
        <time>2018-02-02T07:51:10Z</time>
      </trkpt>
      <trkpt lat="45.555" lon="4.79241">
        <ele>297.1554</ele>
        <time>2018-02-02T07:51:16Z</time>
      </trkpt>
      <trkpt lat="45.55509" lon="4.79232">
        <ele>297.15012</ele>
        <time>2018-02-02T07:51:21Z</time>
      </trkpt>
      <trkpt lat="45.55516" lon="4.79223">
        <ele>297.49362</ele>
        <time>2018-02-02T07:51:29Z</time>
      </trkpt>
      <trkpt lat="45.55523" lon="4.79215">
        <ele>297.44342</ele>
        <time>2018-02-02T07:51:36Z</time>
      </trkpt>
      <trkpt lat="45.55531" lon="4.79205">
        <ele>299.367</ele>
        <time>2018-02-02T07:51:45Z</time>
      </trkpt>
      <trkpt lat="45.55538" lon="4.79195">
        <ele>301.16904</ele>
        <time>2018-02-02T07:51:53Z</time>
      </trkpt>
      <trkpt lat="45.55547" lon="4.7919">
        <ele>301.26944</ele>
        <time>2018-02-02T07:52:00Z</time>
      </trkpt>
      <trkpt lat="45.55557" lon="4.79193">
        <ele>301.46497</ele>
        <time>2018-02-02T07:52:06Z</time>
      </trkpt>
      <trkpt lat="45.55565" lon="4.79198">
        <ele>301.6129</ele>
        <time>2018-02-02T07:52:13Z</time>
      </trkpt>
      <trkpt lat="45.55576" lon="4.79204">
        <ele>300.70663</ele>
        <time>2018-02-02T07:52:21Z</time>
      </trkpt>
      <trkpt lat="45.55585" lon="4.79211">
        <ele>300.26273</ele>
        <time>2018-02-02T07:52:27Z</time>
      </trkpt>
      <trkpt lat="45.55594" lon="4.79218">
        <ele>299.4357</ele>
        <time>2018-02-02T07:52:34Z</time>
      </trkpt>
      <trkpt lat="45.55605" lon="4.79221">
        <ele>298.3603</ele>
        <time>2018-02-02T07:52:42Z</time>
      </trkpt>
      <trkpt lat="45.55614" lon="4.79225">
        <ele>295.77615</ele>
        <time>2018-02-02T07:52:49Z</time>
      </trkpt>
      <trkpt lat="45.55623" lon="4.79228">
        <ele>292.70053</ele>
        <time>2018-02-02T07:52:57Z</time>
      </trkpt>
      <trkpt lat="45.55633" lon="4.7923">
        <ele>290.26434</ele>
        <time>2018-02-02T07:53:06Z</time>
      </trkpt>
      <trkpt lat="45.55642" lon="4.79233">
        <ele>288.14526</ele>
        <time>2018-02-02T07:53:14Z</time>
      </trkpt>
      <trkpt lat="45.55653" lon="4.7924">
        <ele>285.78043</ele>
        <time>2018-02-02T07:53:23Z</time>
      </trkpt>
      <trkpt lat="45.55664" lon="4.79243">
        <ele>283.70096</ele>
        <time>2018-02-02T07:53:32Z</time>
      </trkpt>
      <trkpt lat="45.55674" lon="4.79246">
        <ele>282.41153</ele>
        <time>2018-02-02T07:53:39Z</time>
      </trkpt>
      <trkpt lat="45.55682" lon="4.79253">
        <ele>280.5408</ele>
        <time>2018-02-02T07:53:56Z</time>
      </trkpt>
      <trkpt lat="45.55692" lon="4.79252">
        <ele>279.41782</ele>
        <time>2018-02-02T07:54:05Z</time>
      </trkpt>
      <trkpt lat="45.55702" lon="4.79254">
        <ele>276.979</ele>
        <time>2018-02-02T07:54:14Z</time>
      </trkpt>
      <trkpt lat="45.5571" lon="4.79259">
        <ele>275.63144</ele>
        <time>2018-02-02T07:54:21Z</time>
      </trkpt>
      <trkpt lat="45.55721" lon="4.79263">
        <ele>274.66174</ele>
        <time>2018-02-02T07:54:28Z</time>
      </trkpt>
      <trkpt lat="45.55731" lon="4.79264">
        <ele>274.23105</ele>
        <time>2018-02-02T07:54:35Z</time>
      </trkpt>
      <trkpt lat="45.5574" lon="4.79265">
        <ele>272.48184</ele>
        <time>2018-02-02T07:54:43Z</time>
      </trkpt>
      <trkpt lat="45.55751" lon="4.79257">
        <ele>271.28754</ele>
        <time>2018-02-02T07:54:51Z</time>
      </trkpt>
      <trkpt lat="45.5576" lon="4.79247">
        <ele>270.05096</ele>
        <time>2018-02-02T07:54:59Z</time>
      </trkpt>
      <trkpt lat="45.55779" lon="4.79225">
        <ele>267.5593</ele>
        <time>2018-02-02T07:55:16Z</time>
      </trkpt>
      <trkpt lat="45.55786" lon="4.79216">
        <ele>266.60016</ele>
        <time>2018-02-02T07:55:22Z</time>
      </trkpt>
      <trkpt lat="45.55794" lon="4.79208">
        <ele>266.28308</ele>
        <time>2018-02-02T07:55:29Z</time>
      </trkpt>
      <trkpt lat="45.55801" lon="4.79199">
        <ele>265.46927</ele>
        <time>2018-02-02T07:55:35Z</time>
      </trkpt>
      <trkpt lat="45.55806" lon="4.79188">
        <ele>266.08228</ele>
        <time>2018-02-02T07:55:42Z</time>
      </trkpt>
      <trkpt lat="45.55814" lon="4.79179">
        <ele>266.32272</ele>
        <time>2018-02-02T07:55:51Z</time>
      </trkpt>
      <trkpt lat="45.55824" lon="4.79172">
        <ele>265.4402</ele>
        <time>2018-02-02T07:55:58Z</time>
      </trkpt>
      <trkpt lat="45.55833" lon="4.79171">
        <ele>264.8853</ele>
        <time>2018-02-02T07:56:05Z</time>
      </trkpt>
      <trkpt lat="45.55843" lon="4.79168">
        <ele>264.34894</ele>
        <time>2018-02-02T07:56:12Z</time>
      </trkpt>
      <trkpt lat="45.55853" lon="4.79169">
        <ele>263.50342</ele>
        <time>2018-02-02T07:56:18Z</time>
      </trkpt>
      <trkpt lat="45.55862" lon="4.79169">
        <ele>262.43594</ele>
        <time>2018-02-02T07:56:26Z</time>
      </trkpt>
      <trkpt lat="45.55869" lon="4.79161">
        <ele>262.28796</ele>
        <time>2018-02-02T07:56:35Z</time>
      </trkpt>
      <trkpt lat="45.5587" lon="4.79147">
        <ele>259.93634</ele>
        <time>2018-02-02T07:56:42Z</time>
      </trkpt>
      <trkpt lat="45.55878" lon="4.79137">
        <ele>258.91907</ele>
        <time>2018-02-02T07:56:48Z</time>
      </trkpt>
      <trkpt lat="45.55882" lon="4.79125">
        <ele>258.26114</ele>
        <time>2018-02-02T07:56:55Z</time>
      </trkpt>
      <trkpt lat="45.55882" lon="4.79111">
        <ele>257.06683</ele>
        <time>2018-02-02T07:57:01Z</time>
      </trkpt>
      <trkpt lat="45.55881" lon="4.79097">
        <ele>256.36133</ele>
        <time>2018-02-02T07:57:08Z</time>
      </trkpt>
      <trkpt lat="45.55878" lon="4.79083">
        <ele>255.76683</ele>
        <time>2018-02-02T07:57:15Z</time>
      </trkpt>
      <trkpt lat="45.55876" lon="4.79068">
        <ele>254.73898</ele>
        <time>2018-02-02T07:57:22Z</time>
      </trkpt>
      <trkpt lat="45.55875" lon="4.79055">
        <ele>253.35443</ele>
        <time>2018-02-02T07:57:28Z</time>
      </trkpt>
      <trkpt lat="45.55873" lon="4.79042">
        <ele>253.37556</ele>
        <time>2018-02-02T07:57:34Z</time>
      </trkpt>
      <trkpt lat="45.55871" lon="4.79029">
        <ele>253.06642</ele>
        <time>2018-02-02T07:57:41Z</time>
      </trkpt>
      <trkpt lat="45.55868" lon="4.79016">
        <ele>253.39671</ele>
        <time>2018-02-02T07:57:48Z</time>
      </trkpt>
      <trkpt lat="45.55871" lon="4.79002">
        <ele>254.23167</ele>
        <time>2018-02-02T07:57:55Z</time>
      </trkpt>
      <trkpt lat="45.5587" lon="4.78989">
        <ele>256.30322</ele>
        <time>2018-02-02T07:58:04Z</time>
      </trkpt>
      <trkpt lat="45.5587" lon="4.78976">
        <ele>258.14487</ele>
        <time>2018-02-02T07:58:13Z</time>
      </trkpt>
      <trkpt lat="45.55867" lon="4.78963">
        <ele>260.3274</ele>
        <time>2018-02-02T07:58:24Z</time>
      </trkpt>
      <trkpt lat="45.55861" lon="4.78952">
        <ele>262.21133</ele>
        <time>2018-02-02T07:58:34Z</time>
      </trkpt>
      <trkpt lat="45.55857" lon="4.78941">
        <ele>263.74387</ele>
        <time>2018-02-02T07:58:44Z</time>
      </trkpt>
      <trkpt lat="45.5585" lon="4.78931">
        <ele>264.3595</ele>
        <time>2018-02-02T07:58:50Z</time>
      </trkpt>
      <trkpt lat="45.55847" lon="4.78918">
        <ele>265.49832</ele>
        <time>2018-02-02T07:58:55Z</time>
      </trkpt>
      <trkpt lat="45.5584" lon="4.7891">
        <ele>266.4971</ele>
        <time>2018-02-02T07:59:03Z</time>
      </trkpt>
      <trkpt lat="45.55839" lon="4.78897">
        <ele>267.19995</ele>
        <time>2018-02-02T07:59:10Z</time>
      </trkpt>
      <trkpt lat="45.55833" lon="4.78886">
        <ele>267.0969</ele>
        <time>2018-02-02T07:59:17Z</time>
      </trkpt>
      <trkpt lat="45.55825" lon="4.78873">
        <ele>266.65298</ele>
        <time>2018-02-02T07:59:24Z</time>
      </trkpt>
      <trkpt lat="45.5582" lon="4.78862">
        <ele>266.20645</ele>
        <time>2018-02-02T07:59:28Z</time>
      </trkpt>
      <trkpt lat="45.55814" lon="4.7885">
        <ele>265.10727</ele>
        <time>2018-02-02T07:59:33Z</time>
      </trkpt>
      <trkpt lat="45.55808" lon="4.78839">
        <ele>264.2908</ele>
        <time>2018-02-02T07:59:39Z</time>
      </trkpt>
      <trkpt lat="45.55802" lon="4.78828">
        <ele>263.78085</ele>
        <time>2018-02-02T07:59:47Z</time>
      </trkpt>
      <trkpt lat="45.55796" lon="4.78817">
        <ele>263.55096</ele>
        <time>2018-02-02T07:59:55Z</time>
      </trkpt>
      <trkpt lat="45.55788" lon="4.78808">
        <ele>263.33694</ele>
        <time>2018-02-02T08:00:02Z</time>
      </trkpt>
      <trkpt lat="45.5578" lon="4.78801">
        <ele>263.31845</ele>
        <time>2018-02-02T08:00:06Z</time>
      </trkpt>
      <trkpt lat="45.55777" lon="4.78787">
        <ele>263.8918</ele>
        <time>2018-02-02T08:00:13Z</time>
      </trkpt>
      <trkpt lat="45.55777" lon="4.78774">
        <ele>264.954</ele>
        <time>2018-02-02T08:00:21Z</time>
      </trkpt>
      <trkpt lat="45.55774" lon="4.78761">
        <ele>265.87088</ele>
        <time>2018-02-02T08:00:29Z</time>
      </trkpt>
      <trkpt lat="45.55781" lon="4.78751">
        <ele>266.13248</ele>
        <time>2018-02-02T08:00:34Z</time>
      </trkpt>
      <trkpt lat="45.55779" lon="4.78737">
        <ele>265.69122</ele>
        <time>2018-02-02T08:00:42Z</time>
      </trkpt>
      <trkpt lat="45.5578" lon="4.78724">
        <ele>264.58673</ele>
        <time>2018-02-02T08:00:49Z</time>
      </trkpt>
      <trkpt lat="45.55777" lon="4.7871">
        <ele>263.56683</ele>
        <time>2018-02-02T08:00:56Z</time>
      </trkpt>
      <trkpt lat="45.55777" lon="4.78697">
        <ele>261.96033</ele>
        <time>2018-02-02T08:01:02Z</time>
      </trkpt>
      <trkpt lat="45.55774" lon="4.78684">
        <ele>261.11478</ele>
        <time>2018-02-02T08:01:08Z</time>
      </trkpt>
      <trkpt lat="45.55769" lon="4.78672">
        <ele>259.78574</ele>
        <time>2018-02-02T08:01:13Z</time>
      </trkpt>
      <trkpt lat="45.55765" lon="4.7866">
        <ele>258.13165</ele>
        <time>2018-02-02T08:01:20Z</time>
      </trkpt>
      <trkpt lat="45.55759" lon="4.78648">
        <ele>256.92944</ele>
        <time>2018-02-02T08:01:27Z</time>
      </trkpt>
      <trkpt lat="45.55756" lon="4.78634">
        <ele>255.44975</ele>
        <time>2018-02-02T08:01:35Z</time>
      </trkpt>
      <trkpt lat="45.55748" lon="4.78623">
        <ele>254.702</ele>
        <time>2018-02-02T08:01:42Z</time>
      </trkpt>
      <trkpt lat="45.5574" lon="4.78617">
        <ele>253.98859</ele>
        <time>2018-02-02T08:01:48Z</time>
      </trkpt>
      <trkpt lat="45.55731" lon="4.78612">
        <ele>253.6398</ele>
        <time>2018-02-02T08:01:54Z</time>
      </trkpt>
      <trkpt lat="45.55722" lon="4.78607">
        <ele>253.58167</ele>
        <time>2018-02-02T08:02:00Z</time>
      </trkpt>
      <trkpt lat="45.55713" lon="4.786">
        <ele>252.9211</ele>
        <time>2018-02-02T08:02:07Z</time>
      </trkpt>
      <trkpt lat="45.55706" lon="4.78591">
        <ele>255.58452</ele>
        <time>2018-02-02T08:02:17Z</time>
      </trkpt>
      <trkpt lat="45.55705" lon="4.78579">
        <ele>257.31522</ele>
        <time>2018-02-02T08:02:30Z</time>
      </trkpt>
      <trkpt lat="45.55704" lon="4.78566">
        <ele>258.26376</ele>
        <time>2018-02-02T08:02:37Z</time>
      </trkpt>
      <trkpt lat="45.55706" lon="4.78553">
        <ele>259.6404</ele>
        <time>2018-02-02T08:02:46Z</time>
      </trkpt>
      <trkpt lat="45.55702" lon="4.78541">
        <ele>261.56662</ele>
        <time>2018-02-02T08:02:53Z</time>
      </trkpt>
      <trkpt lat="45.55704" lon="4.78528">
        <ele>262.99872</ele>
        <time>2018-02-02T08:03:02Z</time>
      </trkpt>
      <trkpt lat="45.55702" lon="4.78515">
        <ele>264.21155</ele>
        <time>2018-02-02T08:03:10Z</time>
      </trkpt>
      <trkpt lat="45.55701" lon="4.78502">
        <ele>263.66724</ele>
        <time>2018-02-02T08:03:17Z</time>
      </trkpt>
      <trkpt lat="45.557" lon="4.78488">
        <ele>263.8469</ele>
        <time>2018-02-02T08:03:23Z</time>
      </trkpt>
      <trkpt lat="45.55693" lon="4.78475">
        <ele>263.20483</ele>
        <time>2018-02-02T08:03:29Z</time>
      </trkpt>
      <trkpt lat="45.55687" lon="4.78464">
        <ele>263.41885</ele>
        <time>2018-02-02T08:03:35Z</time>
      </trkpt>
      <trkpt lat="45.5568" lon="4.78452">
        <ele>263.9473</ele>
        <time>2018-02-02T08:03:42Z</time>
      </trkpt>
      <trkpt lat="45.55674" lon="4.7844">
        <ele>264.0028</ele>
        <time>2018-02-02T08:03:49Z</time>
      </trkpt>
      <trkpt lat="45.55669" lon="4.78428">
        <ele>264.053</ele>
        <time>2018-02-02T08:03:55Z</time>
      </trkpt>
      <trkpt lat="45.55664" lon="4.78417">
        <ele>264.2908</ele>
        <time>2018-02-02T08:04:02Z</time>
      </trkpt>
      <trkpt lat="45.55658" lon="4.78405">
        <ele>263.98694</ele>
        <time>2018-02-02T08:04:09Z</time>
      </trkpt>
      <trkpt lat="45.55655" lon="4.78391">
        <ele>264.32516</ele>
        <time>2018-02-02T08:04:15Z</time>
      </trkpt>
      <trkpt lat="45.55652" lon="4.78378">
        <ele>264.954</ele>
        <time>2018-02-02T08:04:21Z</time>
      </trkpt>
      <trkpt lat="45.5565" lon="4.78364">
        <ele>265.604</ele>
        <time>2018-02-02T08:04:28Z</time>
      </trkpt>
      <trkpt lat="45.55646" lon="4.78348">
        <ele>265.86826</ele>
        <time>2018-02-02T08:04:36Z</time>
      </trkpt>
      <trkpt lat="45.55642" lon="4.78334">
        <ele>266.24344</ele>
        <time>2018-02-02T08:04:45Z</time>
      </trkpt>
      <trkpt lat="45.55638" lon="4.78322">
        <ele>267.53024</ele>
        <time>2018-02-02T08:04:51Z</time>
      </trkpt>
      <trkpt lat="45.55631" lon="4.78311">
        <ele>268.66376</ele>
        <time>2018-02-02T08:04:59Z</time>
      </trkpt>
      <trkpt lat="45.55627" lon="4.78296">
        <ele>269.94263</ele>
        <time>2018-02-02T08:05:10Z</time>
      </trkpt>
      <trkpt lat="45.55623" lon="4.78282">
        <ele>270.4288</ele>
        <time>2018-02-02T08:05:18Z</time>
      </trkpt>
      <trkpt lat="45.55619" lon="4.7827">
        <ele>271.2109</ele>
        <time>2018-02-02T08:05:25Z</time>
      </trkpt>
      <trkpt lat="45.55614" lon="4.78258">
        <ele>271.3853</ele>
        <time>2018-02-02T08:05:32Z</time>
      </trkpt>
      <trkpt lat="45.55611" lon="4.78244">
        <ele>271.64426</ele>
        <time>2018-02-02T08:05:40Z</time>
      </trkpt>
      <trkpt lat="45.55605" lon="4.78232">
        <ele>272.0036</ele>
        <time>2018-02-02T08:05:48Z</time>
      </trkpt>
      <trkpt lat="45.55603" lon="4.78219">
        <ele>272.37354</ele>
        <time>2018-02-02T08:05:56Z</time>
      </trkpt>
      <trkpt lat="45.55597" lon="4.78205">
        <ele>272.57962</ele>
        <time>2018-02-02T08:06:03Z</time>
      </trkpt>
      <trkpt lat="45.55595" lon="4.78191">
        <ele>271.816</ele>
        <time>2018-02-02T08:06:10Z</time>
      </trkpt>
      <trkpt lat="45.5559" lon="4.7818">
        <ele>271.99832</ele>
        <time>2018-02-02T08:06:16Z</time>
      </trkpt>
      <trkpt lat="45.55584" lon="4.78167">
        <ele>271.43286</ele>
        <time>2018-02-02T08:06:23Z</time>
      </trkpt>
      <trkpt lat="45.55579" lon="4.78156">
        <ele>271.9719</ele>
        <time>2018-02-02T08:06:28Z</time>
      </trkpt>
      <trkpt lat="45.55574" lon="4.78145">
        <ele>271.816</ele>
        <time>2018-02-02T08:06:34Z</time>
      </trkpt>
      <trkpt lat="45.55568" lon="4.78134">
        <ele>271.07617</ele>
        <time>2018-02-02T08:06:42Z</time>
      </trkpt>
      <trkpt lat="45.55561" lon="4.78124">
        <ele>270.74588</ele>
        <time>2018-02-02T08:06:48Z</time>
      </trkpt>
      <trkpt lat="45.55553" lon="4.78117">
        <ele>271.15015</ele>
        <time>2018-02-02T08:06:54Z</time>
      </trkpt>
      <trkpt lat="45.55547" lon="4.78106">
        <ele>269.9902</ele>
        <time>2018-02-02T08:07:05Z</time>
      </trkpt>
      <trkpt lat="45.55543" lon="4.78091">
        <ele>269.83167</ele>
        <time>2018-02-02T08:07:15Z</time>
      </trkpt>
      <trkpt lat="45.55537" lon="4.7808">
        <ele>268.38632</ele>
        <time>2018-02-02T08:07:22Z</time>
      </trkpt>
      <trkpt lat="45.55539" lon="4.78065">
        <ele>266.75604</ele>
        <time>2018-02-02T08:07:32Z</time>
      </trkpt>
      <trkpt lat="45.55535" lon="4.7805">
        <ele>266.03998</ele>
        <time>2018-02-02T08:07:40Z</time>
      </trkpt>
      <trkpt lat="45.55528" lon="4.78038">
        <ele>265.12048</ele>
        <time>2018-02-02T08:07:47Z</time>
      </trkpt>
      <trkpt lat="45.55523" lon="4.78025">
        <ele>264.75848</ele>
        <time>2018-02-02T08:07:54Z</time>
      </trkpt>
      <trkpt lat="45.55515" lon="4.78012">
        <ele>263.96582</ele>
        <time>2018-02-02T08:08:01Z</time>
      </trkpt>
      <trkpt lat="45.55509" lon="4.78001">
        <ele>262.75565</ele>
        <time>2018-02-02T08:08:07Z</time>
      </trkpt>
      <trkpt lat="45.55502" lon="4.77989">
        <ele>261.52435</ele>
        <time>2018-02-02T08:08:14Z</time>
      </trkpt>
      <trkpt lat="45.55499" lon="4.77976">
        <ele>260.36438</ele>
        <time>2018-02-02T08:08:20Z</time>
      </trkpt>
      <trkpt lat="45.55494" lon="4.77964">
        <ele>258.9402</ele>
        <time>2018-02-02T08:08:28Z</time>
      </trkpt>
      <trkpt lat="45.55491" lon="4.7795">
        <ele>257.83044</ele>
        <time>2018-02-02T08:08:36Z</time>
      </trkpt>
      <trkpt lat="45.55483" lon="4.7794">
        <ele>257.15137</ele>
        <time>2018-02-02T08:08:44Z</time>
      </trkpt>
      <trkpt lat="45.55476" lon="4.7793">
        <ele>255.99934</ele>
        <time>2018-02-02T08:08:52Z</time>
      </trkpt>
      <trkpt lat="45.55468" lon="4.77921">
        <ele>255.2093</ele>
        <time>2018-02-02T08:08:59Z</time>
      </trkpt>
      <trkpt lat="45.5546" lon="4.77911">
        <ele>254.92395</ele>
        <time>2018-02-02T08:09:08Z</time>
      </trkpt>
      <trkpt lat="45.5546" lon="4.77898">
        <ele>255.45505</ele>
        <time>2018-02-02T08:09:15Z</time>
      </trkpt>
      <trkpt lat="45.55452" lon="4.77888">
        <ele>254.40077</ele>
        <time>2018-02-02T08:09:28Z</time>
      </trkpt>
      <trkpt lat="45.5545" lon="4.77875">
        <ele>255.15646</ele>
        <time>2018-02-02T08:09:37Z</time>
      </trkpt>
      <trkpt lat="45.55453" lon="4.77861">
        <ele>253.42578</ele>
        <time>2018-02-02T08:09:46Z</time>
      </trkpt>
      <trkpt lat="45.55455" lon="4.77846">
        <ele>251.2274</ele>
        <time>2018-02-02T08:09:54Z</time>
      </trkpt>
      <trkpt lat="45.55457" lon="4.77833">
        <ele>249.28268</ele>
        <time>2018-02-02T08:10:02Z</time>
      </trkpt>
      <trkpt lat="45.55455" lon="4.7782">
        <ele>248.5587</ele>
        <time>2018-02-02T08:10:15Z</time>
      </trkpt>
      <trkpt lat="45.55448" lon="4.77811">
        <ele>247.0896</ele>
        <time>2018-02-02T08:10:29Z</time>
      </trkpt>
      <trkpt lat="45.55451" lon="4.77797">
        <ele>249.81908</ele>
        <time>2018-02-02T08:10:47Z</time>
      </trkpt>
      <trkpt lat="45.55445" lon="4.77787">
        <ele>249.75037</ele>
        <time>2018-02-02T08:11:03Z</time>
      </trkpt>
      <trkpt lat="45.55439" lon="4.77777">
        <ele>250.90768</ele>
        <time>2018-02-02T08:11:12Z</time>
      </trkpt>
      <trkpt lat="45.55443" lon="4.77765">
        <ele>250.77557</ele>
        <time>2018-02-02T08:11:26Z</time>
      </trkpt>
      <trkpt lat="45.55446" lon="4.77753">
        <ele>253.33594</ele>
        <time>2018-02-02T08:11:41Z</time>
      </trkpt>
      <trkpt lat="45.55441" lon="4.77742">
        <ele>254.47212</ele>
        <time>2018-02-02T08:11:54Z</time>
      </trkpt>
      <trkpt lat="45.55438" lon="4.77729">
        <ele>254.22374</ele>
        <time>2018-02-02T08:12:02Z</time>
      </trkpt>
      <trkpt lat="45.55433" lon="4.77715">
        <ele>254.34793</ele>
        <time>2018-02-02T08:12:07Z</time>
      </trkpt>
      <trkpt lat="45.55425" lon="4.77702">
        <ele>255.10626</ele>
        <time>2018-02-02T08:12:25Z</time>
      </trkpt>
      <trkpt lat="45.55419" lon="4.77693">
        <ele>255.35463</ele>
        <time>2018-02-02T08:12:33Z</time>
      </trkpt>
      <trkpt lat="45.55413" lon="4.77682">
        <ele>255.66907</ele>
        <time>2018-02-02T08:12:46Z</time>
      </trkpt>
      <trkpt lat="45.55406" lon="4.77674">
        <ele>255.73248</ele>
        <time>2018-02-02T08:12:52Z</time>
      </trkpt>
      <trkpt lat="45.55402" lon="4.77662">
        <ele>256.16846</ele>
        <time>2018-02-02T08:12:59Z</time>
      </trkpt>
      <trkpt lat="45.554" lon="4.77648">
        <ele>256.83694</ele>
        <time>2018-02-02T08:13:06Z</time>
      </trkpt>
      <trkpt lat="45.55394" lon="4.77637">
        <ele>257.1276</ele>
        <time>2018-02-02T08:13:11Z</time>
      </trkpt>
      <trkpt lat="45.55388" lon="4.77627">
        <ele>257.69305</ele>
        <time>2018-02-02T08:13:18Z</time>
      </trkpt>
      <trkpt lat="45.55386" lon="4.77613">
        <ele>258.90057</ele>
        <time>2018-02-02T08:13:28Z</time>
      </trkpt>
      <trkpt lat="45.55395" lon="4.7761">
        <ele>260.38815</ele>
        <time>2018-02-02T08:13:38Z</time>
      </trkpt>
      <trkpt lat="45.55392" lon="4.77597">
        <ele>261.94183</ele>
        <time>2018-02-02T08:13:45Z</time>
      </trkpt>
      <trkpt lat="45.55399" lon="4.77588">
        <ele>263.4585</ele>
        <time>2018-02-02T08:13:52Z</time>
      </trkpt>
      <trkpt lat="45.55409" lon="4.77589">
        <ele>264.52597</ele>
        <time>2018-02-02T08:13:58Z</time>
      </trkpt>
      <trkpt lat="45.55416" lon="4.77578">
        <ele>267.00705</ele>
        <time>2018-02-02T08:14:09Z</time>
      </trkpt>
      <trkpt lat="45.55425" lon="4.77578">
        <ele>268.91742</ele>
        <time>2018-02-02T08:14:17Z</time>
      </trkpt>
      <trkpt lat="45.55434" lon="4.77574">
        <ele>270.5609</ele>
        <time>2018-02-02T08:14:27Z</time>
      </trkpt>
      <trkpt lat="45.55444" lon="4.77574">
        <ele>272.58228</ele>
        <time>2018-02-02T08:14:37Z</time>
      </trkpt>
      <trkpt lat="45.55428" lon="4.77566">
        <ele>278.52737</ele>
        <time>2018-02-02T08:15:16Z</time>
      </trkpt>
      <trkpt lat="45.55421" lon="4.77556">
        <ele>280.56458</ele>
        <time>2018-02-02T08:15:24Z</time>
      </trkpt>
      <trkpt lat="45.55415" lon="4.77546">
        <ele>281.7932</ele>
        <time>2018-02-02T08:15:35Z</time>
      </trkpt>
      <trkpt lat="45.5541" lon="4.77535">
        <ele>284.43286</ele>
        <time>2018-02-02T08:15:52Z</time>
      </trkpt>
      <trkpt lat="45.55403" lon="4.77517">
        <ele>287.75684</ele>
        <time>2018-02-02T08:16:05Z</time>
      </trkpt>
      <trkpt lat="45.5541" lon="4.77509">
        <ele>287.43713</ele>
        <time>2018-02-02T08:16:15Z</time>
      </trkpt>
      <trkpt lat="45.5542" lon="4.77504">
        <ele>288.12677</ele>
        <time>2018-02-02T08:16:30Z</time>
      </trkpt>
      <trkpt lat="45.55428" lon="4.77509">
        <ele>289.5166</ele>
        <time>2018-02-02T08:16:41Z</time>
      </trkpt>
      <trkpt lat="45.55438" lon="4.77518">
        <ele>291.28955</ele>
        <time>2018-02-02T08:16:48Z</time>
      </trkpt>
      <trkpt lat="45.55447" lon="4.77518">
        <ele>293.4298</ele>
        <time>2018-02-02T08:16:55Z</time>
      </trkpt>
      <trkpt lat="45.55457" lon="4.77519">
        <ele>292.87756</ele>
        <time>2018-02-02T08:17:04Z</time>
      </trkpt>
      <trkpt lat="45.55468" lon="4.77517">
        <ele>293.68082</ele>
        <time>2018-02-02T08:17:15Z</time>
      </trkpt>
      <trkpt lat="45.55478" lon="4.77513">
        <ele>295.32166</ele>
        <time>2018-02-02T08:17:28Z</time>
      </trkpt>
      <trkpt lat="45.55487" lon="4.77513">
        <ele>296.0562</ele>
        <time>2018-02-02T08:17:37Z</time>
      </trkpt>
      <trkpt lat="45.55497" lon="4.7751">
        <ele>296.85684</ele>
        <time>2018-02-02T08:17:45Z</time>
      </trkpt>
      <trkpt lat="45.55508" lon="4.77504">
        <ele>299.17145</ele>
        <time>2018-02-02T08:18:00Z</time>
      </trkpt>
      <trkpt lat="45.55517" lon="4.77504">
        <ele>301.17432</ele>
        <time>2018-02-02T08:18:08Z</time>
      </trkpt>
      <trkpt lat="45.55529" lon="4.77502">
        <ele>303.63428</ele>
        <time>2018-02-02T08:18:20Z</time>
      </trkpt>
      <trkpt lat="45.55538" lon="4.77502">
        <ele>307.1168</ele>
        <time>2018-02-02T08:18:38Z</time>
      </trkpt>
      <trkpt lat="45.55546" lon="4.77493">
        <ele>309.17776</ele>
        <time>2018-02-02T08:18:50Z</time>
      </trkpt>
      <trkpt lat="45.55547" lon="4.77479">
        <ele>311.77246</ele>
        <time>2018-02-02T08:19:01Z</time>
      </trkpt>
      <trkpt lat="45.55553" lon="4.77466">
        <ele>314.8507</ele>
        <time>2018-02-02T08:19:18Z</time>
      </trkpt>
      <trkpt lat="45.55542" lon="4.77463">
        <ele>317.84177</ele>
        <time>2018-02-02T08:19:39Z</time>
      </trkpt>
      <trkpt lat="45.55533" lon="4.77461">
        <ele>319.68872</ele>
        <time>2018-02-02T08:19:46Z</time>
      </trkpt>
      <trkpt lat="45.55525" lon="4.77453">
        <ele>323.85822</ele>
        <time>2018-02-02T08:20:09Z</time>
      </trkpt>
      <trkpt lat="45.55517" lon="4.77447">
        <ele>326.85455</ele>
        <time>2018-02-02T08:20:24Z</time>
      </trkpt>
      <trkpt lat="45.55508" lon="4.7744">
        <ele>327.782</ele>
        <time>2018-02-02T08:20:31Z</time>
      </trkpt>
      <trkpt lat="45.55498" lon="4.77433">
        <ele>328.39236</ele>
        <time>2018-02-02T08:20:37Z</time>
      </trkpt>
      <trkpt lat="45.5549" lon="4.77427">
        <ele>329.3198</ele>
        <time>2018-02-02T08:20:41Z</time>
      </trkpt>
      <trkpt lat="45.55482" lon="4.77417">
        <ele>330.9184</ele>
        <time>2018-02-02T08:20:51Z</time>
      </trkpt>
      <trkpt lat="45.55474" lon="4.77408">
        <ele>331.93567</ele>
        <time>2018-02-02T08:20:58Z</time>
      </trkpt>
      <trkpt lat="45.55467" lon="4.774">
        <ele>334.64136</ele>
        <time>2018-02-02T08:21:15Z</time>
      </trkpt>
      <trkpt lat="45.55461" lon="4.77384">
        <ele>336.12103</ele>
        <time>2018-02-02T08:21:27Z</time>
      </trkpt>
      <trkpt lat="45.55455" lon="4.77371">
        <ele>337.1198</ele>
        <time>2018-02-02T08:21:32Z</time>
      </trkpt>
      <trkpt lat="45.55447" lon="4.77364">
        <ele>338.71045</ele>
        <time>2018-02-02T08:21:40Z</time>
      </trkpt>
      <trkpt lat="45.55439" lon="4.77354">
        <ele>340.43585</ele>
        <time>2018-02-02T08:21:49Z</time>
      </trkpt>
      <trkpt lat="45.55438" lon="4.7734">
        <ele>341.9314</ele>
        <time>2018-02-02T08:21:57Z</time>
      </trkpt>
      <trkpt lat="45.55437" lon="4.77325">
        <ele>344.38342</ele>
        <time>2018-02-02T08:22:09Z</time>
      </trkpt>
      <trkpt lat="45.55437" lon="4.77312">
        <ele>346.30698</ele>
        <time>2018-02-02T08:22:17Z</time>
      </trkpt>
      <trkpt lat="45.55437" lon="4.77296">
        <ele>348.5265</ele>
        <time>2018-02-02T08:22:28Z</time>
      </trkpt>
      <trkpt lat="45.55435" lon="4.77283">
        <ele>350.2968</ele>
        <time>2018-02-02T08:22:40Z</time>
      </trkpt>
      <trkpt lat="45.55434" lon="4.77269">
        <ele>352.2574</ele>
        <time>2018-02-02T08:22:53Z</time>
      </trkpt>
      <trkpt lat="45.55431" lon="4.77257">
        <ele>354.57468</ele>
        <time>2018-02-02T08:23:05Z</time>
      </trkpt>
      <trkpt lat="45.55431" lon="4.77244">
        <ele>356.01733</ele>
        <time>2018-02-02T08:23:13Z</time>
      </trkpt>
      <trkpt lat="45.55436" lon="4.7723">
        <ele>357.9779</ele>
        <time>2018-02-02T08:23:25Z</time>
      </trkpt>
      <trkpt lat="45.5544" lon="4.77218">
        <ele>359.27792</ele>
        <time>2018-02-02T08:23:33Z</time>
      </trkpt>
      <trkpt lat="45.55447" lon="4.77207">
        <ele>360.93198</ele>
        <time>2018-02-02T08:23:41Z</time>
      </trkpt>
      <trkpt lat="45.55454" lon="4.77198">
        <ele>361.94397</ele>
        <time>2018-02-02T08:23:48Z</time>
      </trkpt>
      <trkpt lat="45.55462" lon="4.7719">
        <ele>363.98117</ele>
        <time>2018-02-02T08:23:59Z</time>
      </trkpt>
      <trkpt lat="45.55463" lon="4.7719">
        <ele>364.02606</ele>
        <time>2018-02-02T08:24:00Z</time>
      </trkpt>
      <trkpt lat="45.55464" lon="4.77189">
        <ele>364.1476</ele>
        <time>2018-02-02T08:24:02Z</time>
      </trkpt>
      <trkpt lat="45.55464" lon="4.77189">
        <ele>364.1476</ele>
        <time>2018-02-02T08:24:02Z</time>
      </trkpt>
      <trkpt lat="45.55473" lon="4.77183">
        <ele>365.41855</ele>
        <time>2018-02-02T08:24:09Z</time>
      </trkpt>
      <trkpt lat="45.55473" lon="4.77183">
        <ele>365.41855</ele>
        <time>2018-02-02T08:24:09Z</time>
      </trkpt>
      <trkpt lat="45.55483" lon="4.77181">
        <ele>366.87973</ele>
        <time>2018-02-02T08:24:20Z</time>
      </trkpt>
      <trkpt lat="45.55485" lon="4.77181">
        <ele>367.0462</ele>
        <time>2018-02-02T08:24:22Z</time>
      </trkpt>
      <trkpt lat="45.55485" lon="4.7718">
        <ele>366.97485</ele>
        <time>2018-02-02T08:24:23Z</time>
      </trkpt>
      <trkpt lat="45.55492" lon="4.77171">
        <ele>368.0291</ele>
        <time>2018-02-02T08:24:31Z</time>
      </trkpt>
      <trkpt lat="45.55493" lon="4.7717">
        <ele>368.0159</ele>
        <time>2018-02-02T08:24:33Z</time>
      </trkpt>
      <trkpt lat="45.55494" lon="4.77169">
        <ele>368.00534</ele>
        <time>2018-02-02T08:24:34Z</time>
      </trkpt>
      <trkpt lat="45.55499" lon="4.77159">
        <ele>369.88135</ele>
        <time>2018-02-02T08:24:44Z</time>
      </trkpt>
      <trkpt lat="45.555" lon="4.77157">
        <ele>369.633</ele>
        <time>2018-02-02T08:24:46Z</time>
      </trkpt>
      <trkpt lat="45.555" lon="4.77157">
        <ele>369.633</ele>
        <time>2018-02-02T08:24:46Z</time>
      </trkpt>
      <trkpt lat="45.55507" lon="4.77147">
        <ele>371.3399</ele>
        <time>2018-02-02T08:24:55Z</time>
      </trkpt>
      <trkpt lat="45.55508" lon="4.77146">
        <ele>371.46143</ele>
        <time>2018-02-02T08:24:56Z</time>
      </trkpt>
      <trkpt lat="45.55508" lon="4.77144">
        <ele>371.51956</ele>
        <time>2018-02-02T08:24:57Z</time>
      </trkpt>
      <trkpt lat="45.55509" lon="4.77144">
        <ele>371.47992</ele>
        <time>2018-02-02T08:24:58Z</time>
      </trkpt>
      <trkpt lat="45.55516" lon="4.77134">
        <ele>372.81693</ele>
        <time>2018-02-02T08:25:08Z</time>
      </trkpt>
      <trkpt lat="45.55517" lon="4.77134">
        <ele>372.79315</ele>
        <time>2018-02-02T08:25:09Z</time>
      </trkpt>
      <trkpt lat="45.55526" lon="4.77124">
        <ele>374.28073</ele>
        <time>2018-02-02T08:25:20Z</time>
      </trkpt>
      <trkpt lat="45.55526" lon="4.77124">
        <ele>374.28073</ele>
        <time>2018-02-02T08:25:20Z</time>
      </trkpt>
      <trkpt lat="45.55535" lon="4.77116">
        <ele>374.19882</ele>
        <time>2018-02-02T08:25:29Z</time>
      </trkpt>
      <trkpt lat="45.55536" lon="4.77114">
        <ele>373.95575</ele>
        <time>2018-02-02T08:25:30Z</time>
      </trkpt>
      <trkpt lat="45.55545" lon="4.77106">
        <ele>374.29395</ele>
        <time>2018-02-02T08:25:39Z</time>
      </trkpt>
      <trkpt lat="45.55554" lon="4.77102">
        <ele>374.61896</ele>
        <time>2018-02-02T08:25:49Z</time>
      </trkpt>
      <trkpt lat="45.55555" lon="4.77102">
        <ele>374.35474</ele>
        <time>2018-02-02T08:25:50Z</time>
      </trkpt>
      <trkpt lat="45.55563" lon="4.77094">
        <ele>374.21732</ele>
        <time>2018-02-02T08:26:02Z</time>
      </trkpt>
      <trkpt lat="45.55565" lon="4.77092">
        <ele>374.33887</ele>
        <time>2018-02-02T08:26:03Z</time>
      </trkpt>
      <trkpt lat="45.55574" lon="4.77085">
        <ele>373.66772</ele>
        <time>2018-02-02T08:26:11Z</time>
      </trkpt>
      <trkpt lat="45.55581" lon="4.77077">
        <ele>373.29254</ele>
        <time>2018-02-02T08:26:18Z</time>
      </trkpt>
      <trkpt lat="45.55589" lon="4.7707">
        <ele>373.48013</ele>
        <time>2018-02-02T08:26:25Z</time>
      </trkpt>
      <trkpt lat="45.55597" lon="4.77063">
        <ele>373.2846</ele>
        <time>2018-02-02T08:26:32Z</time>
      </trkpt>
      <trkpt lat="45.55606" lon="4.77058">
        <ele>373.2027</ele>
        <time>2018-02-02T08:26:39Z</time>
      </trkpt>
      <trkpt lat="45.55615" lon="4.77053">
        <ele>373.79984</ele>
        <time>2018-02-02T08:26:45Z</time>
      </trkpt>
      <trkpt lat="45.55623" lon="4.77049">
        <ele>374.0218</ele>
        <time>2018-02-02T08:26:50Z</time>
      </trkpt>
      <trkpt lat="45.55632" lon="4.77045">
        <ele>374.26224</ele>
        <time>2018-02-02T08:26:58Z</time>
      </trkpt>
      <trkpt lat="45.55642" lon="4.77041">
        <ele>374.7669</ele>
        <time>2018-02-02T08:27:04Z</time>
      </trkpt>
      <trkpt lat="45.55643" lon="4.7704">
        <ele>375.03906</ele>
        <time>2018-02-02T08:27:05Z</time>
      </trkpt>
      <trkpt lat="45.55644" lon="4.7704">
        <ele>375.2663</ele>
        <time>2018-02-02T08:27:06Z</time>
      </trkpt>
      <trkpt lat="45.55645" lon="4.7704">
        <ele>375.34293</ele>
        <time>2018-02-02T08:27:07Z</time>
      </trkpt>
      <trkpt lat="45.55647" lon="4.77039">
        <ele>375.36407</ele>
        <time>2018-02-02T08:27:08Z</time>
      </trkpt>
      <trkpt lat="45.55648" lon="4.7704">
        <ele>375.36935</ele>
        <time>2018-02-02T08:27:09Z</time>
      </trkpt>
      <trkpt lat="45.55648" lon="4.7704">
        <ele>375.59396</ele>
        <time>2018-02-02T08:27:10Z</time>
      </trkpt>
      <trkpt lat="45.55649" lon="4.7704">
        <ele>375.00473</ele>
        <time>2018-02-02T08:27:12Z</time>
      </trkpt>
      <trkpt lat="45.55658" lon="4.77039">
        <ele>375.41162</ele>
        <time>2018-02-02T08:27:19Z</time>
      </trkpt>
      <trkpt lat="45.55668" lon="4.77038">
        <ele>375.55695</ele>
        <time>2018-02-02T08:27:26Z</time>
      </trkpt>
      <trkpt lat="45.5567" lon="4.77038">
        <ele>375.71548</ele>
        <time>2018-02-02T08:27:27Z</time>
      </trkpt>
      <trkpt lat="45.5568" lon="4.77039">
        <ele>376.15677</ele>
        <time>2018-02-02T08:27:33Z</time>
      </trkpt>
      <trkpt lat="45.55681" lon="4.7704">
        <ele>376.10654</ele>
        <time>2018-02-02T08:27:34Z</time>
      </trkpt>
      <trkpt lat="45.5569" lon="4.77044">
        <ele>376.8226</ele>
        <time>2018-02-02T08:27:41Z</time>
      </trkpt>
      <trkpt lat="45.55691" lon="4.77045">
        <ele>376.74597</ele>
        <time>2018-02-02T08:27:42Z</time>
      </trkpt>
      <trkpt lat="45.55699" lon="4.77051">
        <ele>377.25595</ele>
        <time>2018-02-02T08:27:49Z</time>
      </trkpt>
      <trkpt lat="45.557" lon="4.77052">
        <ele>377.13702</ele>
        <time>2018-02-02T08:27:50Z</time>
      </trkpt>
      <trkpt lat="45.55709" lon="4.77058">
        <ele>378.28906</ele>
        <time>2018-02-02T08:27:57Z</time>
      </trkpt>
      <trkpt lat="45.5571" lon="4.7706">
        <ele>378.1966</ele>
        <time>2018-02-02T08:27:58Z</time>
      </trkpt>
      <trkpt lat="45.55718" lon="4.77067">
        <ele>378.75146</ele>
        <time>2018-02-02T08:28:06Z</time>
      </trkpt>
      <trkpt lat="45.5572" lon="4.77068">
        <ele>378.76733</ele>
        <time>2018-02-02T08:28:07Z</time>
      </trkpt>
      <trkpt lat="45.55728" lon="4.77073">
        <ele>379.11874</ele>
        <time>2018-02-02T08:28:14Z</time>
      </trkpt>
      <trkpt lat="45.5573" lon="4.77075">
        <ele>378.79904</ele>
        <time>2018-02-02T08:28:15Z</time>
      </trkpt>
      <trkpt lat="45.55738" lon="4.77082">
        <ele>379.1108</ele>
        <time>2018-02-02T08:28:22Z</time>
      </trkpt>
      <trkpt lat="45.55739" lon="4.77083">
        <ele>379.04477</ele>
        <time>2018-02-02T08:28:23Z</time>
      </trkpt>
      <trkpt lat="45.55747" lon="4.77089">
        <ele>378.78845</ele>
        <time>2018-02-02T08:28:31Z</time>
      </trkpt>
      <trkpt lat="45.55749" lon="4.7709">
        <ele>378.79373</ele>
        <time>2018-02-02T08:28:32Z</time>
      </trkpt>
      <trkpt lat="45.55757" lon="4.77099">
        <ele>378.3472</ele>
        <time>2018-02-02T08:28:39Z</time>
      </trkpt>
      <trkpt lat="45.55765" lon="4.77105">
        <ele>378.09882</ele>
        <time>2018-02-02T08:28:46Z</time>
      </trkpt>
      <trkpt lat="45.55772" lon="4.77112">
        <ele>377.82138</ele>
        <time>2018-02-02T08:28:53Z</time>
      </trkpt>
      <trkpt lat="45.55781" lon="4.77118">
        <ele>377.40656</ele>
        <time>2018-02-02T08:29:00Z</time>
      </trkpt>
      <trkpt lat="45.5579" lon="4.77125">
        <ele>376.96793</ele>
        <time>2018-02-02T08:29:08Z</time>
      </trkpt>
      <trkpt lat="45.55799" lon="4.77132">
        <ele>376.68256</ele>
        <time>2018-02-02T08:29:15Z</time>
      </trkpt>
      <trkpt lat="45.55808" lon="4.77138">
        <ele>376.0907</ele>
        <time>2018-02-02T08:29:22Z</time>
      </trkpt>
      <trkpt lat="45.55817" lon="4.77143">
        <ele>375.87402</ele>
        <time>2018-02-02T08:29:29Z</time>
      </trkpt>
      <trkpt lat="45.55827" lon="4.77145">
        <ele>376.0907</ele>
        <time>2018-02-02T08:29:36Z</time>
      </trkpt>
      <trkpt lat="45.55837" lon="4.77142">
        <ele>376.29416</ele>
        <time>2018-02-02T08:29:43Z</time>
      </trkpt>
      <trkpt lat="45.55846" lon="4.77142">
        <ele>376.66934</ele>
        <time>2018-02-02T08:29:50Z</time>
      </trkpt>
      <trkpt lat="45.55856" lon="4.77142">
        <ele>377.5651</ele>
        <time>2018-02-02T08:29:57Z</time>
      </trkpt>
      <trkpt lat="45.55866" lon="4.77146">
        <ele>377.7976</ele>
        <time>2018-02-02T08:30:05Z</time>
      </trkpt>
      <trkpt lat="45.55875" lon="4.77149">
        <ele>377.87424</ele>
        <time>2018-02-02T08:30:12Z</time>
      </trkpt>
      <trkpt lat="45.55885" lon="4.77153">
        <ele>378.06976</ele>
        <time>2018-02-02T08:30:20Z</time>
      </trkpt>
      <trkpt lat="45.55895" lon="4.77153">
        <ele>378.30228</ele>
        <time>2018-02-02T08:30:27Z</time>
      </trkpt>
      <trkpt lat="45.55905" lon="4.77153">
        <ele>378.57443</ele>
        <time>2018-02-02T08:30:34Z</time>
      </trkpt>
      <trkpt lat="45.55915" lon="4.77152">
        <ele>378.9602</ele>
        <time>2018-02-02T08:30:42Z</time>
      </trkpt>
      <trkpt lat="45.55924" lon="4.77151">
        <ele>379.4543</ele>
        <time>2018-02-02T08:30:49Z</time>
      </trkpt>
      <trkpt lat="45.55934" lon="4.77152">
        <ele>379.84802</ele>
        <time>2018-02-02T08:30:56Z</time>
      </trkpt>
      <trkpt lat="45.55935" lon="4.77153">
        <ele>379.9722</ele>
        <time>2018-02-02T08:30:57Z</time>
      </trkpt>
      <trkpt lat="45.55937" lon="4.77154">
        <ele>380.09903</ele>
        <time>2018-02-02T08:30:59Z</time>
      </trkpt>
      <trkpt lat="45.55938" lon="4.77154">
        <ele>380.0594</ele>
        <time>2018-02-02T08:31:00Z</time>
      </trkpt>
      <trkpt lat="45.55948" lon="4.77156">
        <ele>380.02768</ele>
        <time>2018-02-02T08:31:07Z</time>
      </trkpt>
      <trkpt lat="45.55949" lon="4.77156">
        <ele>380.23907</ele>
        <time>2018-02-02T08:31:08Z</time>
      </trkpt>
      <trkpt lat="45.55959" lon="4.77157">
        <ele>379.70798</ele>
        <time>2018-02-02T08:31:15Z</time>
      </trkpt>
      <trkpt lat="45.5596" lon="4.77157">
        <ele>379.98276</ele>
        <time>2018-02-02T08:31:16Z</time>
      </trkpt>
      <trkpt lat="45.5597" lon="4.77159">
        <ele>379.8718</ele>
        <time>2018-02-02T08:31:23Z</time>
      </trkpt>
      <trkpt lat="45.55979" lon="4.77162">
        <ele>379.3592</ele>
        <time>2018-02-02T08:31:30Z</time>
      </trkpt>
      <trkpt lat="45.5599" lon="4.77164">
        <ele>379.13196</ele>
        <time>2018-02-02T08:31:37Z</time>
      </trkpt>
      <trkpt lat="45.55996" lon="4.77155">
        <ele>378.9417</ele>
        <time>2018-02-02T08:31:46Z</time>
      </trkpt>
      <trkpt lat="45.55992" lon="4.77143">
        <ele>378.91</ele>
        <time>2018-02-02T08:31:53Z</time>
      </trkpt>
      <trkpt lat="45.55984" lon="4.77134">
        <ele>379.5415</ele>
        <time>2018-02-02T08:32:00Z</time>
      </trkpt>
      <trkpt lat="45.55977" lon="4.77125">
        <ele>379.9722</ele>
        <time>2018-02-02T08:32:07Z</time>
      </trkpt>
      <trkpt lat="45.55971" lon="4.77114">
        <ele>380.49536</ele>
        <time>2018-02-02T08:32:14Z</time>
      </trkpt>
      <trkpt lat="45.55965" lon="4.77103">
        <ele>380.00656</ele>
        <time>2018-02-02T08:32:21Z</time>
      </trkpt>
      <trkpt lat="45.5596" lon="4.77092">
        <ele>380.59314</ele>
        <time>2018-02-02T08:32:28Z</time>
      </trkpt>
      <trkpt lat="45.55959" lon="4.7709">
        <ele>380.53766</ele>
        <time>2018-02-02T08:32:29Z</time>
      </trkpt>
      <trkpt lat="45.55955" lon="4.77077">
        <ele>380.58786</ele>
        <time>2018-02-02T08:32:37Z</time>
      </trkpt>
      <trkpt lat="45.55954" lon="4.77075">
        <ele>380.31833</ele>
        <time>2018-02-02T08:32:38Z</time>
      </trkpt>
      <trkpt lat="45.55953" lon="4.77061">
        <ele>380.78867</ele>
        <time>2018-02-02T08:32:45Z</time>
      </trkpt>
      <trkpt lat="45.55953" lon="4.7706">
        <ele>380.69882</ele>
        <time>2018-02-02T08:32:46Z</time>
      </trkpt>
      <trkpt lat="45.55955" lon="4.77047">
        <ele>381.17178</ele>
        <time>2018-02-02T08:32:52Z</time>
      </trkpt>
      <trkpt lat="45.55955" lon="4.77045">
        <ele>380.9974</ele>
        <time>2018-02-02T08:32:53Z</time>
      </trkpt>
      <trkpt lat="45.55957" lon="4.77032">
        <ele>380.97626</ele>
        <time>2018-02-02T08:32:59Z</time>
      </trkpt>
      <trkpt lat="45.55961" lon="4.7702">
        <ele>380.8362</ele>
        <time>2018-02-02T08:33:05Z</time>
      </trkpt>
      <trkpt lat="45.55961" lon="4.77018">
        <ele>380.8415</ele>
        <time>2018-02-02T08:33:06Z</time>
      </trkpt>
      <trkpt lat="45.55964" lon="4.77004">
        <ele>381.17178</ele>
        <time>2018-02-02T08:33:14Z</time>
      </trkpt>
      <trkpt lat="45.55967" lon="4.76991">
        <ele>380.6407</ele>
        <time>2018-02-02T08:33:22Z</time>
      </trkpt>
      <trkpt lat="45.5597" lon="4.76977">
        <ele>380.44254</ele>
        <time>2018-02-02T08:33:30Z</time>
      </trkpt>
      <trkpt lat="45.55973" lon="4.76963">
        <ele>379.93784</ele>
        <time>2018-02-02T08:33:39Z</time>
      </trkpt>
      <trkpt lat="45.55976" lon="4.76948">
        <ele>379.3909</ele>
        <time>2018-02-02T08:33:48Z</time>
      </trkpt>
      <trkpt lat="45.55979" lon="4.76935">
        <ele>379.23502</ele>
        <time>2018-02-02T08:33:55Z</time>
      </trkpt>
      <trkpt lat="45.55981" lon="4.76922">
        <ele>379.02097</ele>
        <time>2018-02-02T08:34:02Z</time>
      </trkpt>
      <trkpt lat="45.55985" lon="4.7691">
        <ele>379.09497</ele>
        <time>2018-02-02T08:34:09Z</time>
      </trkpt>
      <trkpt lat="45.55986" lon="4.76896">
        <ele>378.3472</ele>
        <time>2018-02-02T08:34:17Z</time>
      </trkpt>
      <trkpt lat="45.55989" lon="4.7688">
        <ele>378.06976</ele>
        <time>2018-02-02T08:34:24Z</time>
      </trkpt>
      <trkpt lat="45.55993" lon="4.76866">
        <ele>377.86102</ele>
        <time>2018-02-02T08:34:32Z</time>
      </trkpt>
      <trkpt lat="45.55995" lon="4.76853">
        <ele>377.6285</ele>
        <time>2018-02-02T08:34:38Z</time>
      </trkpt>
      <trkpt lat="45.55999" lon="4.7684">
        <ele>377.70776</ele>
        <time>2018-02-02T08:34:45Z</time>
      </trkpt>
      <trkpt lat="45.56003" lon="4.76828">
        <ele>377.75534</ele>
        <time>2018-02-02T08:34:51Z</time>
      </trkpt>
      <trkpt lat="45.56006" lon="4.76815">
        <ele>378.23093</ele>
        <time>2018-02-02T08:34:57Z</time>
      </trkpt>
      <trkpt lat="45.56013" lon="4.76772">
        <ele>377.92444</ele>
        <time>2018-02-02T08:35:16Z</time>
      </trkpt>
      <trkpt lat="45.56015" lon="4.76758">
        <ele>378.01956</ele>
        <time>2018-02-02T08:35:23Z</time>
      </trkpt>
      <trkpt lat="45.56017" lon="4.76745">
        <ele>378.0962</ele>
        <time>2018-02-02T08:35:30Z</time>
      </trkpt>
      <trkpt lat="45.56017" lon="4.7673">
        <ele>377.7791</ele>
        <time>2018-02-02T08:35:37Z</time>
      </trkpt>
      <trkpt lat="45.56019" lon="4.76715">
        <ele>377.02872</ele>
        <time>2018-02-02T08:35:44Z</time>
      </trkpt>
      <trkpt lat="45.56021" lon="4.76702">
        <ele>376.71426</ele>
        <time>2018-02-02T08:35:50Z</time>
      </trkpt>
      <trkpt lat="45.56022" lon="4.76688">
        <ele>376.20697</ele>
        <time>2018-02-02T08:35:57Z</time>
      </trkpt>
      <trkpt lat="45.56025" lon="4.7667">
        <ele>376.30737</ele>
        <time>2018-02-02T08:36:04Z</time>
      </trkpt>
      <trkpt lat="45.56027" lon="4.76656">
        <ele>376.01935</ele>
        <time>2018-02-02T08:36:10Z</time>
      </trkpt>
      <trkpt lat="45.56027" lon="4.76642">
        <ele>376.45798</ele>
        <time>2018-02-02T08:36:17Z</time>
      </trkpt>
      <trkpt lat="45.56029" lon="4.76623">
        <ele>376.06693</ele>
        <time>2018-02-02T08:36:26Z</time>
      </trkpt>
      <trkpt lat="45.5603" lon="4.7661">
        <ele>376.01407</ele>
        <time>2018-02-02T08:36:32Z</time>
      </trkpt>
      <trkpt lat="45.56031" lon="4.76596">
        <ele>375.56226</ele>
        <time>2018-02-02T08:36:39Z</time>
      </trkpt>
      <trkpt lat="45.56033" lon="4.76582">
        <ele>375.70758</ele>
        <time>2018-02-02T08:36:45Z</time>
      </trkpt>
      <trkpt lat="45.56033" lon="4.76567">
        <ele>374.5661</ele>
        <time>2018-02-02T08:36:53Z</time>
      </trkpt>
      <trkpt lat="45.56035" lon="4.76552">
        <ele>374.21732</ele>
        <time>2018-02-02T08:37:00Z</time>
      </trkpt>
      <trkpt lat="45.56036" lon="4.76538">
        <ele>373.77872</ele>
        <time>2018-02-02T08:37:06Z</time>
      </trkpt>
      <trkpt lat="45.56037" lon="4.76524">
        <ele>372.43378</ele>
        <time>2018-02-02T08:37:14Z</time>
      </trkpt>
      <trkpt lat="45.56038" lon="4.76511">
        <ele>371.89212</ele>
        <time>2018-02-02T08:37:21Z</time>
      </trkpt>
      <trkpt lat="45.56039" lon="4.76498">
        <ele>371.41122</ele>
        <time>2018-02-02T08:37:27Z</time>
      </trkpt>
      <trkpt lat="45.56039" lon="4.76484">
        <ele>370.4283</ele>
        <time>2018-02-02T08:37:34Z</time>
      </trkpt>
      <trkpt lat="45.56041" lon="4.7647">
        <ele>369.42426</ele>
        <time>2018-02-02T08:37:41Z</time>
      </trkpt>
      <trkpt lat="45.56041" lon="4.76457">
        <ele>368.33298</ele>
        <time>2018-02-02T08:37:47Z</time>
      </trkpt>
      <trkpt lat="45.56041" lon="4.76443">
        <ele>367.54822</ele>
        <time>2018-02-02T08:37:54Z</time>
      </trkpt>
      <trkpt lat="45.56037" lon="4.76428">
        <ele>366.35657</ele>
        <time>2018-02-02T08:38:01Z</time>
      </trkpt>
      <trkpt lat="45.56034" lon="4.76417">
        <ele>365.8334</ele>
        <time>2018-02-02T08:38:07Z</time>
      </trkpt>
      <trkpt lat="45.56028" lon="4.76405">
        <ele>364.83197</ele>
        <time>2018-02-02T08:38:14Z</time>
      </trkpt>
      <trkpt lat="45.56025" lon="4.76393">
        <ele>363.9653</ele>
        <time>2018-02-02T08:38:21Z</time>
      </trkpt>
      <trkpt lat="45.56022" lon="4.7638">
        <ele>364.0525</ele>
        <time>2018-02-02T08:38:28Z</time>
      </trkpt>
      <trkpt lat="45.56021" lon="4.76367">
        <ele>363.4712</ele>
        <time>2018-02-02T08:38:34Z</time>
      </trkpt>
      <trkpt lat="45.56022" lon="4.76354">
        <ele>363.47385</ele>
        <time>2018-02-02T08:38:40Z</time>
      </trkpt>
      <trkpt lat="45.56023" lon="4.76339">
        <ele>363.71957</ele>
        <time>2018-02-02T08:38:47Z</time>
      </trkpt>
      <trkpt lat="45.56025" lon="4.76325">
        <ele>363.39456</ele>
        <time>2018-02-02T08:38:54Z</time>
      </trkpt>
      <trkpt lat="45.56027" lon="4.76311">
        <ele>363.60596</ele>
        <time>2018-02-02T08:39:00Z</time>
      </trkpt>
      <trkpt lat="45.56028" lon="4.76296">
        <ele>363.56104</ele>
        <time>2018-02-02T08:39:07Z</time>
      </trkpt>
      <trkpt lat="45.56031" lon="4.7628">
        <ele>363.76978</ele>
        <time>2018-02-02T08:39:15Z</time>
      </trkpt>
      <trkpt lat="45.56033" lon="4.76266">
        <ele>363.79355</ele>
        <time>2018-02-02T08:39:21Z</time>
      </trkpt>
      <trkpt lat="45.56035" lon="4.76252">
        <ele>364.27972</ele>
        <time>2018-02-02T08:39:28Z</time>
      </trkpt>
      <trkpt lat="45.56037" lon="4.76237">
        <ele>364.43564</ele>
        <time>2018-02-02T08:39:35Z</time>
      </trkpt>
      <trkpt lat="45.56038" lon="4.76223">
        <ele>365.10413</ele>
        <time>2018-02-02T08:39:41Z</time>
      </trkpt>
      <trkpt lat="45.56038" lon="4.76208">
        <ele>365.56653</ele>
        <time>2018-02-02T08:39:48Z</time>
      </trkpt>
      <trkpt lat="45.56035" lon="4.76194">
        <ele>365.5771</ele>
        <time>2018-02-02T08:39:54Z</time>
      </trkpt>
      <trkpt lat="45.5603" lon="4.7618">
        <ele>365.15167</ele>
        <time>2018-02-02T08:40:02Z</time>
      </trkpt>
      <trkpt lat="45.56025" lon="4.76165">
        <ele>364.75272</ele>
        <time>2018-02-02T08:40:09Z</time>
      </trkpt>
      <trkpt lat="45.56019" lon="4.76153">
        <ele>363.69052</ele>
        <time>2018-02-02T08:40:17Z</time>
      </trkpt>
      <trkpt lat="45.56015" lon="4.76141">
        <ele>363.22812</ele>
        <time>2018-02-02T08:40:23Z</time>
      </trkpt>
      <trkpt lat="45.56011" lon="4.76128">
        <ele>362.8344</ele>
        <time>2018-02-02T08:40:30Z</time>
      </trkpt>
      <trkpt lat="45.56006" lon="4.76116">
        <ele>362.22406</ele>
        <time>2018-02-02T08:40:37Z</time>
      </trkpt>
      <trkpt lat="45.56002" lon="4.76103">
        <ele>361.73257</ele>
        <time>2018-02-02T08:40:43Z</time>
      </trkpt>
      <trkpt lat="45.55998" lon="4.76092">
        <ele>361.13806</ele>
        <time>2018-02-02T08:40:49Z</time>
      </trkpt>
      <trkpt lat="45.55993" lon="4.76077">
        <ele>360.4352</ele>
        <time>2018-02-02T08:40:56Z</time>
      </trkpt>
      <trkpt lat="45.55988" lon="4.76066">
        <ele>360.0151</ele>
        <time>2018-02-02T08:41:02Z</time>
      </trkpt>
      <trkpt lat="45.55982" lon="4.76056">
        <ele>358.908</ele>
        <time>2018-02-02T08:41:09Z</time>
      </trkpt>
      <trkpt lat="45.55977" lon="4.76043">
        <ele>358.39276</ele>
        <time>2018-02-02T08:41:26Z</time>
      </trkpt>
      <trkpt lat="45.5597" lon="4.76033">
        <ele>357.77975</ele>
        <time>2018-02-02T08:41:34Z</time>
      </trkpt>
      <trkpt lat="45.55964" lon="4.76021">
        <ele>357.47852</ele>
        <time>2018-02-02T08:41:41Z</time>
      </trkpt>
      <trkpt lat="45.55958" lon="4.76009">
        <ele>356.6515</ele>
        <time>2018-02-02T08:41:49Z</time>
      </trkpt>
      <trkpt lat="45.55954" lon="4.75995">
        <ele>356.27893</ele>
        <time>2018-02-02T08:41:57Z</time>
      </trkpt>
      <trkpt lat="45.55953" lon="4.75982">
        <ele>356.1838</ele>
        <time>2018-02-02T08:42:06Z</time>
      </trkpt>
      <trkpt lat="45.55955" lon="4.75965">
        <ele>357.09274</ele>
        <time>2018-02-02T08:42:15Z</time>
      </trkpt>
      <trkpt lat="45.55959" lon="4.75951">
        <ele>357.47852</ele>
        <time>2018-02-02T08:42:20Z</time>
      </trkpt>
      <trkpt lat="45.55961" lon="4.75937">
        <ele>358.71512</ele>
        <time>2018-02-02T08:42:29Z</time>
      </trkpt>
      <trkpt lat="45.5596" lon="4.75924">
        <ele>359.6637</ele>
        <time>2018-02-02T08:42:36Z</time>
      </trkpt>
      <trkpt lat="45.55962" lon="4.7591">
        <ele>360.35068</ele>
        <time>2018-02-02T08:42:41Z</time>
      </trkpt>
      <trkpt lat="45.55962" lon="4.75897">
        <ele>361.3072</ele>
        <time>2018-02-02T08:42:48Z</time>
      </trkpt>
      <trkpt lat="45.55958" lon="4.75884">
        <ele>362.5279</ele>
        <time>2018-02-02T08:42:56Z</time>
      </trkpt>
      <trkpt lat="45.55956" lon="4.75871">
        <ele>362.89255</ele>
        <time>2018-02-02T08:43:04Z</time>
      </trkpt>
      <trkpt lat="45.55953" lon="4.75858">
        <ele>363.67465</ele>
        <time>2018-02-02T08:43:11Z</time>
      </trkpt>
      <trkpt lat="45.5595" lon="4.75844">
        <ele>364.3088</ele>
        <time>2018-02-02T08:43:18Z</time>
      </trkpt>
      <trkpt lat="45.55948" lon="4.7583">
        <ele>364.88217</ele>
        <time>2018-02-02T08:43:25Z</time>
      </trkpt>
      <trkpt lat="45.55948" lon="4.75816">
        <ele>365.4899</ele>
        <time>2018-02-02T08:43:32Z</time>
      </trkpt>
      <trkpt lat="45.55948" lon="4.75801">
        <ele>365.63785</ele>
        <time>2018-02-02T08:43:40Z</time>
      </trkpt>
      <trkpt lat="45.55949" lon="4.75786">
        <ele>365.59558</ele>
        <time>2018-02-02T08:43:48Z</time>
      </trkpt>
      <trkpt lat="45.55953" lon="4.75773">
        <ele>366.07648</ele>
        <time>2018-02-02T08:43:55Z</time>
      </trkpt>
      <trkpt lat="45.55956" lon="4.75759">
        <ele>365.3789</ele>
        <time>2018-02-02T08:44:01Z</time>
      </trkpt>
      <trkpt lat="45.5596" lon="4.75746">
        <ele>365.20453</ele>
        <time>2018-02-02T08:44:08Z</time>
      </trkpt>
      <trkpt lat="45.55965" lon="4.75734">
        <ele>364.80292</ele>
        <time>2018-02-02T08:44:14Z</time>
      </trkpt>
      <trkpt lat="45.5597" lon="4.75723">
        <ele>364.97464</ele>
        <time>2018-02-02T08:44:20Z</time>
      </trkpt>
      <trkpt lat="45.55974" lon="4.75711">
        <ele>364.3458</ele>
        <time>2018-02-02T08:44:26Z</time>
      </trkpt>
      <trkpt lat="45.55977" lon="4.75698">
        <ele>364.4462</ele>
        <time>2018-02-02T08:44:33Z</time>
      </trkpt>
      <trkpt lat="45.55978" lon="4.75685">
        <ele>364.59946</ele>
        <time>2018-02-02T08:44:40Z</time>
      </trkpt>
      <trkpt lat="45.55978" lon="4.7567">
        <ele>365.28644</ele>
        <time>2018-02-02T08:44:47Z</time>
      </trkpt>
      <trkpt lat="45.55978" lon="4.75657">
        <ele>365.5903</ele>
        <time>2018-02-02T08:44:54Z</time>
      </trkpt>
      <trkpt lat="45.55977" lon="4.75642">
        <ele>366.0712</ele>
        <time>2018-02-02T08:45:01Z</time>
      </trkpt>
      <trkpt lat="45.55976" lon="4.75629">
        <ele>366.6023</ele>
        <time>2018-02-02T08:45:08Z</time>
      </trkpt>
      <trkpt lat="45.55976" lon="4.75614">
        <ele>367.0964</ele>
        <time>2018-02-02T08:45:15Z</time>
      </trkpt>
      <trkpt lat="45.55976" lon="4.756">
        <ele>367.06204</ele>
        <time>2018-02-02T08:45:22Z</time>
      </trkpt>
      <trkpt lat="45.55975" lon="4.75587">
        <ele>366.3962</ele>
        <time>2018-02-02T08:45:29Z</time>
      </trkpt>
      <trkpt lat="45.55972" lon="4.75573">
        <ele>366.13724</ele>
        <time>2018-02-02T08:45:36Z</time>
      </trkpt>
      <trkpt lat="45.55969" lon="4.75561">
        <ele>365.54803</ele>
        <time>2018-02-02T08:45:42Z</time>
      </trkpt>
      <trkpt lat="45.55964" lon="4.75547">
        <ele>364.8901</ele>
        <time>2018-02-02T08:45:49Z</time>
      </trkpt>
      <trkpt lat="45.55961" lon="4.75534">
        <ele>364.7263</ele>
        <time>2018-02-02T08:45:55Z</time>
      </trkpt>
      <trkpt lat="45.55957" lon="4.75521">
        <ele>364.43298</ele>
        <time>2018-02-02T08:46:02Z</time>
      </trkpt>
      <trkpt lat="45.55953" lon="4.75508">
        <ele>363.42892</ele>
        <time>2018-02-02T08:46:09Z</time>
      </trkpt>
      <trkpt lat="45.55948" lon="4.75495">
        <ele>363.3153</ele>
        <time>2018-02-02T08:46:16Z</time>
      </trkpt>
      <trkpt lat="45.55944" lon="4.75481">
        <ele>362.55698</ele>
        <time>2018-02-02T08:46:22Z</time>
      </trkpt>
      <trkpt lat="45.5594" lon="4.75466">
        <ele>361.8594</ele>
        <time>2018-02-02T08:46:30Z</time>
      </trkpt>
      <trkpt lat="45.55936" lon="4.75453">
        <ele>361.51855</ele>
        <time>2018-02-02T08:46:36Z</time>
      </trkpt>
      <trkpt lat="45.55933" lon="4.75441">
        <ele>360.45636</ele>
        <time>2018-02-02T08:46:43Z</time>
      </trkpt>
      <trkpt lat="45.55928" lon="4.75429">
        <ele>359.9332</ele>
        <time>2018-02-02T08:46:50Z</time>
      </trkpt>
      <trkpt lat="45.55924" lon="4.75416">
        <ele>359.90942</ele>
        <time>2018-02-02T08:46:57Z</time>
      </trkpt>
      <trkpt lat="45.5592" lon="4.75404">
        <ele>359.17487</ele>
        <time>2018-02-02T08:47:03Z</time>
      </trkpt>
      <trkpt lat="45.55917" lon="4.75392">
        <ele>358.96613</ele>
        <time>2018-02-02T08:47:09Z</time>
      </trkpt>
      <trkpt lat="45.55913" lon="4.7538">
        <ele>358.99783</ele>
        <time>2018-02-02T08:47:15Z</time>
      </trkpt>
      <trkpt lat="45.55911" lon="4.75367">
        <ele>358.96613</ele>
        <time>2018-02-02T08:47:22Z</time>
      </trkpt>
      <trkpt lat="45.55911" lon="4.75353">
        <ele>359.36246</ele>
        <time>2018-02-02T08:47:28Z</time>
      </trkpt>
      <trkpt lat="45.55912" lon="4.75339">
        <ele>359.7403</ele>
        <time>2018-02-02T08:47:35Z</time>
      </trkpt>
      <trkpt lat="45.55912" lon="4.75326">
        <ele>360.15778</ele>
        <time>2018-02-02T08:47:41Z</time>
      </trkpt>
      <trkpt lat="45.55912" lon="4.75313">
        <ele>360.70737</ele>
        <time>2018-02-02T08:47:47Z</time>
      </trkpt>
      <trkpt lat="45.55911" lon="4.75299">
        <ele>360.08646</ele>
        <time>2018-02-02T08:47:54Z</time>
      </trkpt>
      <trkpt lat="45.55909" lon="4.75285">
        <ele>359.37833</ele>
        <time>2018-02-02T08:48:01Z</time>
      </trkpt>
      <trkpt lat="45.55905" lon="4.75271">
        <ele>358.63583</ele>
        <time>2018-02-02T08:48:08Z</time>
      </trkpt>
      <trkpt lat="45.55902" lon="4.75259">
        <ele>358.08096</ele>
        <time>2018-02-02T08:48:14Z</time>
      </trkpt>
      <trkpt lat="45.55896" lon="4.75244">
        <ele>357.7956</ele>
        <time>2018-02-02T08:48:23Z</time>
      </trkpt>
      <trkpt lat="45.5589" lon="4.75231">
        <ele>357.17203</ele>
        <time>2018-02-02T08:48:31Z</time>
      </trkpt>
      <trkpt lat="45.55886" lon="4.75218">
        <ele>356.44275</ele>
        <time>2018-02-02T08:48:38Z</time>
      </trkpt>
      <trkpt lat="45.55883" lon="4.75202">
        <ele>356.0834</ele>
        <time>2018-02-02T08:48:46Z</time>
      </trkpt>
      <trkpt lat="45.55879" lon="4.7519">
        <ele>355.9407</ele>
        <time>2018-02-02T08:48:52Z</time>
      </trkpt>
      <trkpt lat="45.55875" lon="4.75177">
        <ele>355.8324</ele>
        <time>2018-02-02T08:48:58Z</time>
      </trkpt>
      <trkpt lat="45.55869" lon="4.75166">
        <ele>355.7584</ele>
        <time>2018-02-02T08:49:05Z</time>
      </trkpt>
      <trkpt lat="45.55864" lon="4.75153">
        <ele>355.79538</ele>
        <time>2018-02-02T08:49:12Z</time>
      </trkpt>
      <trkpt lat="45.55858" lon="4.75139">
        <ele>356.49823</ele>
        <time>2018-02-02T08:49:20Z</time>
      </trkpt>
      <trkpt lat="45.55854" lon="4.75128">
        <ele>356.36084</ele>
        <time>2018-02-02T08:49:26Z</time>
      </trkpt>
      <trkpt lat="45.5585" lon="4.75116">
        <ele>356.86023</ele>
        <time>2018-02-02T08:49:32Z</time>
      </trkpt>
      <trkpt lat="45.55848" lon="4.75102">
        <ele>357.73746</ele>
        <time>2018-02-02T08:49:40Z</time>
      </trkpt>
      <trkpt lat="45.55847" lon="4.75089">
        <ele>358.67548</ele>
        <time>2018-02-02T08:49:48Z</time>
      </trkpt>
      <trkpt lat="45.55849" lon="4.75075">
        <ele>359.53687</ele>
        <time>2018-02-02T08:49:56Z</time>
      </trkpt>
      <trkpt lat="45.55853" lon="4.7506">
        <ele>360.25555</ele>
        <time>2018-02-02T08:50:03Z</time>
      </trkpt>
      <trkpt lat="45.55857" lon="4.75048">
        <ele>361.3283</ele>
        <time>2018-02-02T08:50:09Z</time>
      </trkpt>
      <trkpt lat="45.55862" lon="4.75037">
        <ele>362.21613</ele>
        <time>2018-02-02T08:50:15Z</time>
      </trkpt>
      <trkpt lat="45.55869" lon="4.75025">
        <ele>363.0326</ele>
        <time>2018-02-02T08:50:22Z</time>
      </trkpt>
      <trkpt lat="45.55875" lon="4.75014">
        <ele>363.37344</ele>
        <time>2018-02-02T08:50:28Z</time>
      </trkpt>
      <trkpt lat="45.55881" lon="4.75003">
        <ele>364.22952</ele>
        <time>2018-02-02T08:50:35Z</time>
      </trkpt>
      <trkpt lat="45.55888" lon="4.74992">
        <ele>364.53076</ele>
        <time>2018-02-02T08:50:42Z</time>
      </trkpt>
      <trkpt lat="45.55895" lon="4.74981">
        <ele>366.00513</ele>
        <time>2018-02-02T08:50:49Z</time>
      </trkpt>
      <trkpt lat="45.55901" lon="4.7497">
        <ele>366.2086</ele>
        <time>2018-02-02T08:50:56Z</time>
      </trkpt>
      <trkpt lat="45.55907" lon="4.74959">
        <ele>366.77933</ele>
        <time>2018-02-02T08:51:03Z</time>
      </trkpt>
      <trkpt lat="45.55914" lon="4.74949">
        <ele>367.17038</ele>
        <time>2018-02-02T08:51:11Z</time>
      </trkpt>
      <trkpt lat="45.55921" lon="4.74939">
        <ele>367.8098</ele>
        <time>2018-02-02T08:51:18Z</time>
      </trkpt>
      <trkpt lat="45.55928" lon="4.74928">
        <ele>368.0265</ele>
        <time>2018-02-02T08:51:25Z</time>
      </trkpt>
      <trkpt lat="45.55935" lon="4.74919">
        <ele>368.1401</ele>
        <time>2018-02-02T08:51:32Z</time>
      </trkpt>
      <trkpt lat="45.55941" lon="4.74909">
        <ele>368.9962</ele>
        <time>2018-02-02T08:51:38Z</time>
      </trkpt>
      <trkpt lat="45.55948" lon="4.74899">
        <ele>369.01468</ele>
        <time>2018-02-02T08:51:44Z</time>
      </trkpt>
      <trkpt lat="45.55954" lon="4.74888">
        <ele>369.37933</ele>
        <time>2018-02-02T08:51:51Z</time>
      </trkpt>
      <trkpt lat="45.55961" lon="4.74877">
        <ele>369.49557</ele>
        <time>2018-02-02T08:51:58Z</time>
      </trkpt>
      <trkpt lat="45.55967" lon="4.74866">
        <ele>369.271</ele>
        <time>2018-02-02T08:52:05Z</time>
      </trkpt>
      <trkpt lat="45.55972" lon="4.74854">
        <ele>369.7043</ele>
        <time>2018-02-02T08:52:12Z</time>
      </trkpt>
      <trkpt lat="45.55975" lon="4.74842">
        <ele>369.66998</ele>
        <time>2018-02-02T08:52:18Z</time>
      </trkpt>
      <trkpt lat="45.55978" lon="4.74827">
        <ele>369.8708</ele>
        <time>2018-02-02T08:52:26Z</time>
      </trkpt>
      <trkpt lat="45.55981" lon="4.74814">
        <ele>369.80472</ele>
        <time>2018-02-02T08:52:33Z</time>
      </trkpt>
      <trkpt lat="45.55984" lon="4.74801">
        <ele>369.6277</ele>
        <time>2018-02-02T08:52:39Z</time>
      </trkpt>
      <trkpt lat="45.55986" lon="4.74788">
        <ele>369.87607</ele>
        <time>2018-02-02T08:52:46Z</time>
      </trkpt>
      <trkpt lat="45.5599" lon="4.74775">
        <ele>369.921</ele>
        <time>2018-02-02T08:52:53Z</time>
      </trkpt>
      <trkpt lat="45.55991" lon="4.74762">
        <ele>370.08215</ele>
        <time>2018-02-02T08:53:00Z</time>
      </trkpt>
      <trkpt lat="45.55993" lon="4.74748">
        <ele>370.21164</ele>
        <time>2018-02-02T08:53:07Z</time>
      </trkpt>
      <trkpt lat="45.55992" lon="4.74734">
        <ele>371.22363</ele>
        <time>2018-02-02T08:53:14Z</time>
      </trkpt>
      <trkpt lat="45.55989" lon="4.74722">
        <ele>371.64905</ele>
        <time>2018-02-02T08:53:23Z</time>
      </trkpt>
      <trkpt lat="45.55985" lon="4.74709">
        <ele>372.99924</ele>
        <time>2018-02-02T08:53:30Z</time>
      </trkpt>
      <trkpt lat="45.55978" lon="4.74699">
        <ele>373.5541</ele>
        <time>2018-02-02T08:53:36Z</time>
      </trkpt>
      <trkpt lat="45.55973" lon="4.74688">
        <ele>374.37323</ele>
        <time>2018-02-02T08:53:42Z</time>
      </trkpt>
      <trkpt lat="45.5597" lon="4.74674">
        <ele>375.2082</ele>
        <time>2018-02-02T08:53:49Z</time>
      </trkpt>
      <trkpt lat="45.55968" lon="4.74661">
        <ele>375.28745</ele>
        <time>2018-02-02T08:53:56Z</time>
      </trkpt>
      <trkpt lat="45.55964" lon="4.74646">
        <ele>376.43155</ele>
        <time>2018-02-02T08:54:04Z</time>
      </trkpt>
      <trkpt lat="45.55961" lon="4.74633">
        <ele>376.923</ele>
        <time>2018-02-02T08:54:11Z</time>
      </trkpt>
      <trkpt lat="45.55959" lon="4.74619">
        <ele>377.76855</ele>
        <time>2018-02-02T08:54:18Z</time>
      </trkpt>
      <trkpt lat="45.55957" lon="4.74606">
        <ele>378.55328</ele>
        <time>2018-02-02T08:54:25Z</time>
      </trkpt>
      <trkpt lat="45.55955" lon="4.74593">
        <ele>378.86774</ele>
        <time>2018-02-02T08:54:32Z</time>
      </trkpt>
      <trkpt lat="45.55954" lon="4.74579">
        <ele>379.31693</ele>
        <time>2018-02-02T08:54:39Z</time>
      </trkpt>
      <trkpt lat="45.55951" lon="4.74566">
        <ele>380.28134</ele>
        <time>2018-02-02T08:54:47Z</time>
      </trkpt>
      <trkpt lat="45.55948" lon="4.74552">
        <ele>381.06082</ele>
        <time>2018-02-02T08:54:55Z</time>
      </trkpt>
      <trkpt lat="45.55941" lon="4.74515">
        <ele>382.81793</ele>
        <time>2018-02-02T08:55:16Z</time>
      </trkpt>
      <trkpt lat="45.55941" lon="4.74513">
        <ele>383.06366</ele>
        <time>2018-02-02T08:55:17Z</time>
      </trkpt>
      <trkpt lat="45.5594" lon="4.74511">
        <ele>383.01346</ele>
        <time>2018-02-02T08:55:18Z</time>
      </trkpt>
      <trkpt lat="45.55941" lon="4.74498">
        <ele>383.55777</ele>
        <time>2018-02-02T08:55:22Z</time>
      </trkpt>
      <trkpt lat="45.55941" lon="4.74498">
        <ele>383.55777</ele>
        <time>2018-02-02T08:55:22Z</time>
      </trkpt>
      <trkpt lat="45.55936" lon="4.7448">
        <ele>383.76913</ele>
        <time>2018-02-02T08:55:33Z</time>
      </trkpt>
      <trkpt lat="45.55936" lon="4.74479">
        <ele>384.6728</ele>
        <time>2018-02-02T08:55:34Z</time>
      </trkpt>
      <trkpt lat="45.55936" lon="4.74476">
        <ele>384.85248</ele>
        <time>2018-02-02T08:55:35Z</time>
      </trkpt>
      <trkpt lat="45.55935" lon="4.74474">
        <ele>384.18927</ele>
        <time>2018-02-02T08:55:36Z</time>
      </trkpt>
      <trkpt lat="45.55931" lon="4.74459">
        <ele>384.6649</ele>
        <time>2018-02-02T08:55:45Z</time>
      </trkpt>
      <trkpt lat="45.55931" lon="4.74457">
        <ele>385.21976</ele>
        <time>2018-02-02T08:55:46Z</time>
      </trkpt>
      <trkpt lat="45.5593" lon="4.74456">
        <ele>384.8974</ele>
        <time>2018-02-02T08:55:47Z</time>
      </trkpt>
      <trkpt lat="45.55925" lon="4.7444">
        <ele>385.6901</ele>
        <time>2018-02-02T08:55:57Z</time>
      </trkpt>
      <trkpt lat="45.55924" lon="4.74439">
        <ele>385.90674</ele>
        <time>2018-02-02T08:55:58Z</time>
      </trkpt>
      <trkpt lat="45.55921" lon="4.74426">
        <ele>386.58844</ele>
        <time>2018-02-02T08:56:05Z</time>
      </trkpt>
      <trkpt lat="45.5592" lon="4.74425">
        <ele>387.02972</ele>
        <time>2018-02-02T08:56:06Z</time>
      </trkpt>
      <trkpt lat="45.5592" lon="4.74423">
        <ele>387.28336</ele>
        <time>2018-02-02T08:56:07Z</time>
      </trkpt>
      <trkpt lat="45.5592" lon="4.74423">
        <ele>387.28336</ele>
        <time>2018-02-02T08:56:07Z</time>
      </trkpt>
      <trkpt lat="45.55916" lon="4.7441">
        <ele>387.62952</ele>
        <time>2018-02-02T08:56:14Z</time>
      </trkpt>
      <trkpt lat="45.55916" lon="4.7441">
        <ele>387.62952</ele>
        <time>2018-02-02T08:56:14Z</time>
      </trkpt>
      <trkpt lat="45.55913" lon="4.74397">
        <ele>388.27158</ele>
        <time>2018-02-02T08:56:22Z</time>
      </trkpt>
      <trkpt lat="45.55913" lon="4.74396">
        <ele>388.43805</ele>
        <time>2018-02-02T08:56:23Z</time>
      </trkpt>
      <trkpt lat="45.55913" lon="4.74396">
        <ele>388.43805</ele>
        <time>2018-02-02T08:56:23Z</time>
      </trkpt>
      <trkpt lat="45.5591" lon="4.74379">
        <ele>388.77625</ele>
        <time>2018-02-02T08:56:32Z</time>
      </trkpt>
      <trkpt lat="45.5591" lon="4.74379">
        <ele>388.77625</ele>
        <time>2018-02-02T08:56:32Z</time>
      </trkpt>
      <trkpt lat="45.55908" lon="4.74367">
        <ele>389.3734</ele>
        <time>2018-02-02T08:56:38Z</time>
      </trkpt>
      <trkpt lat="45.55908" lon="4.74365">
        <ele>389.35754</ele>
        <time>2018-02-02T08:56:39Z</time>
      </trkpt>
      <trkpt lat="45.55906" lon="4.74351">
        <ele>389.4236</ele>
        <time>2018-02-02T08:56:47Z</time>
      </trkpt>
      <trkpt lat="45.55906" lon="4.74349">
        <ele>389.81467</ele>
        <time>2018-02-02T08:56:48Z</time>
      </trkpt>
      <trkpt lat="45.55906" lon="4.74349">
        <ele>389.81467</ele>
        <time>2018-02-02T08:56:48Z</time>
      </trkpt>
      <trkpt lat="45.55905" lon="4.74335">
        <ele>390.11588</ele>
        <time>2018-02-02T08:56:55Z</time>
      </trkpt>
      <trkpt lat="45.55904" lon="4.74333">
        <ele>390.16873</ele>
        <time>2018-02-02T08:56:56Z</time>
      </trkpt>
      <trkpt lat="45.55904" lon="4.74331">
        <ele>390.61526</ele>
        <time>2018-02-02T08:56:57Z</time>
      </trkpt>
      <trkpt lat="45.55904" lon="4.74329">
        <ele>390.73682</ele>
        <time>2018-02-02T08:56:58Z</time>
      </trkpt>
      <trkpt lat="45.55904" lon="4.74327">
        <ele>390.50958</ele>
        <time>2018-02-02T08:56:59Z</time>
      </trkpt>
      <trkpt lat="45.55901" lon="4.74315">
        <ele>390.8742</ele>
        <time>2018-02-02T08:57:06Z</time>
      </trkpt>
      <trkpt lat="45.55901" lon="4.74313">
        <ele>390.77646</ele>
        <time>2018-02-02T08:57:07Z</time>
      </trkpt>
      <trkpt lat="45.55898" lon="4.74299">
        <ele>391.14636</ele>
        <time>2018-02-02T08:57:14Z</time>
      </trkpt>
      <trkpt lat="45.55898" lon="4.74299">
        <ele>391.14636</ele>
        <time>2018-02-02T08:57:14Z</time>
      </trkpt>
      <trkpt lat="45.55894" lon="4.74285">
        <ele>391.38153</ele>
        <time>2018-02-02T08:57:21Z</time>
      </trkpt>
      <trkpt lat="45.55894" lon="4.74283">
        <ele>391.49515</ele>
        <time>2018-02-02T08:57:22Z</time>
      </trkpt>
      <trkpt lat="45.55893" lon="4.74281">
        <ele>391.50308</ele>
        <time>2018-02-02T08:57:23Z</time>
      </trkpt>
      <trkpt lat="45.55893" lon="4.7428">
        <ele>391.69067</ele>
        <time>2018-02-02T08:57:24Z</time>
      </trkpt>
      <trkpt lat="45.55892" lon="4.74278">
        <ele>391.77524</ele>
        <time>2018-02-02T08:57:25Z</time>
      </trkpt>
      <trkpt lat="45.55892" lon="4.74276">
        <ele>391.6986</ele>
        <time>2018-02-02T08:57:26Z</time>
      </trkpt>
      <trkpt lat="45.55888" lon="4.74263">
        <ele>392.32748</ele>
        <time>2018-02-02T08:57:33Z</time>
      </trkpt>
      <trkpt lat="45.55888" lon="4.74262">
        <ele>392.56</ele>
        <time>2018-02-02T08:57:34Z</time>
      </trkpt>
      <trkpt lat="45.55886" lon="4.74258">
        <ele>392.39352</ele>
        <time>2018-02-02T08:57:36Z</time>
      </trkpt>
      <trkpt lat="45.55882" lon="4.74243">
        <ele>392.90878</ele>
        <time>2018-02-02T08:57:44Z</time>
      </trkpt>
      <trkpt lat="45.55882" lon="4.74243">
        <ele>392.90878</ele>
        <time>2018-02-02T08:57:44Z</time>
      </trkpt>
      <trkpt lat="45.55876" lon="4.74229">
        <ele>393.3236</ele>
        <time>2018-02-02T08:57:52Z</time>
      </trkpt>
      <trkpt lat="45.55876" lon="4.74229">
        <ele>393.3236</ele>
        <time>2018-02-02T08:57:52Z</time>
      </trkpt>
      <trkpt lat="45.55872" lon="4.74217">
        <ele>393.3051</ele>
        <time>2018-02-02T08:57:59Z</time>
      </trkpt>
      <trkpt lat="45.55872" lon="4.74217">
        <ele>393.3051</ele>
        <time>2018-02-02T08:57:59Z</time>
      </trkpt>
      <trkpt lat="45.55868" lon="4.74205">
        <ele>393.5482</ele>
        <time>2018-02-02T08:58:05Z</time>
      </trkpt>
      <trkpt lat="45.55868" lon="4.74205">
        <ele>393.5482</ele>
        <time>2018-02-02T08:58:05Z</time>
      </trkpt>
      <trkpt lat="45.55864" lon="4.74193">
        <ele>394.06873</ele>
        <time>2018-02-02T08:58:12Z</time>
      </trkpt>
      <trkpt lat="45.55864" lon="4.74191">
        <ele>394.20877</ele>
        <time>2018-02-02T08:58:13Z</time>
      </trkpt>
      <trkpt lat="45.55863" lon="4.74189">
        <ele>394.111</ele>
        <time>2018-02-02T08:58:14Z</time>
      </trkpt>
      <trkpt lat="45.55858" lon="4.74175">
        <ele>394.36465</ele>
        <time>2018-02-02T08:58:22Z</time>
      </trkpt>
      <trkpt lat="45.55858" lon="4.74175">
        <ele>394.36465</ele>
        <time>2018-02-02T08:58:22Z</time>
      </trkpt>
      <trkpt lat="45.55855" lon="4.74162">
        <ele>395.40042</ele>
        <time>2018-02-02T08:58:28Z</time>
      </trkpt>
      <trkpt lat="45.55854" lon="4.7416">
        <ele>394.84555</ele>
        <time>2018-02-02T08:58:29Z</time>
      </trkpt>
      <trkpt lat="45.5585" lon="4.74148">
        <ele>394.58926</ele>
        <time>2018-02-02T08:58:37Z</time>
      </trkpt>
      <trkpt lat="45.55845" lon="4.74135">
        <ele>394.6659</ele>
        <time>2018-02-02T08:58:44Z</time>
      </trkpt>
      <trkpt lat="45.55839" lon="4.74124">
        <ele>394.43073</ele>
        <time>2018-02-02T08:58:51Z</time>
      </trkpt>
      <trkpt lat="45.55835" lon="4.74111">
        <ele>394.66324</ele>
        <time>2018-02-02T08:58:58Z</time>
      </trkpt>
      <trkpt lat="45.55829" lon="4.74101">
        <ele>394.7055</ele>
        <time>2018-02-02T08:59:05Z</time>
      </trkpt>
      <trkpt lat="45.5582" lon="4.74095">
        <ele>394.76364</ele>
        <time>2018-02-02T08:59:13Z</time>
      </trkpt>
      <trkpt lat="45.55813" lon="4.74104">
        <ele>394.7055</ele>
        <time>2018-02-02T08:59:20Z</time>
      </trkpt>
      <trkpt lat="45.55807" lon="4.74115">
        <ele>395.32117</ele>
        <time>2018-02-02T08:59:28Z</time>
      </trkpt>
      <trkpt lat="45.55806" lon="4.74117">
        <ele>395.1679</ele>
        <time>2018-02-02T08:59:29Z</time>
      </trkpt>
      <trkpt lat="45.55799" lon="4.74126">
        <ele>396.30673</ele>
        <time>2018-02-02T08:59:36Z</time>
      </trkpt>
      <trkpt lat="45.55797" lon="4.74127">
        <ele>396.30673</ele>
        <time>2018-02-02T08:59:37Z</time>
      </trkpt>
      <trkpt lat="45.5579" lon="4.74137">
        <ele>396.38602</ele>
        <time>2018-02-02T08:59:44Z</time>
      </trkpt>
      <trkpt lat="45.55789" lon="4.74138">
        <ele>396.68988</ele>
        <time>2018-02-02T08:59:45Z</time>
      </trkpt>
      <trkpt lat="45.55782" lon="4.74148">
        <ele>397.36365</ele>
        <time>2018-02-02T08:59:53Z</time>
      </trkpt>
      <trkpt lat="45.55781" lon="4.7415">
        <ele>397.73093</ele>
        <time>2018-02-02T08:59:54Z</time>
      </trkpt>
      <trkpt lat="45.5578" lon="4.74151">
        <ele>397.5671</ele>
        <time>2018-02-02T08:59:55Z</time>
      </trkpt>
      <trkpt lat="45.55772" lon="4.7416">
        <ele>397.8842</ele>
        <time>2018-02-02T09:00:02Z</time>
      </trkpt>
      <trkpt lat="45.55772" lon="4.74161">
        <ele>398.40997</ele>
        <time>2018-02-02T09:00:03Z</time>
      </trkpt>
      <trkpt lat="45.55771" lon="4.74162">
        <ele>398.7667</ele>
        <time>2018-02-02T09:00:04Z</time>
      </trkpt>
      <trkpt lat="45.55771" lon="4.74163">
        <ele>398.7112</ele>
        <time>2018-02-02T09:00:05Z</time>
      </trkpt>
      <trkpt lat="45.55763" lon="4.7417">
        <ele>399.40613</ele>
        <time>2018-02-02T09:00:11Z</time>
      </trkpt>
      <trkpt lat="45.55763" lon="4.74171">
        <ele>399.72055</ele>
        <time>2018-02-02T09:00:12Z</time>
      </trkpt>
      <trkpt lat="45.55762" lon="4.74172">
        <ele>399.51447</ele>
        <time>2018-02-02T09:00:13Z</time>
      </trkpt>
      <trkpt lat="45.55753" lon="4.7418">
        <ele>400.64798</ele>
        <time>2018-02-02T09:00:21Z</time>
      </trkpt>
      <trkpt lat="45.55752" lon="4.74182">
        <ele>400.53174</ele>
        <time>2018-02-02T09:00:22Z</time>
      </trkpt>
      <trkpt lat="45.55745" lon="4.74189">
        <ele>401.0866</ele>
        <time>2018-02-02T09:00:28Z</time>
      </trkpt>
      <trkpt lat="45.55744" lon="4.7419">
        <ele>401.09982</ele>
        <time>2018-02-02T09:00:29Z</time>
      </trkpt>
      <trkpt lat="45.55743" lon="4.74191">
        <ele>401.06018</ele>
        <time>2018-02-02T09:00:30Z</time>
      </trkpt>
      <trkpt lat="45.55736" lon="4.74199">
        <ele>402.11182</ele>
        <time>2018-02-02T09:00:38Z</time>
      </trkpt>
      <trkpt lat="45.55735" lon="4.74201">
        <ele>402.32056</ele>
        <time>2018-02-02T09:00:39Z</time>
      </trkpt>
      <trkpt lat="45.55734" lon="4.74202">
        <ele>402.25186</ele>
        <time>2018-02-02T09:00:40Z</time>
      </trkpt>
      <trkpt lat="45.55727" lon="4.74211">
        <ele>402.94678</ele>
        <time>2018-02-02T09:00:48Z</time>
      </trkpt>
      <trkpt lat="45.55726" lon="4.74212">
        <ele>403.1925</ele>
        <time>2018-02-02T09:00:49Z</time>
      </trkpt>
      <trkpt lat="45.55725" lon="4.74214">
        <ele>403.22156</ele>
        <time>2018-02-02T09:00:50Z</time>
      </trkpt>
      <trkpt lat="45.55724" lon="4.74215">
        <ele>403.12115</ele>
        <time>2018-02-02T09:00:51Z</time>
      </trkpt>
      <trkpt lat="45.55716" lon="4.74225">
        <ele>403.82135</ele>
        <time>2018-02-02T09:00:58Z</time>
      </trkpt>
      <trkpt lat="45.55716" lon="4.74226">
        <ele>404.00897</ele>
        <time>2018-02-02T09:00:59Z</time>
      </trkpt>
      <trkpt lat="45.55714" lon="4.74227">
        <ele>403.95612</ele>
        <time>2018-02-02T09:01:00Z</time>
      </trkpt>
      <trkpt lat="45.55707" lon="4.74236">
        <ele>404.95227</ele>
        <time>2018-02-02T09:01:08Z</time>
      </trkpt>
      <trkpt lat="45.55706" lon="4.74237">
        <ele>405.10022</ele>
        <time>2018-02-02T09:01:09Z</time>
      </trkpt>
      <trkpt lat="45.55706" lon="4.74239">
        <ele>405.35388</ele>
        <time>2018-02-02T09:01:10Z</time>
      </trkpt>
      <trkpt lat="45.55706" lon="4.7424">
        <ele>405.4807</ele>
        <time>2018-02-02T09:01:11Z</time>
      </trkpt>
      <trkpt lat="45.55705" lon="4.74241">
        <ele>405.3988</ele>
        <time>2018-02-02T09:01:12Z</time>
      </trkpt>
      <trkpt lat="45.55697" lon="4.74249">
        <ele>405.76608</ele>
        <time>2018-02-02T09:01:18Z</time>
      </trkpt>
      <trkpt lat="45.55697" lon="4.7425">
        <ele>406.2179</ele>
        <time>2018-02-02T09:01:19Z</time>
      </trkpt>
      <trkpt lat="45.55696" lon="4.74251">
        <ele>406.33945</ele>
        <time>2018-02-02T09:01:20Z</time>
      </trkpt>
      <trkpt lat="45.55695" lon="4.74252">
        <ele>406.2919</ele>
        <time>2018-02-02T09:01:21Z</time>
      </trkpt>
      <trkpt lat="45.55687" lon="4.74259">
        <ele>407.1744</ele>
        <time>2018-02-02T09:01:30Z</time>
      </trkpt>
      <trkpt lat="45.55686" lon="4.7426">
        <ele>407.362</ele>
        <time>2018-02-02T09:01:31Z</time>
      </trkpt>
      <trkpt lat="45.55686" lon="4.74261">
        <ele>407.58395</ele>
        <time>2018-02-02T09:01:32Z</time>
      </trkpt>
      <trkpt lat="45.55685" lon="4.74262">
        <ele>407.4545</ele>
        <time>2018-02-02T09:01:33Z</time>
      </trkpt>
      <trkpt lat="45.55676" lon="4.74269">
        <ele>408.18906</ele>
        <time>2018-02-02T09:01:41Z</time>
      </trkpt>
      <trkpt lat="45.55676" lon="4.7427">
        <ele>408.29474</ele>
        <time>2018-02-02T09:01:42Z</time>
      </trkpt>
      <trkpt lat="45.55675" lon="4.7427">
        <ele>408.34756</ele>
        <time>2018-02-02T09:01:43Z</time>
      </trkpt>
      <trkpt lat="45.55673" lon="4.74272">
        <ele>408.3925</ele>
        <time>2018-02-02T09:01:44Z</time>
      </trkpt>
      <trkpt lat="45.55672" lon="4.74272">
        <ele>408.23132</ele>
        <time>2018-02-02T09:01:45Z</time>
      </trkpt>
      <trkpt lat="45.55663" lon="4.74278">
        <ele>408.9791</ele>
        <time>2018-02-02T09:01:53Z</time>
      </trkpt>
      <trkpt lat="45.55662" lon="4.74278">
        <ele>409.08478</ele>
        <time>2018-02-02T09:01:54Z</time>
      </trkpt>
      <trkpt lat="45.55653" lon="4.74285">
        <ele>410.51425</ele>
        <time>2018-02-02T09:02:04Z</time>
      </trkpt>
      <trkpt lat="45.55652" lon="4.74286">
        <ele>410.49576</ele>
        <time>2018-02-02T09:02:05Z</time>
      </trkpt>
      <trkpt lat="45.55643" lon="4.74291">
        <ele>411.5553</ele>
        <time>2018-02-02T09:02:14Z</time>
      </trkpt>
      <trkpt lat="45.55641" lon="4.74291">
        <ele>411.65836</ele>
        <time>2018-02-02T09:02:15Z</time>
      </trkpt>
      <trkpt lat="45.5564" lon="4.74292">
        <ele>411.80103</ele>
        <time>2018-02-02T09:02:16Z</time>
      </trkpt>
      <trkpt lat="45.55638" lon="4.74293">
        <ele>412.05997</ele>
        <time>2018-02-02T09:02:17Z</time>
      </trkpt>
      <trkpt lat="45.55637" lon="4.74294">
        <ele>411.96484</ele>
        <time>2018-02-02T09:02:18Z</time>
      </trkpt>
      <trkpt lat="45.55629" lon="4.74299">
        <ele>412.8817</ele>
        <time>2018-02-02T09:02:26Z</time>
      </trkpt>
      <trkpt lat="45.55627" lon="4.74299">
        <ele>412.8183</ele>
        <time>2018-02-02T09:02:27Z</time>
      </trkpt>
      <trkpt lat="45.55618" lon="4.74304">
        <ele>413.8118</ele>
        <time>2018-02-02T09:02:35Z</time>
      </trkpt>
      <trkpt lat="45.55617" lon="4.74305">
        <ele>413.95712</ele>
        <time>2018-02-02T09:02:36Z</time>
      </trkpt>
      <trkpt lat="45.55616" lon="4.74306">
        <ele>414.18964</ele>
        <time>2018-02-02T09:02:37Z</time>
      </trkpt>
      <trkpt lat="45.55615" lon="4.74306">
        <ele>413.93335</ele>
        <time>2018-02-02T09:02:38Z</time>
      </trkpt>
      <trkpt lat="45.55605" lon="4.7431">
        <ele>414.74188</ele>
        <time>2018-02-02T09:02:44Z</time>
      </trkpt>
      <trkpt lat="45.55603" lon="4.74311">
        <ele>414.74454</ele>
        <time>2018-02-02T09:02:45Z</time>
      </trkpt>
      <trkpt lat="45.55595" lon="4.74314">
        <ele>415.05103</ele>
        <time>2018-02-02T09:02:51Z</time>
      </trkpt>
      <trkpt lat="45.55594" lon="4.74315">
        <ele>415.34433</ele>
        <time>2018-02-02T09:02:52Z</time>
      </trkpt>
      <trkpt lat="45.55592" lon="4.74315">
        <ele>415.2492</ele>
        <time>2018-02-02T09:02:53Z</time>
      </trkpt>
      <trkpt lat="45.55582" lon="4.74318">
        <ele>415.64554</ele>
        <time>2018-02-02T09:03:00Z</time>
      </trkpt>
      <trkpt lat="45.55579" lon="4.7432">
        <ele>415.44736</ele>
        <time>2018-02-02T09:03:02Z</time>
      </trkpt>
      <trkpt lat="45.55568" lon="4.74324">
        <ele>415.8173</ele>
        <time>2018-02-02T09:03:09Z</time>
      </trkpt>
      <trkpt lat="45.55566" lon="4.74325">
        <ele>415.56628</ele>
        <time>2018-02-02T09:03:10Z</time>
      </trkpt>
      <trkpt lat="45.55558" lon="4.7433">
        <ele>415.9362</ele>
        <time>2018-02-02T09:03:19Z</time>
      </trkpt>
      <trkpt lat="45.55558" lon="4.7433">
        <ele>415.9362</ele>
        <time>2018-02-02T09:03:19Z</time>
      </trkpt>
      <trkpt lat="45.55549" lon="4.74335">
        <ele>416.77908</ele>
        <time>2018-02-02T09:03:27Z</time>
      </trkpt>
      <trkpt lat="45.55549" lon="4.74335">
        <ele>416.77908</ele>
        <time>2018-02-02T09:03:27Z</time>
      </trkpt>
      <trkpt lat="45.55539" lon="4.74339">
        <ele>416.81342</ele>
        <time>2018-02-02T09:03:35Z</time>
      </trkpt>
      <trkpt lat="45.55539" lon="4.74339">
        <ele>416.81342</ele>
        <time>2018-02-02T09:03:35Z</time>
      </trkpt>
      <trkpt lat="45.55531" lon="4.74342">
        <ele>416.90326</ele>
        <time>2018-02-02T09:03:42Z</time>
      </trkpt>
      <trkpt lat="45.5553" lon="4.74343">
        <ele>416.91647</ele>
        <time>2018-02-02T09:03:43Z</time>
      </trkpt>
      <trkpt lat="45.5552" lon="4.74344">
        <ele>416.8821</ele>
        <time>2018-02-02T09:03:49Z</time>
      </trkpt>
      <trkpt lat="45.55518" lon="4.74345">
        <ele>416.88742</ele>
        <time>2018-02-02T09:03:51Z</time>
      </trkpt>
      <trkpt lat="45.55508" lon="4.74346">
        <ele>416.4805</ele>
        <time>2018-02-02T09:03:58Z</time>
      </trkpt>
      <trkpt lat="45.55497" lon="4.74348">
        <ele>416.87155</ele>
        <time>2018-02-02T09:04:06Z</time>
      </trkpt>
      <trkpt lat="45.55486" lon="4.74349">
        <ele>416.28232</ele>
        <time>2018-02-02T09:04:13Z</time>
      </trkpt>
      <trkpt lat="45.55474" lon="4.74353">
        <ele>416.2295</ele>
        <time>2018-02-02T09:04:22Z</time>
      </trkpt>
      <trkpt lat="45.55463" lon="4.74352">
        <ele>416.8927</ele>
        <time>2018-02-02T09:04:30Z</time>
      </trkpt>
      <trkpt lat="45.55453" lon="4.74352">
        <ele>416.64697</ele>
        <time>2018-02-02T09:04:37Z</time>
      </trkpt>
      <trkpt lat="45.55443" lon="4.74353">
        <ele>416.70245</ele>
        <time>2018-02-02T09:04:45Z</time>
      </trkpt>
      <trkpt lat="45.55433" lon="4.74353">
        <ele>417.22296</ele>
        <time>2018-02-02T09:04:52Z</time>
      </trkpt>
      <trkpt lat="45.55432" lon="4.74353">
        <ele>417.55325</ele>
        <time>2018-02-02T09:04:53Z</time>
      </trkpt>
      <trkpt lat="45.55431" lon="4.74353">
        <ele>417.56912</ele>
        <time>2018-02-02T09:04:54Z</time>
      </trkpt>
      <trkpt lat="45.55431" lon="4.74353">
        <ele>417.56912</ele>
        <time>2018-02-02T09:04:54Z</time>
      </trkpt>
      <trkpt lat="45.5542" lon="4.74353">
        <ele>417.37888</ele>
        <time>2018-02-02T09:05:02Z</time>
      </trkpt>
      <trkpt lat="45.55409" lon="4.74352">
        <ele>417.45023</ele>
        <time>2018-02-02T09:05:09Z</time>
      </trkpt>
      <trkpt lat="45.554" lon="4.74353">
        <ele>417.69067</ele>
        <time>2018-02-02T09:05:15Z</time>
      </trkpt>
      <trkpt lat="45.554" lon="4.74353">
        <ele>417.69067</ele>
        <time>2018-02-02T09:05:15Z</time>
      </trkpt>
      <trkpt lat="45.5539" lon="4.74353">
        <ele>417.76727</ele>
        <time>2018-02-02T09:05:23Z</time>
      </trkpt>
      <trkpt lat="45.55388" lon="4.74352">
        <ele>417.64575</ele>
        <time>2018-02-02T09:05:25Z</time>
      </trkpt>
      <trkpt lat="45.55378" lon="4.74352">
        <ele>417.9047</ele>
        <time>2018-02-02T09:05:32Z</time>
      </trkpt>
      <trkpt lat="45.55378" lon="4.74352">
        <ele>417.9047</ele>
        <time>2018-02-02T09:05:32Z</time>
      </trkpt>
      <trkpt lat="45.55367" lon="4.74354">
        <ele>418.03943</ele>
        <time>2018-02-02T09:05:40Z</time>
      </trkpt>
      <trkpt lat="45.55366" lon="4.74354">
        <ele>418.26138</ele>
        <time>2018-02-02T09:05:41Z</time>
      </trkpt>
      <trkpt lat="45.55356" lon="4.74354">
        <ele>419.0805</ele>
        <time>2018-02-02T09:05:47Z</time>
      </trkpt>
      <trkpt lat="45.55354" lon="4.74355">
        <ele>418.99066</ele>
        <time>2018-02-02T09:05:49Z</time>
      </trkpt>
      <trkpt lat="45.55354" lon="4.74355">
        <ele>418.99066</ele>
        <time>2018-02-02T09:05:49Z</time>
      </trkpt>
      <trkpt lat="45.55345" lon="4.74358">
        <ele>419.1492</ele>
        <time>2018-02-02T09:05:57Z</time>
      </trkpt>
      <trkpt lat="45.55343" lon="4.74358">
        <ele>418.97217</ele>
        <time>2018-02-02T09:05:58Z</time>
      </trkpt>
      <trkpt lat="45.55334" lon="4.7436">
        <ele>419.24432</ele>
        <time>2018-02-02T09:06:05Z</time>
      </trkpt>
      <trkpt lat="45.55334" lon="4.7436">
        <ele>419.24432</ele>
        <time>2018-02-02T09:06:05Z</time>
      </trkpt>
      <trkpt lat="45.55323" lon="4.74363">
        <ele>420.08984</ele>
        <time>2018-02-02T09:06:14Z</time>
      </trkpt>
      <trkpt lat="45.55323" lon="4.74363">
        <ele>420.08984</ele>
        <time>2018-02-02T09:06:14Z</time>
      </trkpt>
      <trkpt lat="45.55313" lon="4.74366">
        <ele>420.44125</ele>
        <time>2018-02-02T09:06:21Z</time>
      </trkpt>
      <trkpt lat="45.55311" lon="4.74367">
        <ele>420.48355</ele>
        <time>2018-02-02T09:06:23Z</time>
      </trkpt>
      <trkpt lat="45.55309" lon="4.74368">
        <ele>420.53638</ele>
        <time>2018-02-02T09:06:24Z</time>
      </trkpt>
      <trkpt lat="45.55301" lon="4.74373">
        <ele>421.01465</ele>
        <time>2018-02-02T09:06:31Z</time>
      </trkpt>
      <trkpt lat="45.553" lon="4.74373">
        <ele>420.92743</ele>
        <time>2018-02-02T09:06:32Z</time>
      </trkpt>
      <trkpt lat="45.5529" lon="4.74381">
        <ele>421.09128</ele>
        <time>2018-02-02T09:06:41Z</time>
      </trkpt>
      <trkpt lat="45.55281" lon="4.74385">
        <ele>422.0372</ele>
        <time>2018-02-02T09:06:49Z</time>
      </trkpt>
      <trkpt lat="45.55281" lon="4.74385">
        <ele>422.0372</ele>
        <time>2018-02-02T09:06:49Z</time>
      </trkpt>
      <trkpt lat="45.55271" lon="4.74389">
        <ele>422.4494</ele>
        <time>2018-02-02T09:06:57Z</time>
      </trkpt>
      <trkpt lat="45.5527" lon="4.7439">
        <ele>422.57358</ele>
        <time>2018-02-02T09:06:58Z</time>
      </trkpt>
      <trkpt lat="45.55269" lon="4.74391">
        <ele>422.56036</ele>
        <time>2018-02-02T09:06:59Z</time>
      </trkpt>
      <trkpt lat="45.55259" lon="4.74392">
        <ele>422.92502</ele>
        <time>2018-02-02T09:07:07Z</time>
      </trkpt>
      <trkpt lat="45.55259" lon="4.74392">
        <ele>422.87744</ele>
        <time>2018-02-02T09:07:08Z</time>
      </trkpt>
      <trkpt lat="45.55249" lon="4.74398">
        <ele>423.38477</ele>
        <time>2018-02-02T09:07:16Z</time>
      </trkpt>
      <trkpt lat="45.55248" lon="4.74399">
        <ele>423.49045</ele>
        <time>2018-02-02T09:07:17Z</time>
      </trkpt>
      <trkpt lat="45.55238" lon="4.74401">
        <ele>424.07703</ele>
        <time>2018-02-02T09:07:23Z</time>
      </trkpt>
      <trkpt lat="45.55238" lon="4.74401">
        <ele>424.07703</ele>
        <time>2018-02-02T09:07:23Z</time>
      </trkpt>
      <trkpt lat="45.55227" lon="4.74402">
        <ele>424.55</ele>
        <time>2018-02-02T09:07:30Z</time>
      </trkpt>
      <trkpt lat="45.55226" lon="4.74402">
        <ele>424.62134</ele>
        <time>2018-02-02T09:07:31Z</time>
      </trkpt>
      <trkpt lat="45.55225" lon="4.74402">
        <ele>424.45752</ele>
        <time>2018-02-02T09:07:32Z</time>
      </trkpt>
      <trkpt lat="45.55214" lon="4.74403">
        <ele>425.05997</ele>
        <time>2018-02-02T09:07:41Z</time>
      </trkpt>
      <trkpt lat="45.55215" lon="4.74402">
        <ele>425.24228</ele>
        <time>2018-02-02T09:07:42Z</time>
      </trkpt>
      <trkpt lat="45.55215" lon="4.74402">
        <ele>425.2</ele>
        <time>2018-02-02T09:07:43Z</time>
      </trkpt>
      <trkpt lat="45.55206" lon="4.74404">
        <ele>426.6797</ele>
        <time>2018-02-02T09:07:55Z</time>
      </trkpt>
      <trkpt lat="45.55203" lon="4.74404">
        <ele>426.77216</ele>
        <time>2018-02-02T09:07:56Z</time>
      </trkpt>
      <trkpt lat="45.55201" lon="4.74403">
        <ele>427.2108</ele>
        <time>2018-02-02T09:07:57Z</time>
      </trkpt>
      <trkpt lat="45.55199" lon="4.74403">
        <ele>427.12357</ele>
        <time>2018-02-02T09:07:58Z</time>
      </trkpt>
      <trkpt lat="45.55188" lon="4.74404">
        <ele>428.14084</ele>
        <time>2018-02-02T09:08:08Z</time>
      </trkpt>
      <trkpt lat="45.55185" lon="4.74404">
        <ele>428.48962</ele>
        <time>2018-02-02T09:08:10Z</time>
      </trkpt>
      <trkpt lat="45.55185" lon="4.74404">
        <ele>428.48962</ele>
        <time>2018-02-02T09:08:10Z</time>
      </trkpt>
      <trkpt lat="45.55176" lon="4.74398">
        <ele>429.9323</ele>
        <time>2018-02-02T09:08:18Z</time>
      </trkpt>
      <trkpt lat="45.55174" lon="4.74398">
        <ele>430.05386</ele>
        <time>2018-02-02T09:08:19Z</time>
      </trkpt>
      <trkpt lat="45.55173" lon="4.74397">
        <ele>430.1622</ele>
        <time>2018-02-02T09:08:20Z</time>
      </trkpt>
      <trkpt lat="45.55172" lon="4.74396">
        <ele>430.47134</ele>
        <time>2018-02-02T09:08:21Z</time>
      </trkpt>
      <trkpt lat="45.55172" lon="4.74394">
        <ele>430.25467</ele>
        <time>2018-02-02T09:08:22Z</time>
      </trkpt>
      <trkpt lat="45.55161" lon="4.74394">
        <ele>432.35</ele>
        <time>2018-02-02T09:08:32Z</time>
      </trkpt>
      <trkpt lat="45.55157" lon="4.74394">
        <ele>432.239</ele>
        <time>2018-02-02T09:08:33Z</time>
      </trkpt>
      <trkpt lat="45.55143" lon="4.74391">
        <ele>434.52194</ele>
        <time>2018-02-02T09:08:49Z</time>
      </trkpt>
      <trkpt lat="45.55143" lon="4.7439">
        <ele>434.913</ele>
        <time>2018-02-02T09:08:50Z</time>
      </trkpt>
      <trkpt lat="45.55139" lon="4.7439">
        <ele>434.86807</ele>
        <time>2018-02-02T09:08:51Z</time>
      </trkpt>
      <trkpt lat="45.5513" lon="4.74387">
        <ele>435.8061</ele>
        <time>2018-02-02T09:09:00Z</time>
      </trkpt>
      <trkpt lat="45.5513" lon="4.74387">
        <ele>435.8061</ele>
        <time>2018-02-02T09:09:00Z</time>
      </trkpt>
      <trkpt lat="45.5512" lon="4.74384">
        <ele>436.77582</ele>
        <time>2018-02-02T09:09:10Z</time>
      </trkpt>
      <trkpt lat="45.5512" lon="4.74384">
        <ele>436.77582</ele>
        <time>2018-02-02T09:09:10Z</time>
      </trkpt>
      <trkpt lat="45.55109" lon="4.74386">
        <ele>438.27133</ele>
        <time>2018-02-02T09:09:18Z</time>
      </trkpt>
      <trkpt lat="45.55108" lon="4.74386">
        <ele>438.55142</ele>
        <time>2018-02-02T09:09:19Z</time>
      </trkpt>
      <trkpt lat="45.55108" lon="4.74386">
        <ele>438.7073</ele>
        <time>2018-02-02T09:09:20Z</time>
      </trkpt>
      <trkpt lat="45.55108" lon="4.74386">
        <ele>438.776</ele>
        <time>2018-02-02T09:09:21Z</time>
      </trkpt>
      <trkpt lat="45.55107" lon="4.74386">
        <ele>438.98212</ele>
        <time>2018-02-02T09:09:22Z</time>
      </trkpt>
      <trkpt lat="45.55106" lon="4.74386">
        <ele>438.81036</ele>
        <time>2018-02-02T09:09:23Z</time>
      </trkpt>
      <trkpt lat="45.55095" lon="4.74386">
        <ele>440.24246</ele>
        <time>2018-02-02T09:09:33Z</time>
      </trkpt>
      <trkpt lat="45.55095" lon="4.74386">
        <ele>440.24246</ele>
        <time>2018-02-02T09:09:33Z</time>
      </trkpt>
      <trkpt lat="45.55084" lon="4.74384">
        <ele>442.56766</ele>
        <time>2018-02-02T09:09:46Z</time>
      </trkpt>
      <trkpt lat="45.55084" lon="4.74384">
        <ele>442.56766</ele>
        <time>2018-02-02T09:09:46Z</time>
      </trkpt>
      <trkpt lat="45.55073" lon="4.74384">
        <ele>443.4713</ele>
        <time>2018-02-02T09:09:53Z</time>
      </trkpt>
      <trkpt lat="45.55069" lon="4.74384">
        <ele>443.65366</ele>
        <time>2018-02-02T09:09:55Z</time>
      </trkpt>
      <trkpt lat="45.55069" lon="4.74384">
        <ele>443.65366</ele>
        <time>2018-02-02T09:09:55Z</time>
      </trkpt>
      <trkpt lat="45.55057" lon="4.7438">
        <ele>445.84674</ele>
        <time>2018-02-02T09:10:07Z</time>
      </trkpt>
      <trkpt lat="45.55057" lon="4.7438">
        <ele>445.84674</ele>
        <time>2018-02-02T09:10:07Z</time>
      </trkpt>
      <trkpt lat="45.55048" lon="4.74374">
        <ele>446.8693</ele>
        <time>2018-02-02T09:10:20Z</time>
      </trkpt>
      <trkpt lat="45.55048" lon="4.74374">
        <ele>446.8693</ele>
        <time>2018-02-02T09:10:20Z</time>
      </trkpt>
      <trkpt lat="45.55039" lon="4.74374">
        <ele>448.3463</ele>
        <time>2018-02-02T09:10:27Z</time>
      </trkpt>
      <trkpt lat="45.55039" lon="4.74374">
        <ele>448.31198</ele>
        <time>2018-02-02T09:10:28Z</time>
      </trkpt>
      <trkpt lat="45.55029" lon="4.74376">
        <ele>451.97946</ele>
        <time>2018-02-02T09:10:49Z</time>
      </trkpt>
      <trkpt lat="45.55028" lon="4.74376">
        <ele>452.1961</ele>
        <time>2018-02-02T09:10:50Z</time>
      </trkpt>
      <trkpt lat="45.55027" lon="4.74376">
        <ele>452.33087</ele>
        <time>2018-02-02T09:10:51Z</time>
      </trkpt>
      <trkpt lat="45.55027" lon="4.74374">
        <ele>452.30444</ele>
        <time>2018-02-02T09:10:52Z</time>
      </trkpt>
      <trkpt lat="45.55017" lon="4.74376">
        <ele>454.39447</ele>
        <time>2018-02-02T09:11:03Z</time>
      </trkpt>
      <trkpt lat="45.55017" lon="4.74376">
        <ele>454.302</ele>
        <time>2018-02-02T09:11:04Z</time>
      </trkpt>
      <trkpt lat="45.55007" lon="4.74379">
        <ele>455.31665</ele>
        <time>2018-02-02T09:11:09Z</time>
      </trkpt>
      <trkpt lat="45.55006" lon="4.74378">
        <ele>455.36948</ele>
        <time>2018-02-02T09:11:10Z</time>
      </trkpt>
      <trkpt lat="45.55006" lon="4.74378">
        <ele>455.76584</ele>
        <time>2018-02-02T09:11:11Z</time>
      </trkpt>
      <trkpt lat="45.55006" lon="4.74378">
        <ele>456.1384</ele>
        <time>2018-02-02T09:11:12Z</time>
      </trkpt>
      <trkpt lat="45.55006" lon="4.74379">
        <ele>456.3894</ele>
        <time>2018-02-02T09:11:13Z</time>
      </trkpt>
      <trkpt lat="45.55005" lon="4.74378">
        <ele>456.55322</ele>
        <time>2018-02-02T09:11:14Z</time>
      </trkpt>
      <trkpt lat="45.55005" lon="4.74378">
        <ele>456.8386</ele>
        <time>2018-02-02T09:11:16Z</time>
      </trkpt>
      <trkpt lat="45.55005" lon="4.74378">
        <ele>456.8386</ele>
        <time>2018-02-02T09:11:16Z</time>
      </trkpt>
      <trkpt lat="45.54993" lon="4.74372">
        <ele>459.5258</ele>
        <time>2018-02-02T09:11:30Z</time>
      </trkpt>
      <trkpt lat="45.54993" lon="4.74372">
        <ele>459.29062</ele>
        <time>2018-02-02T09:11:31Z</time>
      </trkpt>
      <trkpt lat="45.54982" lon="4.74371">
        <ele>462.01746</ele>
        <time>2018-02-02T09:11:42Z</time>
      </trkpt>
      <trkpt lat="45.54982" lon="4.74371">
        <ele>462.03067</ele>
        <time>2018-02-02T09:11:43Z</time>
      </trkpt>
      <trkpt lat="45.54981" lon="4.74372">
        <ele>462.46133</ele>
        <time>2018-02-02T09:11:44Z</time>
      </trkpt>
      <trkpt lat="45.5498" lon="4.74373">
        <ele>462.42963</ele>
        <time>2018-02-02T09:11:45Z</time>
      </trkpt>
      <trkpt lat="45.5497" lon="4.74376">
        <ele>463.60544</ele>
        <time>2018-02-02T09:11:52Z</time>
      </trkpt>
      <trkpt lat="45.54969" lon="4.74376">
        <ele>464.02823</ele>
        <time>2018-02-02T09:11:53Z</time>
      </trkpt>
      <trkpt lat="45.54969" lon="4.74376">
        <ele>464.34793</ele>
        <time>2018-02-02T09:11:54Z</time>
      </trkpt>
      <trkpt lat="45.54968" lon="4.74377">
        <ele>464.34793</ele>
        <time>2018-02-02T09:11:55Z</time>
      </trkpt>
      <trkpt lat="45.54959" lon="4.74383">
        <ele>467.54245</ele>
        <time>2018-02-02T09:12:10Z</time>
      </trkpt>
      <trkpt lat="45.54958" lon="4.74383">
        <ele>467.7961</ele>
        <time>2018-02-02T09:12:11Z</time>
      </trkpt>
      <trkpt lat="45.54955" lon="4.74384">
        <ele>467.8516</ele>
        <time>2018-02-02T09:12:12Z</time>
      </trkpt>
      <trkpt lat="45.54953" lon="4.74385">
        <ele>468.11053</ele>
        <time>2018-02-02T09:12:13Z</time>
      </trkpt>
      <trkpt lat="45.54952" lon="4.74388">
        <ele>468.70505</ele>
        <time>2018-02-02T09:12:15Z</time>
      </trkpt>
      <trkpt lat="45.54952" lon="4.74388">
        <ele>468.70505</ele>
        <time>2018-02-02T09:12:15Z</time>
      </trkpt>
      <trkpt lat="45.54943" lon="4.74389">
        <ele>471.95767</ele>
        <time>2018-02-02T09:12:31Z</time>
      </trkpt>
      <trkpt lat="45.54942" lon="4.7439">
        <ele>472.37253</ele>
        <time>2018-02-02T09:12:32Z</time>
      </trkpt>
      <trkpt lat="45.54941" lon="4.7439">
        <ele>472.43594</ele>
        <time>2018-02-02T09:12:33Z</time>
      </trkpt>
      <trkpt lat="45.54938" lon="4.7439">
        <ele>472.87192</ele>
        <time>2018-02-02T09:12:35Z</time>
      </trkpt>
      <trkpt lat="45.54938" lon="4.7439">
        <ele>472.87192</ele>
        <time>2018-02-02T09:12:35Z</time>
      </trkpt>
      <trkpt lat="45.54927" lon="4.74388">
        <ele>473.64346</ele>
        <time>2018-02-02T09:12:40Z</time>
      </trkpt>
      <trkpt lat="45.54925" lon="4.74387">
        <ele>473.59854</ele>
        <time>2018-02-02T09:12:41Z</time>
      </trkpt>
      <trkpt lat="45.54916" lon="4.74383">
        <ele>474.41235</ele>
        <time>2018-02-02T09:12:45Z</time>
      </trkpt>
      <trkpt lat="45.54915" lon="4.74382">
        <ele>474.8351</ele>
        <time>2018-02-02T09:12:46Z</time>
      </trkpt>
      <trkpt lat="45.54915" lon="4.74382">
        <ele>474.8351</ele>
        <time>2018-02-02T09:12:46Z</time>
      </trkpt>
      <trkpt lat="45.54905" lon="4.74377">
        <ele>476.2144</ele>
        <time>2018-02-02T09:12:52Z</time>
      </trkpt>
      <trkpt lat="45.54903" lon="4.74377">
        <ele>476.41785</ele>
        <time>2018-02-02T09:12:53Z</time>
      </trkpt>
      <trkpt lat="45.54902" lon="4.74376">
        <ele>476.54996</ele>
        <time>2018-02-02T09:12:54Z</time>
      </trkpt>
      <trkpt lat="45.54902" lon="4.74375">
        <ele>476.81418</ele>
        <time>2018-02-02T09:12:56Z</time>
      </trkpt>
      <trkpt lat="45.549" lon="4.74375">
        <ele>477.36377</ele>
        <time>2018-02-02T09:12:57Z</time>
      </trkpt>
      <trkpt lat="45.54899" lon="4.74376">
        <ele>477.55667</ele>
        <time>2018-02-02T09:12:58Z</time>
      </trkpt>
      <trkpt lat="45.54899" lon="4.74375">
        <ele>477.35583</ele>
        <time>2018-02-02T09:12:59Z</time>
      </trkpt>
      <trkpt lat="45.54889" lon="4.74376">
        <ele>480.0087</ele>
        <time>2018-02-02T09:13:13Z</time>
      </trkpt>
      <trkpt lat="45.54888" lon="4.74376">
        <ele>480.22534</ele>
        <time>2018-02-02T09:13:14Z</time>
      </trkpt>
      <trkpt lat="45.54888" lon="4.74377">
        <ele>480.3892</ele>
        <time>2018-02-02T09:13:15Z</time>
      </trkpt>
      <trkpt lat="45.54887" lon="4.74378">
        <ele>480.5583</ele>
        <time>2018-02-02T09:13:16Z</time>
      </trkpt>
      <trkpt lat="45.54886" lon="4.74378">
        <ele>480.77493</ele>
        <time>2018-02-02T09:13:17Z</time>
      </trkpt>
      <trkpt lat="45.54885" lon="4.74378">
        <ele>480.9784</ele>
        <time>2018-02-02T09:13:18Z</time>
      </trkpt>
      <trkpt lat="45.54883" lon="4.74378">
        <ele>481.17923</ele>
        <time>2018-02-02T09:13:20Z</time>
      </trkpt>
      <trkpt lat="45.54882" lon="4.74378">
        <ele>481.6469</ele>
        <time>2018-02-02T09:13:21Z</time>
      </trkpt>
      <trkpt lat="45.54882" lon="4.74378">
        <ele>481.6469</ele>
        <time>2018-02-02T09:13:21Z</time>
      </trkpt>
      <trkpt lat="45.54873" lon="4.74375">
        <ele>482.64038</ele>
        <time>2018-02-02T09:13:31Z</time>
      </trkpt>
      <trkpt lat="45.54874" lon="4.74376">
        <ele>482.70645</ele>
        <time>2018-02-02T09:13:32Z</time>
      </trkpt>
      <trkpt lat="45.54874" lon="4.74376">
        <ele>482.70645</ele>
        <time>2018-02-02T09:13:32Z</time>
      </trkpt>
      <trkpt lat="45.54862" lon="4.74377">
        <ele>483.79507</ele>
        <time>2018-02-02T09:13:40Z</time>
      </trkpt>
      <trkpt lat="45.54862" lon="4.74377">
        <ele>483.79507</ele>
        <time>2018-02-02T09:13:40Z</time>
      </trkpt>
      <trkpt lat="45.54852" lon="4.74377">
        <ele>485.2404</ele>
        <time>2018-02-02T09:13:53Z</time>
      </trkpt>
      <trkpt lat="45.5485" lon="4.74378">
        <ele>485.16376</ele>
        <time>2018-02-02T09:13:54Z</time>
      </trkpt>
      <trkpt lat="45.54841" lon="4.74377">
        <ele>487.7532</ele>
        <time>2018-02-02T09:14:11Z</time>
      </trkpt>
      <trkpt lat="45.5484" lon="4.74377">
        <ele>488.21558</ele>
        <time>2018-02-02T09:14:12Z</time>
      </trkpt>
      <trkpt lat="45.5484" lon="4.74377">
        <ele>488.21558</ele>
        <time>2018-02-02T09:14:12Z</time>
      </trkpt>
      <trkpt lat="45.54831" lon="4.7438">
        <ele>489.42575</ele>
        <time>2018-02-02T09:14:23Z</time>
      </trkpt>
      <trkpt lat="45.54831" lon="4.7438">
        <ele>489.42575</ele>
        <time>2018-02-02T09:14:23Z</time>
      </trkpt>
      <trkpt lat="45.54821" lon="4.7438">
        <ele>490.23694</ele>
        <time>2018-02-02T09:14:28Z</time>
      </trkpt>
      <trkpt lat="45.54821" lon="4.7438">
        <ele>490.22107</ele>
        <time>2018-02-02T09:14:29Z</time>
      </trkpt>
      <trkpt lat="45.54809" lon="4.7438">
        <ele>490.77332</ele>
        <time>2018-02-02T09:14:34Z</time>
      </trkpt>
      <trkpt lat="45.54805" lon="4.74381">
        <ele>491.01376</ele>
        <time>2018-02-02T09:14:35Z</time>
      </trkpt>
      <trkpt lat="45.54803" lon="4.74381">
        <ele>491.15115</ele>
        <time>2018-02-02T09:14:36Z</time>
      </trkpt>
      <trkpt lat="45.54802" lon="4.74382">
        <ele>490.67026</ele>
        <time>2018-02-02T09:14:37Z</time>
      </trkpt>
      <trkpt lat="45.54792" lon="4.74381">
        <ele>491.44708</ele>
        <time>2018-02-02T09:14:45Z</time>
      </trkpt>
      <trkpt lat="45.54792" lon="4.7438">
        <ele>491.61884</ele>
        <time>2018-02-02T09:14:46Z</time>
      </trkpt>
      <trkpt lat="45.5479" lon="4.74381">
        <ele>491.71924</ele>
        <time>2018-02-02T09:14:47Z</time>
      </trkpt>
      <trkpt lat="45.54787" lon="4.74382">
        <ele>491.75888</ele>
        <time>2018-02-02T09:14:48Z</time>
      </trkpt>
      <trkpt lat="45.54784" lon="4.74381">
        <ele>491.8857</ele>
        <time>2018-02-02T09:14:49Z</time>
      </trkpt>
      <trkpt lat="45.54782" lon="4.74381">
        <ele>492.0548</ele>
        <time>2018-02-02T09:14:50Z</time>
      </trkpt>
      <trkpt lat="45.5478" lon="4.74381">
        <ele>492.06802</ele>
        <time>2018-02-02T09:14:51Z</time>
      </trkpt>
      <trkpt lat="45.54779" lon="4.74382">
        <ele>491.9095</ele>
        <time>2018-02-02T09:14:52Z</time>
      </trkpt>
      <trkpt lat="45.5476" lon="4.74386">
        <ele>493.32312</ele>
        <time>2018-02-02T09:15:06Z</time>
      </trkpt>
      <trkpt lat="45.54756" lon="4.74385">
        <ele>494.46722</ele>
        <time>2018-02-02T09:15:16Z</time>
      </trkpt>
      <trkpt lat="45.54755" lon="4.74386">
        <ele>494.56497</ele>
        <time>2018-02-02T09:15:17Z</time>
      </trkpt>
      <trkpt lat="45.54754" lon="4.74387">
        <ele>494.7605</ele>
        <time>2018-02-02T09:15:18Z</time>
      </trkpt>
      <trkpt lat="45.54751" lon="4.74387">
        <ele>494.46985</ele>
        <time>2018-02-02T09:15:19Z</time>
      </trkpt>
      <trkpt lat="45.54742" lon="4.74387">
        <ele>495.07758</ele>
        <time>2018-02-02T09:15:25Z</time>
      </trkpt>
      <trkpt lat="45.5474" lon="4.74386">
        <ele>494.5729</ele>
        <time>2018-02-02T09:15:26Z</time>
      </trkpt>
      <trkpt lat="45.54727" lon="4.74387">
        <ele>494.6733</ele>
        <time>2018-02-02T09:15:28Z</time>
      </trkpt>
      <trkpt lat="45.54717" lon="4.74386">
        <ele>494.9798</ele>
        <time>2018-02-02T09:15:32Z</time>
      </trkpt>
      <trkpt lat="45.54708" lon="4.74374">
        <ele>495.24667</ele>
        <time>2018-02-02T09:15:45Z</time>
      </trkpt>
      <trkpt lat="45.54707" lon="4.74374">
        <ele>495.47128</ele>
        <time>2018-02-02T09:15:46Z</time>
      </trkpt>
      <trkpt lat="45.54706" lon="4.74373">
        <ele>494.90582</ele>
        <time>2018-02-02T09:15:47Z</time>
      </trkpt>
      <trkpt lat="45.54702" lon="4.74361">
        <ele>494.17657</ele>
        <time>2018-02-02T09:15:56Z</time>
      </trkpt>
      <trkpt lat="45.54701" lon="4.74348">
        <ele>494.29547</ele>
        <time>2018-02-02T09:16:03Z</time>
      </trkpt>
      <trkpt lat="45.54693" lon="4.74335">
        <ele>493.80136</ele>
        <time>2018-02-02T09:16:12Z</time>
      </trkpt>
      <trkpt lat="45.54687" lon="4.74326">
        <ele>494.58347</ele>
        <time>2018-02-02T09:16:19Z</time>
      </trkpt>
      <trkpt lat="45.54683" lon="4.74314">
        <ele>493.7274</ele>
        <time>2018-02-02T09:16:26Z</time>
      </trkpt>
      <trkpt lat="45.54679" lon="4.74301">
        <ele>493.04037</ele>
        <time>2018-02-02T09:16:32Z</time>
      </trkpt>
      <trkpt lat="45.54676" lon="4.74287">
        <ele>493.52655</ele>
        <time>2018-02-02T09:16:39Z</time>
      </trkpt>
      <trkpt lat="45.5467" lon="4.74276">
        <ele>492.44852</ele>
        <time>2018-02-02T09:16:51Z</time>
      </trkpt>
      <trkpt lat="45.54671" lon="4.74262">
        <ele>492.75238</ele>
        <time>2018-02-02T09:16:55Z</time>
      </trkpt>
      <trkpt lat="45.54662" lon="4.74259">
        <ele>493.3786</ele>
        <time>2018-02-02T09:17:07Z</time>
      </trkpt>
      <trkpt lat="45.54652" lon="4.74261">
        <ele>493.2359</ele>
        <time>2018-02-02T09:17:12Z</time>
      </trkpt>
      <trkpt lat="45.54644" lon="4.74253">
        <ele>493.6164</ele>
        <time>2018-02-02T09:17:18Z</time>
      </trkpt>
      <trkpt lat="45.54636" lon="4.74247">
        <ele>494.47778</ele>
        <time>2018-02-02T09:17:24Z</time>
      </trkpt>
      <trkpt lat="45.54628" lon="4.74239">
        <ele>495.03793</ele>
        <time>2018-02-02T09:17:33Z</time>
      </trkpt>
      <trkpt lat="45.54619" lon="4.74238">
        <ele>495.41843</ele>
        <time>2018-02-02T09:17:39Z</time>
      </trkpt>
      <trkpt lat="45.54619" lon="4.74237">
        <ele>495.18063</ele>
        <time>2018-02-02T09:17:40Z</time>
      </trkpt>
      <trkpt lat="45.54614" lon="4.74226">
        <ele>495.70645</ele>
        <time>2018-02-02T09:17:43Z</time>
      </trkpt>
      <trkpt lat="45.54612" lon="4.74226">
        <ele>495.77515</ele>
        <time>2018-02-02T09:17:44Z</time>
      </trkpt>
      <trkpt lat="45.54607" lon="4.74226">
        <ele>495.71173</ele>
        <time>2018-02-02T09:17:45Z</time>
      </trkpt>
      <trkpt lat="45.546" lon="4.74218">
        <ele>496.16354</ele>
        <time>2018-02-02T09:17:53Z</time>
      </trkpt>
      <trkpt lat="45.546" lon="4.74218">
        <ele>496.16354</ele>
        <time>2018-02-02T09:17:53Z</time>
      </trkpt>
      <trkpt lat="45.54593" lon="4.74205">
        <ele>496.11334</ele>
        <time>2018-02-02T09:18:01Z</time>
      </trkpt>
      <trkpt lat="45.54593" lon="4.74204">
        <ele>496.15298</ele>
        <time>2018-02-02T09:18:02Z</time>
      </trkpt>
      <trkpt lat="45.54588" lon="4.74193">
        <ele>495.8042</ele>
        <time>2018-02-02T09:18:10Z</time>
      </trkpt>
      <trkpt lat="45.54582" lon="4.7418">
        <ele>495.9469</ele>
        <time>2018-02-02T09:18:17Z</time>
      </trkpt>
      <trkpt lat="45.54574" lon="4.74171">
        <ele>496.50705</ele>
        <time>2018-02-02T09:18:26Z</time>
      </trkpt>
      <trkpt lat="45.54572" lon="4.74167">
        <ele>496.67352</ele>
        <time>2018-02-02T09:18:27Z</time>
      </trkpt>
      <trkpt lat="45.54564" lon="4.74158">
        <ele>496.7845</ele>
        <time>2018-02-02T09:18:35Z</time>
      </trkpt>
      <trkpt lat="45.54563" lon="4.74157">
        <ele>496.52026</ele>
        <time>2018-02-02T09:18:36Z</time>
      </trkpt>
      <trkpt lat="45.54556" lon="4.74143">
        <ele>496.54932</ele>
        <time>2018-02-02T09:18:44Z</time>
      </trkpt>
      <trkpt lat="45.54552" lon="4.74128">
        <ele>495.93103</ele>
        <time>2018-02-02T09:18:53Z</time>
      </trkpt>
      <trkpt lat="45.54547" lon="4.74115">
        <ele>495.06174</ele>
        <time>2018-02-02T09:19:01Z</time>
      </trkpt>
      <trkpt lat="45.54539" lon="4.74104">
        <ele>494.6601</ele>
        <time>2018-02-02T09:19:09Z</time>
      </trkpt>
      <trkpt lat="45.54537" lon="4.74086">
        <ele>494.33508</ele>
        <time>2018-02-02T09:19:14Z</time>
      </trkpt>
      <trkpt lat="45.54531" lon="4.74076">
        <ele>493.9467</ele>
        <time>2018-02-02T09:19:22Z</time>
      </trkpt>
      <trkpt lat="45.54525" lon="4.74065">
        <ele>493.06418</ele>
        <time>2018-02-02T09:19:30Z</time>
      </trkpt>
      <trkpt lat="45.54517" lon="4.74057">
        <ele>492.17108</ele>
        <time>2018-02-02T09:19:39Z</time>
      </trkpt>
      <trkpt lat="45.54512" lon="4.74046">
        <ele>491.60562</ele>
        <time>2018-02-02T09:19:45Z</time>
      </trkpt>
      <trkpt lat="45.54507" lon="4.74031">
        <ele>491.03754</ele>
        <time>2018-02-02T09:19:51Z</time>
      </trkpt>
      <trkpt lat="45.54502" lon="4.7402">
        <ele>491.1036</ele>
        <time>2018-02-02T09:19:58Z</time>
      </trkpt>
      <trkpt lat="45.54496" lon="4.74009">
        <ele>490.59628</ele>
        <time>2018-02-02T09:20:06Z</time>
      </trkpt>
      <trkpt lat="45.5449" lon="4.73997">
        <ele>490.1973</ele>
        <time>2018-02-02T09:20:13Z</time>
      </trkpt>
      <trkpt lat="45.54486" lon="4.73985">
        <ele>489.9357</ele>
        <time>2018-02-02T09:20:18Z</time>
      </trkpt>
      <trkpt lat="45.5448" lon="4.73972">
        <ele>489.53937</ele>
        <time>2018-02-02T09:20:25Z</time>
      </trkpt>
      <trkpt lat="45.54476" lon="4.73958">
        <ele>489.4654</ele>
        <time>2018-02-02T09:20:31Z</time>
      </trkpt>
      <trkpt lat="45.54472" lon="4.73946">
        <ele>489.17737</ele>
        <time>2018-02-02T09:20:38Z</time>
      </trkpt>
      <trkpt lat="45.54468" lon="4.73931">
        <ele>489.1853</ele>
        <time>2018-02-02T09:20:45Z</time>
      </trkpt>
      <trkpt lat="45.54464" lon="4.73917">
        <ele>488.69647</ele>
        <time>2018-02-02T09:20:51Z</time>
      </trkpt>
      <trkpt lat="45.54459" lon="4.73905">
        <ele>488.59344</ele>
        <time>2018-02-02T09:20:57Z</time>
      </trkpt>
      <trkpt lat="45.54455" lon="4.73893">
        <ele>488.48245</ele>
        <time>2018-02-02T09:21:04Z</time>
      </trkpt>
      <trkpt lat="45.54451" lon="4.73879">
        <ele>487.67392</ele>
        <time>2018-02-02T09:21:12Z</time>
      </trkpt>
      <trkpt lat="45.54447" lon="4.73866">
        <ele>487.31458</ele>
        <time>2018-02-02T09:21:18Z</time>
      </trkpt>
      <trkpt lat="45.54445" lon="4.73853">
        <ele>486.86273</ele>
        <time>2018-02-02T09:21:23Z</time>
      </trkpt>
      <trkpt lat="45.54442" lon="4.73841">
        <ele>486.35278</ele>
        <time>2018-02-02T09:21:29Z</time>
      </trkpt>
      <trkpt lat="45.54437" lon="4.73829">
        <ele>485.56012</ele>
        <time>2018-02-02T09:21:36Z</time>
      </trkpt>
      <trkpt lat="45.54435" lon="4.73816">
        <ele>484.57452</ele>
        <time>2018-02-02T09:21:42Z</time>
      </trkpt>
      <trkpt lat="45.54433" lon="4.73802">
        <ele>484.39487</ele>
        <time>2018-02-02T09:21:47Z</time>
      </trkpt>
      <trkpt lat="45.5443" lon="4.73789">
        <ele>483.18997</ele>
        <time>2018-02-02T09:21:53Z</time>
      </trkpt>
      <trkpt lat="45.54427" lon="4.73777">
        <ele>482.83063</ele>
        <time>2018-02-02T09:22:00Z</time>
      </trkpt>
      <trkpt lat="45.54422" lon="4.7376">
        <ele>481.54385</ele>
        <time>2018-02-02T09:22:08Z</time>
      </trkpt>
      <trkpt lat="45.54419" lon="4.73748">
        <ele>481.03125</ele>
        <time>2018-02-02T09:22:14Z</time>
      </trkpt>
      <trkpt lat="45.54417" lon="4.73734">
        <ele>480.71683</ele>
        <time>2018-02-02T09:22:20Z</time>
      </trkpt>
      <trkpt lat="45.54414" lon="4.73722">
        <ele>480.25177</ele>
        <time>2018-02-02T09:22:26Z</time>
      </trkpt>
      <trkpt lat="45.54412" lon="4.73708">
        <ele>479.74976</ele>
        <time>2018-02-02T09:22:32Z</time>
      </trkpt>
      <trkpt lat="45.54407" lon="4.73697">
        <ele>479.24506</ele>
        <time>2018-02-02T09:22:38Z</time>
      </trkpt>
      <trkpt lat="45.544" lon="4.73687">
        <ele>478.7853</ele>
        <time>2018-02-02T09:22:45Z</time>
      </trkpt>
      <trkpt lat="45.5439" lon="4.73679">
        <ele>478.6215</ele>
        <time>2018-02-02T09:22:53Z</time>
      </trkpt>
      <trkpt lat="45.5438" lon="4.73675">
        <ele>478.61093</ele>
        <time>2018-02-02T09:23:00Z</time>
      </trkpt>
      <trkpt lat="45.5437" lon="4.73675">
        <ele>478.24893</ele>
        <time>2018-02-02T09:23:07Z</time>
      </trkpt>
      <trkpt lat="45.54361" lon="4.73678">
        <ele>477.80768</ele>
        <time>2018-02-02T09:23:14Z</time>
      </trkpt>
      <trkpt lat="45.54352" lon="4.73684">
        <ele>477.19202</ele>
        <time>2018-02-02T09:23:20Z</time>
      </trkpt>
      <trkpt lat="45.54343" lon="4.73689">
        <ele>476.77454</ele>
        <time>2018-02-02T09:23:26Z</time>
      </trkpt>
      <trkpt lat="45.54335" lon="4.73694">
        <ele>476.5896</ele>
        <time>2018-02-02T09:23:32Z</time>
      </trkpt>
      <trkpt lat="45.54327" lon="4.737">
        <ele>476.4099</ele>
        <time>2018-02-02T09:23:38Z</time>
      </trkpt>
      <trkpt lat="45.54318" lon="4.73706">
        <ele>475.92902</ele>
        <time>2018-02-02T09:23:46Z</time>
      </trkpt>
      <trkpt lat="45.5431" lon="4.73711">
        <ele>476.01093</ele>
        <time>2018-02-02T09:23:52Z</time>
      </trkpt>
      <trkpt lat="45.543" lon="4.73716">
        <ele>475.65424</ele>
        <time>2018-02-02T09:23:58Z</time>
      </trkpt>
      <trkpt lat="45.5429" lon="4.73722">
        <ele>475.2526</ele>
        <time>2018-02-02T09:24:06Z</time>
      </trkpt>
      <trkpt lat="45.54282" lon="4.73727">
        <ele>474.86948</ele>
        <time>2018-02-02T09:24:12Z</time>
      </trkpt>
      <trkpt lat="45.54272" lon="4.73733">
        <ele>475.19974</ele>
        <time>2018-02-02T09:24:19Z</time>
      </trkpt>
      <trkpt lat="45.54262" lon="4.73737">
        <ele>474.452</ele>
        <time>2018-02-02T09:24:25Z</time>
      </trkpt>
      <trkpt lat="45.54253" lon="4.73743">
        <ele>474.2723</ele>
        <time>2018-02-02T09:24:31Z</time>
      </trkpt>
      <trkpt lat="45.54245" lon="4.73748">
        <ele>473.81784</ele>
        <time>2018-02-02T09:24:37Z</time>
      </trkpt>
      <trkpt lat="45.54234" lon="4.73754">
        <ele>473.11765</ele>
        <time>2018-02-02T09:24:45Z</time>
      </trkpt>
      <trkpt lat="45.54226" lon="4.7376">
        <ele>473.0463</ele>
        <time>2018-02-02T09:24:52Z</time>
      </trkpt>
      <trkpt lat="45.54216" lon="4.73766">
        <ele>472.62088</ele>
        <time>2018-02-02T09:25:00Z</time>
      </trkpt>
      <trkpt lat="45.54207" lon="4.73771">
        <ele>472.29852</ele>
        <time>2018-02-02T09:25:07Z</time>
      </trkpt>
      <trkpt lat="45.54199" lon="4.73777">
        <ele>472.27213</ele>
        <time>2018-02-02T09:25:14Z</time>
      </trkpt>
      <trkpt lat="45.5419" lon="4.73783">
        <ele>471.6459</ele>
        <time>2018-02-02T09:25:21Z</time>
      </trkpt>
      <trkpt lat="45.54182" lon="4.73788">
        <ele>471.3394</ele>
        <time>2018-02-02T09:25:28Z</time>
      </trkpt>
      <trkpt lat="45.54174" lon="4.73794">
        <ele>470.4965</ele>
        <time>2018-02-02T09:25:35Z</time>
      </trkpt>
      <trkpt lat="45.54163" lon="4.73799">
        <ele>469.68268</ele>
        <time>2018-02-02T09:25:44Z</time>
      </trkpt>
      <trkpt lat="45.54153" lon="4.73804">
        <ele>468.9032</ele>
        <time>2018-02-02T09:25:52Z</time>
      </trkpt>
      <trkpt lat="45.54144" lon="4.73809">
        <ele>468.2717</ele>
        <time>2018-02-02T09:25:59Z</time>
      </trkpt>
      <trkpt lat="45.54136" lon="4.73814">
        <ele>468.30078</ele>
        <time>2018-02-02T09:26:06Z</time>
      </trkpt>
      <trkpt lat="45.54127" lon="4.73819">
        <ele>467.7961</ele>
        <time>2018-02-02T09:26:13Z</time>
      </trkpt>
      <trkpt lat="45.54118" lon="4.73823">
        <ele>466.99286</ele>
        <time>2018-02-02T09:26:20Z</time>
      </trkpt>
      <trkpt lat="45.54107" lon="4.73829">
        <ele>465.85138</ele>
        <time>2018-02-02T09:26:28Z</time>
      </trkpt>
      <trkpt lat="45.54097" lon="4.73832">
        <ele>464.70728</ele>
        <time>2018-02-02T09:26:36Z</time>
      </trkpt>
      <trkpt lat="45.54088" lon="4.73835">
        <ele>463.59225</ele>
        <time>2018-02-02T09:26:43Z</time>
      </trkpt>
      <trkpt lat="45.54079" lon="4.73837">
        <ele>462.71237</ele>
        <time>2018-02-02T09:26:56Z</time>
      </trkpt>
      <trkpt lat="45.5407" lon="4.73837">
        <ele>461.31723</ele>
        <time>2018-02-02T09:27:05Z</time>
      </trkpt>
      <trkpt lat="45.54059" lon="4.73837">
        <ele>459.18494</ele>
        <time>2018-02-02T09:27:14Z</time>
      </trkpt>
      <trkpt lat="45.5405" lon="4.7383">
        <ele>457.9959</ele>
        <time>2018-02-02T09:27:23Z</time>
      </trkpt>
      <trkpt lat="45.54041" lon="4.73833">
        <ele>457.04733</ele>
        <time>2018-02-02T09:27:32Z</time>
      </trkpt>
      <trkpt lat="45.54032" lon="4.73842">
        <ele>456.5902</ele>
        <time>2018-02-02T09:27:40Z</time>
      </trkpt>
      <trkpt lat="45.54023" lon="4.73849">
        <ele>455.83716</ele>
        <time>2018-02-02T09:27:46Z</time>
      </trkpt>
      <trkpt lat="45.54013" lon="4.73851">
        <ele>455.09204</ele>
        <time>2018-02-02T09:27:54Z</time>
      </trkpt>
      <trkpt lat="45.54002" lon="4.73855">
        <ele>455.0445</ele>
        <time>2018-02-02T09:28:01Z</time>
      </trkpt>
      <trkpt lat="45.53993" lon="4.73862">
        <ele>453.401</ele>
        <time>2018-02-02T09:28:08Z</time>
      </trkpt>
      <trkpt lat="45.53984" lon="4.73863">
        <ele>452.40222</ele>
        <time>2018-02-02T09:28:16Z</time>
      </trkpt>
      <trkpt lat="45.53975" lon="4.73865">
        <ele>450.60547</ele>
        <time>2018-02-02T09:28:24Z</time>
      </trkpt>
      <trkpt lat="45.53965" lon="4.73869">
        <ele>449.3953</ele>
        <time>2018-02-02T09:28:31Z</time>
      </trkpt>
      <trkpt lat="45.53956" lon="4.73871">
        <ele>447.55627</ele>
        <time>2018-02-02T09:28:39Z</time>
      </trkpt>
      <trkpt lat="45.53946" lon="4.73873">
        <ele>446.04755</ele>
        <time>2018-02-02T09:28:46Z</time>
      </trkpt>
      <trkpt lat="45.53937" lon="4.73876">
        <ele>444.43048</ele>
        <time>2018-02-02T09:28:53Z</time>
      </trkpt>
      <trkpt lat="45.53927" lon="4.73876">
        <ele>442.2083</ele>
        <time>2018-02-02T09:29:01Z</time>
      </trkpt>
      <trkpt lat="45.53916" lon="4.73878">
        <ele>440.78412</ele>
        <time>2018-02-02T09:29:10Z</time>
      </trkpt>
      <trkpt lat="45.53907" lon="4.73879">
        <ele>438.7073</ele>
        <time>2018-02-02T09:29:18Z</time>
      </trkpt>
      <trkpt lat="45.53896" lon="4.73881">
        <ele>436.61197</ele>
        <time>2018-02-02T09:29:27Z</time>
      </trkpt>
      <trkpt lat="45.53886" lon="4.73882">
        <ele>435.2248</ele>
        <time>2018-02-02T09:29:34Z</time>
      </trkpt>
      <trkpt lat="45.53877" lon="4.73882">
        <ele>433.3197</ele>
        <time>2018-02-02T09:29:42Z</time>
      </trkpt>
      <trkpt lat="45.53867" lon="4.73887">
        <ele>431.85062</ele>
        <time>2018-02-02T09:29:50Z</time>
      </trkpt>
      <trkpt lat="45.53864" lon="4.739">
        <ele>430.7514</ele>
        <time>2018-02-02T09:29:57Z</time>
      </trkpt>
      <trkpt lat="45.53862" lon="4.73915">
        <ele>429.61523</ele>
        <time>2018-02-02T09:30:06Z</time>
      </trkpt>
      <trkpt lat="45.5386" lon="4.73929">
        <ele>429.00223</ele>
        <time>2018-02-02T09:30:14Z</time>
      </trkpt>
      <trkpt lat="45.53858" lon="4.73942">
        <ele>428.59268</ele>
        <time>2018-02-02T09:30:32Z</time>
      </trkpt>
      <trkpt lat="45.53858" lon="4.73943">
        <ele>428.46057</ele>
        <time>2018-02-02T09:30:36Z</time>
      </trkpt>
      <trkpt lat="45.53858" lon="4.73943">
        <ele>428.46057</ele>
        <time>2018-02-02T09:30:36Z</time>
      </trkpt>
      <trkpt lat="45.53861" lon="4.73958">
        <ele>426.95447</ele>
        <time>2018-02-02T09:31:46Z</time>
      </trkpt>
      <trkpt lat="45.53864" lon="4.73971">
        <ele>426.76422</ele>
        <time>2018-02-02T09:31:54Z</time>
      </trkpt>
      <trkpt lat="45.53866" lon="4.73983">
        <ele>426.77216</ele>
        <time>2018-02-02T09:32:00Z</time>
      </trkpt>
      <trkpt lat="45.53869" lon="4.73996">
        <ele>426.52377</ele>
        <time>2018-02-02T09:32:06Z</time>
      </trkpt>
      <trkpt lat="45.53871" lon="4.7401">
        <ele>426.3309</ele>
        <time>2018-02-02T09:32:14Z</time>
      </trkpt>
      <trkpt lat="45.5387" lon="4.74024">
        <ele>426.54227</ele>
        <time>2018-02-02T09:32:21Z</time>
      </trkpt>
      <trkpt lat="45.53865" lon="4.74035">
        <ele>426.9016</ele>
        <time>2018-02-02T09:32:27Z</time>
      </trkpt>
      <trkpt lat="45.53859" lon="4.74047">
        <ele>427.66525</ele>
        <time>2018-02-02T09:32:34Z</time>
      </trkpt>
      <trkpt lat="45.53853" lon="4.74058">
        <ele>428.01666</ele>
        <time>2018-02-02T09:32:41Z</time>
      </trkpt>
      <trkpt lat="45.53847" lon="4.74071">
        <ele>428.4368</ele>
        <time>2018-02-02T09:32:49Z</time>
      </trkpt>
      <trkpt lat="45.53842" lon="4.74082">
        <ele>428.738</ele>
        <time>2018-02-02T09:32:56Z</time>
      </trkpt>
      <trkpt lat="45.53837" lon="4.74093">
        <ele>429.44348</ele>
        <time>2018-02-02T09:33:02Z</time>
      </trkpt>
      <trkpt lat="45.53833" lon="4.74106">
        <ele>430.68536</ele>
        <time>2018-02-02T09:33:09Z</time>
      </trkpt>
      <trkpt lat="45.53829" lon="4.74119">
        <ele>431.47806</ele>
        <time>2018-02-02T09:33:17Z</time>
      </trkpt>
      <trkpt lat="45.53825" lon="4.74131">
        <ele>432.31564</ele>
        <time>2018-02-02T09:33:24Z</time>
      </trkpt>
      <trkpt lat="45.53822" lon="4.74145">
        <ele>433.89572</ele>
        <time>2018-02-02T09:33:32Z</time>
      </trkpt>
      <trkpt lat="45.5382" lon="4.74158">
        <ele>434.80994</ele>
        <time>2018-02-02T09:33:39Z</time>
      </trkpt>
      <trkpt lat="45.53818" lon="4.74174">
        <ele>436.44553</ele>
        <time>2018-02-02T09:33:49Z</time>
      </trkpt>
      <trkpt lat="45.53816" lon="4.74188">
        <ele>437.8882</ele>
        <time>2018-02-02T09:33:57Z</time>
      </trkpt>
      <trkpt lat="45.53814" lon="4.74201">
        <ele>438.4563</ele>
        <time>2018-02-02T09:34:04Z</time>
      </trkpt>
      <trkpt lat="45.53814" lon="4.74214">
        <ele>439.77478</ele>
        <time>2018-02-02T09:34:11Z</time>
      </trkpt>
      <trkpt lat="45.53811" lon="4.74227">
        <ele>440.57803</ele>
        <time>2018-02-02T09:34:19Z</time>
      </trkpt>
      <trkpt lat="45.53806" lon="4.74239">
        <ele>441.60587</ele>
        <time>2018-02-02T09:34:27Z</time>
      </trkpt>
      <trkpt lat="45.53801" lon="4.74251">
        <ele>441.76706</ele>
        <time>2018-02-02T09:34:35Z</time>
      </trkpt>
      <trkpt lat="45.53795" lon="4.74263">
        <ele>442.18982</ele>
        <time>2018-02-02T09:34:44Z</time>
      </trkpt>
      <trkpt lat="45.53789" lon="4.74273">
        <ele>443.08026</ele>
        <time>2018-02-02T09:34:51Z</time>
      </trkpt>
      <trkpt lat="45.53782" lon="4.74284">
        <ele>443.3894</ele>
        <time>2018-02-02T09:34:59Z</time>
      </trkpt>
      <trkpt lat="45.53772" lon="4.7431">
        <ele>444.4886</ele>
        <time>2018-02-02T09:35:15Z</time>
      </trkpt>
      <trkpt lat="45.53766" lon="4.74323">
        <ele>446.74774</ele>
        <time>2018-02-02T09:35:24Z</time>
      </trkpt>
      <trkpt lat="45.53761" lon="4.74338">
        <ele>447.54572</ele>
        <time>2018-02-02T09:35:33Z</time>
      </trkpt>
      <trkpt lat="45.53755" lon="4.74349">
        <ele>447.6884</ele>
        <time>2018-02-02T09:35:41Z</time>
      </trkpt>
      <trkpt lat="45.53748" lon="4.7436">
        <ele>449.0254</ele>
        <time>2018-02-02T09:35:49Z</time>
      </trkpt>
      <trkpt lat="45.53743" lon="4.7437">
        <ele>449.18655</ele>
        <time>2018-02-02T09:35:56Z</time>
      </trkpt>
      <trkpt lat="45.53735" lon="4.74378">
        <ele>449.31076</ele>
        <time>2018-02-02T09:36:03Z</time>
      </trkpt>
      <trkpt lat="45.53727" lon="4.74386">
        <ele>450.09286</ele>
        <time>2018-02-02T09:36:10Z</time>
      </trkpt>
      <trkpt lat="45.53718" lon="4.74392">
        <ele>451.0335</ele>
        <time>2018-02-02T09:36:17Z</time>
      </trkpt>
      <trkpt lat="45.5371" lon="4.74398">
        <ele>450.34653</ele>
        <time>2018-02-02T09:36:24Z</time>
      </trkpt>
      <trkpt lat="45.53703" lon="4.74408">
        <ele>451.06787</ele>
        <time>2018-02-02T09:36:32Z</time>
      </trkpt>
      <trkpt lat="45.53694" lon="4.74417">
        <ele>451.72314</ele>
        <time>2018-02-02T09:36:40Z</time>
      </trkpt>
      <trkpt lat="45.53687" lon="4.74426">
        <ele>452.78534</ele>
        <time>2018-02-02T09:36:46Z</time>
      </trkpt>
      <trkpt lat="45.5368" lon="4.74434">
        <ele>454.42355</ele>
        <time>2018-02-02T09:36:55Z</time>
      </trkpt>
      <trkpt lat="45.53672" lon="4.74442">
        <ele>455.50952</ele>
        <time>2018-02-02T09:37:04Z</time>
      </trkpt>
      <trkpt lat="45.53665" lon="4.7445">
        <ele>455.61258</ele>
        <time>2018-02-02T09:37:13Z</time>
      </trkpt>
      <trkpt lat="45.53655" lon="4.74459">
        <ele>456.83066</ele>
        <time>2018-02-02T09:37:25Z</time>
      </trkpt>
      <trkpt lat="45.53648" lon="4.74468">
        <ele>457.22437</ele>
        <time>2018-02-02T09:37:33Z</time>
      </trkpt>
      <trkpt lat="45.5364" lon="4.74478">
        <ele>457.72903</ele>
        <time>2018-02-02T09:37:40Z</time>
      </trkpt>
      <trkpt lat="45.53635" lon="4.7449">
        <ele>458.89163</ele>
        <time>2018-02-02T09:37:47Z</time>
      </trkpt>
      <trkpt lat="45.5363" lon="4.74501">
        <ele>459.22455</ele>
        <time>2018-02-02T09:37:53Z</time>
      </trkpt>
      <trkpt lat="45.53624" lon="4.74511">
        <ele>459.66846</ele>
        <time>2018-02-02T09:38:01Z</time>
      </trkpt>
      <trkpt lat="45.53618" lon="4.7452">
        <ele>460.39246</ele>
        <time>2018-02-02T09:38:08Z</time>
      </trkpt>
      <trkpt lat="45.53611" lon="4.7453">
        <ele>461.31195</ele>
        <time>2018-02-02T09:38:16Z</time>
      </trkpt>
      <trkpt lat="45.53603" lon="4.74539">
        <ele>462.7282</ele>
        <time>2018-02-02T09:38:24Z</time>
      </trkpt>
      <trkpt lat="45.53596" lon="4.74547">
        <ele>464.19467</ele>
        <time>2018-02-02T09:38:32Z</time>
      </trkpt>
      <trkpt lat="45.53589" lon="4.74557">
        <ele>464.9345</ele>
        <time>2018-02-02T09:38:40Z</time>
      </trkpt>
      <trkpt lat="45.53582" lon="4.74566">
        <ele>465.56073</ele>
        <time>2018-02-02T09:38:48Z</time>
      </trkpt>
      <trkpt lat="45.53575" lon="4.74577">
        <ele>467.05627</ele>
        <time>2018-02-02T09:38:57Z</time>
      </trkpt>
      <trkpt lat="45.53568" lon="4.74587">
        <ele>468.89792</ele>
        <time>2018-02-02T09:39:07Z</time>
      </trkpt>
      <trkpt lat="45.53562" lon="4.74597">
        <ele>469.84122</ele>
        <time>2018-02-02T09:39:16Z</time>
      </trkpt>
      <trkpt lat="45.53555" lon="4.74606">
        <ele>471.0012</ele>
        <time>2018-02-02T09:39:25Z</time>
      </trkpt>
      <trkpt lat="45.53549" lon="4.74616">
        <ele>472.16907</ele>
        <time>2018-02-02T09:39:33Z</time>
      </trkpt>
      <trkpt lat="45.53543" lon="4.74626">
        <ele>474.02658</ele>
        <time>2018-02-02T09:39:41Z</time>
      </trkpt>
      <trkpt lat="45.53535" lon="4.74634">
        <ele>474.76907</ele>
        <time>2018-02-02T09:39:49Z</time>
      </trkpt>
      <trkpt lat="45.53525" lon="4.74632">
        <ele>475.59082</ele>
        <time>2018-02-02T09:39:57Z</time>
      </trkpt>
      <trkpt lat="45.53515" lon="4.74628">
        <ele>476.49448</ele>
        <time>2018-02-02T09:40:06Z</time>
      </trkpt>
      <trkpt lat="45.53505" lon="4.74624">
        <ele>477.09427</ele>
        <time>2018-02-02T09:40:15Z</time>
      </trkpt>
      <trkpt lat="45.53495" lon="4.74622">
        <ele>477.86316</ele>
        <time>2018-02-02T09:40:23Z</time>
      </trkpt>
      <trkpt lat="45.53486" lon="4.74619">
        <ele>477.98734</ele>
        <time>2018-02-02T09:40:34Z</time>
      </trkpt>
      <trkpt lat="45.53477" lon="4.74625">
        <ele>478.7536</ele>
        <time>2018-02-02T09:40:42Z</time>
      </trkpt>
      <trkpt lat="45.53471" lon="4.74636">
        <ele>480.0589</ele>
        <time>2018-02-02T09:40:54Z</time>
      </trkpt>
      <trkpt lat="45.53466" lon="4.7465">
        <ele>482.16742</ele>
        <time>2018-02-02T09:41:08Z</time>
      </trkpt>
      <trkpt lat="45.53464" lon="4.74662">
        <ele>483.24548</ele>
        <time>2018-02-02T09:41:14Z</time>
      </trkpt>
      <trkpt lat="45.53458" lon="4.74672">
        <ele>484.54813</ele>
        <time>2018-02-02T09:41:22Z</time>
      </trkpt>
      <trkpt lat="45.53449" lon="4.74677">
        <ele>486.27353</ele>
        <time>2018-02-02T09:41:34Z</time>
      </trkpt>
      <trkpt lat="45.53441" lon="4.74683">
        <ele>487.78754</ele>
        <time>2018-02-02T09:41:43Z</time>
      </trkpt>
      <trkpt lat="45.53433" lon="4.74693">
        <ele>489.5658</ele>
        <time>2018-02-02T09:41:53Z</time>
      </trkpt>
      <trkpt lat="45.53428" lon="4.74703">
        <ele>490.78125</ele>
        <time>2018-02-02T09:42:03Z</time>
      </trkpt>
      <trkpt lat="45.53423" lon="4.74714">
        <ele>493.368</ele>
        <time>2018-02-02T09:42:16Z</time>
      </trkpt>
      <trkpt lat="45.53418" lon="4.74725">
        <ele>495.39993</ele>
        <time>2018-02-02T09:42:28Z</time>
      </trkpt>
      <trkpt lat="45.5341" lon="4.74731">
        <ele>497.20724</ele>
        <time>2018-02-02T09:42:40Z</time>
      </trkpt>
      <trkpt lat="45.53409" lon="4.74733">
        <ele>497.53226</ele>
        <time>2018-02-02T09:42:41Z</time>
      </trkpt>
      <trkpt lat="45.53408" lon="4.74733">
        <ele>497.50055</ele>
        <time>2018-02-02T09:42:42Z</time>
      </trkpt>
      <trkpt lat="45.53403" lon="4.74745">
        <ele>499.55093</ele>
        <time>2018-02-02T09:42:54Z</time>
      </trkpt>
      <trkpt lat="45.53402" lon="4.74746">
        <ele>499.7861</ele>
        <time>2018-02-02T09:42:55Z</time>
      </trkpt>
      <trkpt lat="45.53401" lon="4.74747">
        <ele>500.04242</ele>
        <time>2018-02-02T09:42:56Z</time>
      </trkpt>
      <trkpt lat="45.534" lon="4.74748">
        <ele>500.18246</ele>
        <time>2018-02-02T09:42:57Z</time>
      </trkpt>
      <trkpt lat="45.53399" lon="4.74748">
        <ele>500.10052</ele>
        <time>2018-02-02T09:42:58Z</time>
      </trkpt>
      <trkpt lat="45.53395" lon="4.74761">
        <ele>502.59485</ele>
        <time>2018-02-02T09:43:10Z</time>
      </trkpt>
      <trkpt lat="45.53394" lon="4.74763">
        <ele>502.41254</ele>
        <time>2018-02-02T09:43:11Z</time>
      </trkpt>
      <trkpt lat="45.53389" lon="4.74775">
        <ele>504.99402</ele>
        <time>2018-02-02T09:43:23Z</time>
      </trkpt>
      <trkpt lat="45.53388" lon="4.74776">
        <ele>505.26355</ele>
        <time>2018-02-02T09:43:24Z</time>
      </trkpt>
      <trkpt lat="45.53388" lon="4.74777">
        <ele>505.4115</ele>
        <time>2018-02-02T09:43:25Z</time>
      </trkpt>
      <trkpt lat="45.53388" lon="4.74777">
        <ele>505.39566</ele>
        <time>2018-02-02T09:43:26Z</time>
      </trkpt>
      <trkpt lat="45.53384" lon="4.74789">
        <ele>506.2491</ele>
        <time>2018-02-02T09:43:34Z</time>
      </trkpt>
      <trkpt lat="45.53384" lon="4.7479">
        <ele>506.24384</ele>
        <time>2018-02-02T09:43:35Z</time>
      </trkpt>
      <trkpt lat="45.53379" lon="4.74804">
        <ele>508.35764</ele>
        <time>2018-02-02T09:43:46Z</time>
      </trkpt>
      <trkpt lat="45.53379" lon="4.74804">
        <ele>508.35764</ele>
        <time>2018-02-02T09:43:46Z</time>
      </trkpt>
      <trkpt lat="45.53373" lon="4.74814">
        <ele>509.77127</ele>
        <time>2018-02-02T09:43:55Z</time>
      </trkpt>
      <trkpt lat="45.53373" lon="4.74815">
        <ele>510.69604</ele>
        <time>2018-02-02T09:43:56Z</time>
      </trkpt>
      <trkpt lat="45.53372" lon="4.74818">
        <ele>510.87308</ele>
        <time>2018-02-02T09:43:58Z</time>
      </trkpt>
      <trkpt lat="45.53371" lon="4.7482">
        <ele>510.9814</ele>
        <time>2018-02-02T09:43:59Z</time>
      </trkpt>
      <trkpt lat="45.53372" lon="4.74824">
        <ele>510.76212</ele>
        <time>2018-02-02T09:44:00Z</time>
      </trkpt>
      <trkpt lat="45.53365" lon="4.74835">
        <ele>512.50073</ele>
        <time>2018-02-02T09:44:12Z</time>
      </trkpt>
      <trkpt lat="45.53364" lon="4.74835">
        <ele>512.8918</ele>
        <time>2018-02-02T09:44:13Z</time>
      </trkpt>
      <trkpt lat="45.5336" lon="4.74847">
        <ele>515.29095</ele>
        <time>2018-02-02T09:44:23Z</time>
      </trkpt>
      <trkpt lat="45.5336" lon="4.74847">
        <ele>515.29095</ele>
        <time>2018-02-02T09:44:23Z</time>
      </trkpt>
      <trkpt lat="45.53352" lon="4.74856">
        <ele>515.52875</ele>
        <time>2018-02-02T09:44:31Z</time>
      </trkpt>
      <trkpt lat="45.53352" lon="4.74857">
        <ele>515.73224</ele>
        <time>2018-02-02T09:44:32Z</time>
      </trkpt>
      <trkpt lat="45.53352" lon="4.74857">
        <ele>515.73224</ele>
        <time>2018-02-02T09:44:32Z</time>
      </trkpt>
      <trkpt lat="45.53344" lon="4.74866">
        <ele>517.0058</ele>
        <time>2018-02-02T09:44:43Z</time>
      </trkpt>
      <trkpt lat="45.53343" lon="4.74867">
        <ele>516.85785</ele>
        <time>2018-02-02T09:44:44Z</time>
      </trkpt>
      <trkpt lat="45.53337" lon="4.74877">
        <ele>518.44586</ele>
        <time>2018-02-02T09:44:53Z</time>
      </trkpt>
      <trkpt lat="45.53336" lon="4.74877">
        <ele>518.8554</ele>
        <time>2018-02-02T09:44:54Z</time>
      </trkpt>
      <trkpt lat="45.53336" lon="4.74878">
        <ele>518.9981</ele>
        <time>2018-02-02T09:44:55Z</time>
      </trkpt>
      <trkpt lat="45.53335" lon="4.74879">
        <ele>519.14075</ele>
        <time>2018-02-02T09:44:56Z</time>
      </trkpt>
      <trkpt lat="45.53335" lon="4.74879">
        <ele>519.44464</ele>
        <time>2018-02-02T09:44:57Z</time>
      </trkpt>
      <trkpt lat="45.53334" lon="4.74882">
        <ele>519.516</ele>
        <time>2018-02-02T09:44:58Z</time>
      </trkpt>
      <trkpt lat="45.53333" lon="4.74883">
        <ele>519.80664</ele>
        <time>2018-02-02T09:44:59Z</time>
      </trkpt>
      <trkpt lat="45.53333" lon="4.74884">
        <ele>519.9969</ele>
        <time>2018-02-02T09:45:00Z</time>
      </trkpt>
      <trkpt lat="45.53333" lon="4.74884">
        <ele>519.9969</ele>
        <time>2018-02-02T09:45:00Z</time>
      </trkpt>
      <trkpt lat="45.53328" lon="4.74895">
        <ele>521.9072</ele>
        <time>2018-02-02T09:45:11Z</time>
      </trkpt>
      <trkpt lat="45.53328" lon="4.74895">
        <ele>521.9072</ele>
        <time>2018-02-02T09:45:11Z</time>
      </trkpt>
      <trkpt lat="45.53333" lon="4.74906">
        <ele>524.4729</ele>
        <time>2018-02-02T09:45:23Z</time>
      </trkpt>
      <trkpt lat="45.53333" lon="4.74908">
        <ele>524.42004</ele>
        <time>2018-02-02T09:45:25Z</time>
      </trkpt>
      <trkpt lat="45.53336" lon="4.74922">
        <ele>526.1375</ele>
        <time>2018-02-02T09:45:35Z</time>
      </trkpt>
      <trkpt lat="45.53337" lon="4.74924">
        <ele>526.42816</ele>
        <time>2018-02-02T09:45:36Z</time>
      </trkpt>
      <trkpt lat="45.53337" lon="4.74924">
        <ele>526.42816</ele>
        <time>2018-02-02T09:45:36Z</time>
      </trkpt>
      <trkpt lat="45.53339" lon="4.74936">
        <ele>527.98975</ele>
        <time>2018-02-02T09:45:45Z</time>
      </trkpt>
      <trkpt lat="45.53339" lon="4.74938">
        <ele>528.0241</ele>
        <time>2018-02-02T09:45:46Z</time>
      </trkpt>
      <trkpt lat="45.53339" lon="4.7494">
        <ele>528.1747</ele>
        <time>2018-02-02T09:45:47Z</time>
      </trkpt>
      <trkpt lat="45.53339" lon="4.7494">
        <ele>528.1747</ele>
        <time>2018-02-02T09:45:47Z</time>
      </trkpt>
      <trkpt lat="45.5334" lon="4.74953">
        <ele>529.7416</ele>
        <time>2018-02-02T09:45:56Z</time>
      </trkpt>
      <trkpt lat="45.5334" lon="4.74953">
        <ele>529.7416</ele>
        <time>2018-02-02T09:45:56Z</time>
      </trkpt>
      <trkpt lat="45.53342" lon="4.74967">
        <ele>531.30054</ele>
        <time>2018-02-02T09:46:07Z</time>
      </trkpt>
      <trkpt lat="45.53342" lon="4.74968">
        <ele>531.393</ele>
        <time>2018-02-02T09:46:08Z</time>
      </trkpt>
      <trkpt lat="45.53342" lon="4.7497">
        <ele>531.5859</ele>
        <time>2018-02-02T09:46:09Z</time>
      </trkpt>
      <trkpt lat="45.53342" lon="4.74973">
        <ele>531.87915</ele>
        <time>2018-02-02T09:46:11Z</time>
      </trkpt>
      <trkpt lat="45.53342" lon="4.74975">
        <ele>531.5674</ele>
        <time>2018-02-02T09:46:12Z</time>
      </trkpt>
      <trkpt lat="45.53342" lon="4.74989">
        <ele>532.5371</ele>
        <time>2018-02-02T09:46:19Z</time>
      </trkpt>
      <trkpt lat="45.53342" lon="4.74989">
        <ele>532.5371</ele>
        <time>2018-02-02T09:46:19Z</time>
      </trkpt>
      <trkpt lat="45.53338" lon="4.75001">
        <ele>533.04175</ele>
        <time>2018-02-02T09:46:29Z</time>
      </trkpt>
      <trkpt lat="45.53338" lon="4.75001">
        <ele>533.2135</ele>
        <time>2018-02-02T09:46:30Z</time>
      </trkpt>
      <trkpt lat="45.53338" lon="4.75001">
        <ele>533.2135</ele>
        <time>2018-02-02T09:46:30Z</time>
      </trkpt>
      <trkpt lat="45.53333" lon="4.75016">
        <ele>534.75397</ele>
        <time>2018-02-02T09:46:40Z</time>
      </trkpt>
      <trkpt lat="45.53333" lon="4.75016">
        <ele>534.75397</ele>
        <time>2018-02-02T09:46:40Z</time>
      </trkpt>
      <trkpt lat="45.53328" lon="4.75027">
        <ele>535.7607</ele>
        <time>2018-02-02T09:46:47Z</time>
      </trkpt>
      <trkpt lat="45.53328" lon="4.75028">
        <ele>536.083</ele>
        <time>2018-02-02T09:46:48Z</time>
      </trkpt>
      <trkpt lat="45.53327" lon="4.75029">
        <ele>535.9879</ele>
        <time>2018-02-02T09:46:49Z</time>
      </trkpt>
      <trkpt lat="45.53321" lon="4.75038">
        <ele>537.51776</ele>
        <time>2018-02-02T09:46:57Z</time>
      </trkpt>
      <trkpt lat="45.53321" lon="4.75038">
        <ele>537.51776</ele>
        <time>2018-02-02T09:46:57Z</time>
      </trkpt>
      <trkpt lat="45.53312" lon="4.75046">
        <ele>538.4928</ele>
        <time>2018-02-02T09:47:05Z</time>
      </trkpt>
      <trkpt lat="45.53312" lon="4.75046">
        <ele>538.4928</ele>
        <time>2018-02-02T09:47:05Z</time>
      </trkpt>
      <trkpt lat="45.53302" lon="4.75056">
        <ele>539.46515</ele>
        <time>2018-02-02T09:47:14Z</time>
      </trkpt>
      <trkpt lat="45.53302" lon="4.75056">
        <ele>539.46515</ele>
        <time>2018-02-02T09:47:14Z</time>
      </trkpt>
      <trkpt lat="45.53298" lon="4.75068">
        <ele>540.3186</ele>
        <time>2018-02-02T09:47:21Z</time>
      </trkpt>
      <trkpt lat="45.53296" lon="4.7507">
        <ele>540.42957</ele>
        <time>2018-02-02T09:47:23Z</time>
      </trkpt>
      <trkpt lat="45.53296" lon="4.75071">
        <ele>540.36615</ele>
        <time>2018-02-02T09:47:24Z</time>
      </trkpt>
      <trkpt lat="45.53288" lon="4.75081">
        <ele>540.6753</ele>
        <time>2018-02-02T09:47:32Z</time>
      </trkpt>
      <trkpt lat="45.53287" lon="4.75082">
        <ele>540.7255</ele>
        <time>2018-02-02T09:47:33Z</time>
      </trkpt>
      <trkpt lat="45.53278" lon="4.75089">
        <ele>541.2566</ele>
        <time>2018-02-02T09:47:41Z</time>
      </trkpt>
      <trkpt lat="45.53278" lon="4.75089">
        <ele>541.2566</ele>
        <time>2018-02-02T09:47:41Z</time>
      </trkpt>
      <trkpt lat="45.5327" lon="4.75096">
        <ele>542.044</ele>
        <time>2018-02-02T09:47:49Z</time>
      </trkpt>
      <trkpt lat="45.53269" lon="4.75097">
        <ele>542.3188</ele>
        <time>2018-02-02T09:47:50Z</time>
      </trkpt>
      <trkpt lat="45.53269" lon="4.75097">
        <ele>542.3188</ele>
        <time>2018-02-02T09:47:50Z</time>
      </trkpt>
      <trkpt lat="45.5326" lon="4.75103">
        <ele>543.56067</ele>
        <time>2018-02-02T09:47:59Z</time>
      </trkpt>
      <trkpt lat="45.53259" lon="4.75106">
        <ele>543.521</ele>
        <time>2018-02-02T09:48:00Z</time>
      </trkpt>
      <trkpt lat="45.53251" lon="4.75113">
        <ele>543.63727</ele>
        <time>2018-02-02T09:48:12Z</time>
      </trkpt>
      <trkpt lat="45.53251" lon="4.75115">
        <ele>544.0336</ele>
        <time>2018-02-02T09:48:13Z</time>
      </trkpt>
      <trkpt lat="45.5325" lon="4.75115">
        <ele>544.0865</ele>
        <time>2018-02-02T09:48:14Z</time>
      </trkpt>
      <trkpt lat="45.53249" lon="4.75117">
        <ele>543.72974</ele>
        <time>2018-02-02T09:48:15Z</time>
      </trkpt>
      <trkpt lat="45.53241" lon="4.75124">
        <ele>544.1129</ele>
        <time>2018-02-02T09:48:22Z</time>
      </trkpt>
      <trkpt lat="45.53241" lon="4.75124">
        <ele>544.1129</ele>
        <time>2018-02-02T09:48:22Z</time>
      </trkpt>
      <trkpt lat="45.5323" lon="4.75131">
        <ele>544.068</ele>
        <time>2018-02-02T09:48:31Z</time>
      </trkpt>
      <trkpt lat="45.5323" lon="4.75131">
        <ele>544.1631</ele>
        <time>2018-02-02T09:48:32Z</time>
      </trkpt>
      <trkpt lat="45.53228" lon="4.75131">
        <ele>544.2635</ele>
        <time>2018-02-02T09:48:33Z</time>
      </trkpt>
      <trkpt lat="45.53227" lon="4.75132">
        <ele>544.2424</ele>
        <time>2018-02-02T09:48:34Z</time>
      </trkpt>
      <trkpt lat="45.53219" lon="4.75137">
        <ele>544.37976</ele>
        <time>2018-02-02T09:48:40Z</time>
      </trkpt>
      <trkpt lat="45.53219" lon="4.75137">
        <ele>544.37976</ele>
        <time>2018-02-02T09:48:40Z</time>
      </trkpt>
      <trkpt lat="45.53208" lon="4.75142">
        <ele>544.644</ele>
        <time>2018-02-02T09:48:49Z</time>
      </trkpt>
      <trkpt lat="45.53207" lon="4.75143">
        <ele>544.7338</ele>
        <time>2018-02-02T09:48:51Z</time>
      </trkpt>
      <trkpt lat="45.532" lon="4.75153">
        <ele>544.88446</ele>
        <time>2018-02-02T09:48:58Z</time>
      </trkpt>
      <trkpt lat="45.53199" lon="4.75154">
        <ele>545.20154</ele>
        <time>2018-02-02T09:48:59Z</time>
      </trkpt>
      <trkpt lat="45.53189" lon="4.75157">
        <ele>545.3521</ele>
        <time>2018-02-02T09:49:07Z</time>
      </trkpt>
      <trkpt lat="45.53188" lon="4.75158">
        <ele>545.4261</ele>
        <time>2018-02-02T09:49:08Z</time>
      </trkpt>
      <trkpt lat="45.53187" lon="4.75158">
        <ele>545.3706</ele>
        <time>2018-02-02T09:49:09Z</time>
      </trkpt>
      <trkpt lat="45.53176" lon="4.75158">
        <ele>546.00476</ele>
        <time>2018-02-02T09:49:16Z</time>
      </trkpt>
      <trkpt lat="45.53175" lon="4.75158">
        <ele>545.8198</ele>
        <time>2018-02-02T09:49:17Z</time>
      </trkpt>
      <trkpt lat="45.53165" lon="4.75159">
        <ele>546.52264</ele>
        <time>2018-02-02T09:49:25Z</time>
      </trkpt>
      <trkpt lat="45.53163" lon="4.7516">
        <ele>546.52264</ele>
        <time>2018-02-02T09:49:26Z</time>
      </trkpt>
      <trkpt lat="45.53154" lon="4.75164">
        <ele>546.9163</ele>
        <time>2018-02-02T09:49:33Z</time>
      </trkpt>
      <trkpt lat="45.53152" lon="4.75164">
        <ele>546.92694</ele>
        <time>2018-02-02T09:49:34Z</time>
      </trkpt>
      <trkpt lat="45.53151" lon="4.75165">
        <ele>546.734</ele>
        <time>2018-02-02T09:49:35Z</time>
      </trkpt>
      <trkpt lat="45.53141" lon="4.75167">
        <ele>547.62445</ele>
        <time>2018-02-02T09:49:44Z</time>
      </trkpt>
      <trkpt lat="45.5314" lon="4.75168">
        <ele>547.70636</ele>
        <time>2018-02-02T09:49:45Z</time>
      </trkpt>
      <trkpt lat="45.53138" lon="4.75168">
        <ele>547.54785</ele>
        <time>2018-02-02T09:49:46Z</time>
      </trkpt>
      <trkpt lat="45.53129" lon="4.75174">
        <ele>548.2798</ele>
        <time>2018-02-02T09:49:53Z</time>
      </trkpt>
      <trkpt lat="45.53128" lon="4.75174">
        <ele>548.2639</ele>
        <time>2018-02-02T09:49:54Z</time>
      </trkpt>
      <trkpt lat="45.53118" lon="4.75178">
        <ele>548.85046</ele>
        <time>2018-02-02T09:50:00Z</time>
      </trkpt>
      <trkpt lat="45.53117" lon="4.75178">
        <ele>548.8981</ele>
        <time>2018-02-02T09:50:01Z</time>
      </trkpt>
      <trkpt lat="45.53116" lon="4.75177">
        <ele>548.8611</ele>
        <time>2018-02-02T09:50:02Z</time>
      </trkpt>
      <trkpt lat="45.53107" lon="4.75181">
        <ele>549.4873</ele>
        <time>2018-02-02T09:50:08Z</time>
      </trkpt>
      <trkpt lat="45.53107" lon="4.7518">
        <ele>549.69073</ele>
        <time>2018-02-02T09:50:09Z</time>
      </trkpt>
      <trkpt lat="45.53105" lon="4.7518">
        <ele>550.25354</ele>
        <time>2018-02-02T09:50:10Z</time>
      </trkpt>
      <trkpt lat="45.53104" lon="4.7518">
        <ele>549.95233</ele>
        <time>2018-02-02T09:50:11Z</time>
      </trkpt>
      <trkpt lat="45.53095" lon="4.75183">
        <ele>550.29315</ele>
        <time>2018-02-02T09:50:17Z</time>
      </trkpt>
      <trkpt lat="45.53094" lon="4.75183">
        <ele>550.6287</ele>
        <time>2018-02-02T09:50:18Z</time>
      </trkpt>
      <trkpt lat="45.53093" lon="4.75184">
        <ele>550.82166</ele>
        <time>2018-02-02T09:50:19Z</time>
      </trkpt>
      <trkpt lat="45.53093" lon="4.75185">
        <ele>550.6948</ele>
        <time>2018-02-02T09:50:20Z</time>
      </trkpt>
      <trkpt lat="45.53083" lon="4.75186">
        <ele>551.41614</ele>
        <time>2018-02-02T09:50:28Z</time>
      </trkpt>
      <trkpt lat="45.53082" lon="4.75186">
        <ele>551.61694</ele>
        <time>2018-02-02T09:50:29Z</time>
      </trkpt>
      <trkpt lat="45.53081" lon="4.75186">
        <ele>551.5139</ele>
        <time>2018-02-02T09:50:30Z</time>
      </trkpt>
      <trkpt lat="45.53071" lon="4.75188">
        <ele>551.8944</ele>
        <time>2018-02-02T09:50:36Z</time>
      </trkpt>
      <trkpt lat="45.5307" lon="4.75188">
        <ele>551.8336</ele>
        <time>2018-02-02T09:50:37Z</time>
      </trkpt>
      <trkpt lat="45.5306" lon="4.75188">
        <ele>552.35944</ele>
        <time>2018-02-02T09:50:44Z</time>
      </trkpt>
      <trkpt lat="45.53059" lon="4.75182">
        <ele>552.296</ele>
        <time>2018-02-02T09:50:45Z</time>
      </trkpt>
      <trkpt lat="45.53051" lon="4.75175">
        <ele>552.9724</ele>
        <time>2018-02-02T09:50:52Z</time>
      </trkpt>
      <trkpt lat="45.5305" lon="4.75176">
        <ele>553.3186</ele>
        <time>2018-02-02T09:50:53Z</time>
      </trkpt>
      <trkpt lat="45.53049" lon="4.75176">
        <ele>553.14685</ele>
        <time>2018-02-02T09:50:54Z</time>
      </trkpt>
      <trkpt lat="45.5304" lon="4.75176">
        <ele>553.34766</ele>
        <time>2018-02-02T09:51:04Z</time>
      </trkpt>
      <trkpt lat="45.53039" lon="4.75177">
        <ele>553.3212</ele>
        <time>2018-02-02T09:51:05Z</time>
      </trkpt>
      <trkpt lat="45.53029" lon="4.7518">
        <ele>552.96454</ele>
        <time>2018-02-02T09:51:13Z</time>
      </trkpt>
      <trkpt lat="45.53021" lon="4.75192">
        <ele>552.9539</ele>
        <time>2018-02-02T09:51:20Z</time>
      </trkpt>
      <trkpt lat="45.53015" lon="4.75203">
        <ele>553.00415</ele>
        <time>2018-02-02T09:51:30Z</time>
      </trkpt>
      <trkpt lat="45.53009" lon="4.75215">
        <ele>552.64215</ele>
        <time>2018-02-02T09:51:40Z</time>
      </trkpt>
      <trkpt lat="45.53005" lon="4.75228">
        <ele>553.2922</ele>
        <time>2018-02-02T09:51:47Z</time>
      </trkpt>
      <trkpt lat="45.53002" lon="4.75242">
        <ele>553.96857</ele>
        <time>2018-02-02T09:51:55Z</time>
      </trkpt>
      <trkpt lat="45.53002" lon="4.75244">
        <ele>553.74133</ele>
        <time>2018-02-02T09:51:56Z</time>
      </trkpt>
      <trkpt lat="45.52998" lon="4.75256">
        <ele>553.9369</ele>
        <time>2018-02-02T09:52:03Z</time>
      </trkpt>
      <trkpt lat="45.52997" lon="4.75271">
        <ele>553.6145</ele>
        <time>2018-02-02T09:52:10Z</time>
      </trkpt>
      <trkpt lat="45.52997" lon="4.75274">
        <ele>553.62506</ele>
        <time>2018-02-02T09:52:11Z</time>
      </trkpt>
      <trkpt lat="45.52998" lon="4.75288">
        <ele>553.00415</ele>
        <time>2018-02-02T09:52:21Z</time>
      </trkpt>
      <trkpt lat="45.52996" lon="4.753">
        <ele>553.24725</ele>
        <time>2018-02-02T09:52:27Z</time>
      </trkpt>
      <trkpt lat="45.52995" lon="4.75315">
        <ele>553.05963</ele>
        <time>2018-02-02T09:52:35Z</time>
      </trkpt>
      <trkpt lat="45.52993" lon="4.75329">
        <ele>553.3344</ele>
        <time>2018-02-02T09:52:42Z</time>
      </trkpt>
      <trkpt lat="45.52992" lon="4.75343">
        <ele>553.8787</ele>
        <time>2018-02-02T09:52:51Z</time>
      </trkpt>
      <trkpt lat="45.5299" lon="4.75356">
        <ele>554.18524</ele>
        <time>2018-02-02T09:52:58Z</time>
      </trkpt>
      <trkpt lat="45.52988" lon="4.75369">
        <ele>554.7824</ele>
        <time>2018-02-02T09:53:06Z</time>
      </trkpt>
      <trkpt lat="45.52987" lon="4.75371">
        <ele>554.9621</ele>
        <time>2018-02-02T09:53:07Z</time>
      </trkpt>
      <trkpt lat="45.52987" lon="4.75373">
        <ele>554.84314</ele>
        <time>2018-02-02T09:53:08Z</time>
      </trkpt>
      <trkpt lat="45.52988" lon="4.75387">
        <ele>555.5249</ele>
        <time>2018-02-02T09:53:16Z</time>
      </trkpt>
      <trkpt lat="45.52989" lon="4.75389">
        <ele>555.3082</ele>
        <time>2018-02-02T09:53:17Z</time>
      </trkpt>
      <trkpt lat="45.52991" lon="4.75403">
        <ele>555.0968</ele>
        <time>2018-02-02T09:53:24Z</time>
      </trkpt>
      <trkpt lat="45.52991" lon="4.75405">
        <ele>555.6438</ele>
        <time>2018-02-02T09:53:25Z</time>
      </trkpt>
      <trkpt lat="45.5299" lon="4.7542">
        <ele>555.32935</ele>
        <time>2018-02-02T09:53:31Z</time>
      </trkpt>
      <trkpt lat="45.5299" lon="4.75421">
        <ele>555.1655</ele>
        <time>2018-02-02T09:53:32Z</time>
      </trkpt>
      <trkpt lat="45.52988" lon="4.75435">
        <ele>554.34644</ele>
        <time>2018-02-02T09:53:38Z</time>
      </trkpt>
      <trkpt lat="45.52987" lon="4.75448">
        <ele>554.0373</ele>
        <time>2018-02-02T09:53:45Z</time>
      </trkpt>
      <trkpt lat="45.52993" lon="4.75458">
        <ele>552.36206</ele>
        <time>2018-02-02T09:53:53Z</time>
      </trkpt>
      <trkpt lat="45.53001" lon="4.75463">
        <ele>549.74884</ele>
        <time>2018-02-02T09:54:03Z</time>
      </trkpt>
      <trkpt lat="45.53011" lon="4.75461">
        <ele>546.697</ele>
        <time>2018-02-02T09:54:16Z</time>
      </trkpt>
      <trkpt lat="45.53019" lon="4.75453">
        <ele>545.1143</ele>
        <time>2018-02-02T09:54:22Z</time>
      </trkpt>
      <trkpt lat="45.53029" lon="4.75452">
        <ele>542.1418</ele>
        <time>2018-02-02T09:54:31Z</time>
      </trkpt>
      <trkpt lat="45.53038" lon="4.75451">
        <ele>538.9869</ele>
        <time>2018-02-02T09:54:39Z</time>
      </trkpt>
      <trkpt lat="45.53047" lon="4.75453">
        <ele>535.0684</ele>
        <time>2018-02-02T09:54:47Z</time>
      </trkpt>
      <trkpt lat="45.53056" lon="4.75458">
        <ele>532.5767</ele>
        <time>2018-02-02T09:54:55Z</time>
      </trkpt>
      <trkpt lat="45.53073" lon="4.75484">
        <ele>529.6623</ele>
        <time>2018-02-02T09:55:13Z</time>
      </trkpt>
      <trkpt lat="45.53079" lon="4.75495">
        <ele>527.50354</ele>
        <time>2018-02-02T09:55:21Z</time>
      </trkpt>
      <trkpt lat="45.53087" lon="4.75501">
        <ele>524.5495</ele>
        <time>2018-02-02T09:55:30Z</time>
      </trkpt>
      <trkpt lat="45.53097" lon="4.75504">
        <ele>520.1686</ele>
        <time>2018-02-02T09:55:39Z</time>
      </trkpt>
      <trkpt lat="45.53106" lon="4.75504">
        <ele>516.57513</ele>
        <time>2018-02-02T09:55:48Z</time>
      </trkpt>
      <trkpt lat="45.53115" lon="4.75507">
        <ele>512.68835</ele>
        <time>2018-02-02T09:55:57Z</time>
      </trkpt>
      <trkpt lat="45.53125" lon="4.75504">
        <ele>507.90054</ele>
        <time>2018-02-02T09:56:08Z</time>
      </trkpt>
      <trkpt lat="45.53137" lon="4.75489">
        <ele>502.0294</ele>
        <time>2018-02-02T09:56:22Z</time>
      </trkpt>
      <trkpt lat="45.53143" lon="4.75478">
        <ele>499.95258</ele>
        <time>2018-02-02T09:56:28Z</time>
      </trkpt>
      <trkpt lat="45.53151" lon="4.75472">
        <ele>497.8599</ele>
        <time>2018-02-02T09:56:33Z</time>
      </trkpt>
      <trkpt lat="45.5316" lon="4.75477">
        <ele>497.35522</ele>
        <time>2018-02-02T09:56:42Z</time>
      </trkpt>
      <trkpt lat="45.53165" lon="4.75487">
        <ele>496.7845</ele>
        <time>2018-02-02T09:56:50Z</time>
      </trkpt>
      <trkpt lat="45.53169" lon="4.75499">
        <ele>496.0156</ele>
        <time>2018-02-02T09:56:58Z</time>
      </trkpt>
      <trkpt lat="45.53173" lon="4.75511">
        <ele>494.6733</ele>
        <time>2018-02-02T09:57:04Z</time>
      </trkpt>
      <trkpt lat="45.53178" lon="4.75528">
        <ele>492.51987</ele>
        <time>2018-02-02T09:57:11Z</time>
      </trkpt>
      <trkpt lat="45.53181" lon="4.75541">
        <ele>491.5739</ele>
        <time>2018-02-02T09:57:17Z</time>
      </trkpt>
      <trkpt lat="45.53185" lon="4.75553">
        <ele>491.09302</ele>
        <time>2018-02-02T09:57:24Z</time>
      </trkpt>
      <trkpt lat="45.53191" lon="4.75563">
        <ele>490.07047</ele>
        <time>2018-02-02T09:57:31Z</time>
      </trkpt>
      <trkpt lat="45.53197" lon="4.75575">
        <ele>489.4337</ele>
        <time>2018-02-02T09:57:38Z</time>
      </trkpt>
      <trkpt lat="45.53204" lon="4.75585">
        <ele>488.8788</ele>
        <time>2018-02-02T09:57:47Z</time>
      </trkpt>
      <trkpt lat="45.53208" lon="4.75598">
        <ele>487.86945</ele>
        <time>2018-02-02T09:57:53Z</time>
      </trkpt>
      <trkpt lat="45.53215" lon="4.7561">
        <ele>487.2221</ele>
        <time>2018-02-02T09:57:59Z</time>
      </trkpt>
      <trkpt lat="45.53221" lon="4.75623">
        <ele>486.05157</ele>
        <time>2018-02-02T09:58:06Z</time>
      </trkpt>
      <trkpt lat="45.53225" lon="4.75635">
        <ele>484.60095</ele>
        <time>2018-02-02T09:58:12Z</time>
      </trkpt>
      <trkpt lat="45.53228" lon="4.75648">
        <ele>482.8148</ele>
        <time>2018-02-02T09:58:18Z</time>
      </trkpt>
      <trkpt lat="45.53234" lon="4.7566">
        <ele>479.7603</ele>
        <time>2018-02-02T09:58:26Z</time>
      </trkpt>
      <trkpt lat="45.53239" lon="4.75673">
        <ele>477.2581</ele>
        <time>2018-02-02T09:58:32Z</time>
      </trkpt>
      <trkpt lat="45.53237" lon="4.75687">
        <ele>476.49976</ele>
        <time>2018-02-02T09:58:38Z</time>
      </trkpt>
      <trkpt lat="45.53231" lon="4.75698">
        <ele>476.87494</ele>
        <time>2018-02-02T09:58:44Z</time>
      </trkpt>
      <trkpt lat="45.53223" lon="4.75705">
        <ele>476.67413</ele>
        <time>2018-02-02T09:58:52Z</time>
      </trkpt>
      <trkpt lat="45.53218" lon="4.75715">
        <ele>476.40198</ele>
        <time>2018-02-02T09:58:59Z</time>
      </trkpt>
      <trkpt lat="45.53214" lon="4.75727">
        <ele>476.83005</ele>
        <time>2018-02-02T09:59:05Z</time>
      </trkpt>
      <trkpt lat="45.53212" lon="4.75741">
        <ele>476.86176</ele>
        <time>2018-02-02T09:59:12Z</time>
      </trkpt>
      <trkpt lat="45.53205" lon="4.7575">
        <ele>476.6794</ele>
        <time>2018-02-02T09:59:20Z</time>
      </trkpt>
      <trkpt lat="45.53201" lon="4.75763">
        <ele>477.2898</ele>
        <time>2018-02-02T09:59:29Z</time>
      </trkpt>
      <trkpt lat="45.53202" lon="4.75778">
        <ele>477.19467</ele>
        <time>2018-02-02T09:59:36Z</time>
      </trkpt>
      <trkpt lat="45.532" lon="4.75793">
        <ele>477.26337</ele>
        <time>2018-02-02T09:59:43Z</time>
      </trkpt>
      <trkpt lat="45.53198" lon="4.75807">
        <ele>477.32944</ele>
        <time>2018-02-02T09:59:49Z</time>
      </trkpt>
      <trkpt lat="45.53196" lon="4.75821">
        <ele>477.1418</ele>
        <time>2018-02-02T09:59:56Z</time>
      </trkpt>
      <trkpt lat="45.53195" lon="4.75836">
        <ele>477.10217</ele>
        <time>2018-02-02T10:00:04Z</time>
      </trkpt>
      <trkpt lat="45.53193" lon="4.75849">
        <ele>477.10217</ele>
        <time>2018-02-02T10:00:11Z</time>
      </trkpt>
      <trkpt lat="45.53191" lon="4.75863">
        <ele>476.99387</ele>
        <time>2018-02-02T10:00:18Z</time>
      </trkpt>
      <trkpt lat="45.53188" lon="4.75879">
        <ele>476.92514</ele>
        <time>2018-02-02T10:00:26Z</time>
      </trkpt>
      <trkpt lat="45.53185" lon="4.75892">
        <ele>476.99387</ele>
        <time>2018-02-02T10:00:32Z</time>
      </trkpt>
      <trkpt lat="45.53181" lon="4.75903">
        <ele>477.01764</ele>
        <time>2018-02-02T10:00:38Z</time>
      </trkpt>
      <trkpt lat="45.53175" lon="4.75914">
        <ele>476.61865</ele>
        <time>2018-02-02T10:00:45Z</time>
      </trkpt>
      <trkpt lat="45.53167" lon="4.75925">
        <ele>476.60278</ele>
        <time>2018-02-02T10:00:53Z</time>
      </trkpt>
      <trkpt lat="45.53175" lon="4.75929">
        <ele>474.49426</ele>
        <time>2018-02-02T10:01:11Z</time>
      </trkpt>
      <trkpt lat="45.53184" lon="4.75924">
        <ele>472.716</ele>
        <time>2018-02-02T10:01:19Z</time>
      </trkpt>
      <trkpt lat="45.53193" lon="4.75919">
        <ele>472.02374</ele>
        <time>2018-02-02T10:01:26Z</time>
      </trkpt>
      <trkpt lat="45.53203" lon="4.75912">
        <ele>470.02353</ele>
        <time>2018-02-02T10:01:35Z</time>
      </trkpt>
      <trkpt lat="45.53214" lon="4.75906">
        <ele>468.3827</ele>
        <time>2018-02-02T10:01:43Z</time>
      </trkpt>
      <trkpt lat="45.53223" lon="4.75906">
        <ele>467.47903</ele>
        <time>2018-02-02T10:01:50Z</time>
      </trkpt>
      <trkpt lat="45.5323" lon="4.75915">
        <ele>466.25037</ele>
        <time>2018-02-02T10:01:57Z</time>
      </trkpt>
      <trkpt lat="45.53232" lon="4.7593">
        <ele>464.83148</ele>
        <time>2018-02-02T10:02:06Z</time>
      </trkpt>
      <trkpt lat="45.53234" lon="4.75944">
        <ele>464.30566</ele>
        <time>2018-02-02T10:02:13Z</time>
      </trkpt>
      <trkpt lat="45.53236" lon="4.75959">
        <ele>463.29895</ele>
        <time>2018-02-02T10:02:20Z</time>
      </trkpt>
      <trkpt lat="45.53238" lon="4.75972">
        <ele>462.68857</ele>
        <time>2018-02-02T10:02:27Z</time>
      </trkpt>
      <trkpt lat="45.53238" lon="4.75985">
        <ele>461.86154</ele>
        <time>2018-02-02T10:02:35Z</time>
      </trkpt>
      <trkpt lat="45.53238" lon="4.75998">
        <ele>460.99753</ele>
        <time>2018-02-02T10:02:43Z</time>
      </trkpt>
      <trkpt lat="45.53238" lon="4.76012">
        <ele>459.8587</ele>
        <time>2018-02-02T10:02:50Z</time>
      </trkpt>
      <trkpt lat="45.53238" lon="4.76027">
        <ele>458.69345</ele>
        <time>2018-02-02T10:02:58Z</time>
      </trkpt>
      <trkpt lat="45.53239" lon="4.7604">
        <ele>457.6392</ele>
        <time>2018-02-02T10:03:05Z</time>
      </trkpt>
      <trkpt lat="45.53239" lon="4.76054">
        <ele>456.60342</ele>
        <time>2018-02-02T10:03:12Z</time>
      </trkpt>
      <trkpt lat="45.53239" lon="4.76067">
        <ele>455.58087</ele>
        <time>2018-02-02T10:03:18Z</time>
      </trkpt>
      <trkpt lat="45.53241" lon="4.76081">
        <ele>453.79205</ele>
        <time>2018-02-02T10:03:25Z</time>
      </trkpt>
      <trkpt lat="45.53241" lon="4.76094">
        <ele>452.56604</ele>
        <time>2018-02-02T10:03:32Z</time>
      </trkpt>
      <trkpt lat="45.53242" lon="4.76108">
        <ele>450.46014</ele>
        <time>2018-02-02T10:03:39Z</time>
      </trkpt>
      <trkpt lat="45.53243" lon="4.76123">
        <ele>448.6951</ele>
        <time>2018-02-02T10:03:46Z</time>
      </trkpt>
      <trkpt lat="45.53244" lon="4.76136">
        <ele>446.8508</ele>
        <time>2018-02-02T10:03:54Z</time>
      </trkpt>
      <trkpt lat="45.53245" lon="4.7615">
        <ele>444.7317</ele>
        <time>2018-02-02T10:04:01Z</time>
      </trkpt>
      <trkpt lat="45.53244" lon="4.76165">
        <ele>443.48453</ele>
        <time>2018-02-02T10:04:08Z</time>
      </trkpt>
      <trkpt lat="45.53243" lon="4.76179">
        <ele>441.97314</ele>
        <time>2018-02-02T10:04:15Z</time>
      </trkpt>
      <trkpt lat="45.53243" lon="4.76194">
        <ele>440.76035</ele>
        <time>2018-02-02T10:04:22Z</time>
      </trkpt>
      <trkpt lat="45.53245" lon="4.76208">
        <ele>439.09042</ele>
        <time>2018-02-02T10:04:29Z</time>
      </trkpt>
      <trkpt lat="45.53245" lon="4.76222">
        <ele>437.52094</ele>
        <time>2018-02-02T10:04:35Z</time>
      </trkpt>
      <trkpt lat="45.53247" lon="4.76235">
        <ele>436.58026</ele>
        <time>2018-02-02T10:04:41Z</time>
      </trkpt>
      <trkpt lat="45.53248" lon="4.76248">
        <ele>435.49695</ele>
        <time>2018-02-02T10:04:47Z</time>
      </trkpt>
      <trkpt lat="45.53246" lon="4.76261">
        <ele>434.3819</ele>
        <time>2018-02-02T10:04:53Z</time>
      </trkpt>
      <trkpt lat="45.53247" lon="4.76275">
        <ele>432.6565</ele>
        <time>2018-02-02T10:05:01Z</time>
      </trkpt>
      <trkpt lat="45.53248" lon="4.76289">
        <ele>431.05527</ele>
        <time>2018-02-02T10:05:08Z</time>
      </trkpt>
      <trkpt lat="45.5325" lon="4.76303">
        <ele>430.5321</ele>
        <time>2018-02-02T10:05:15Z</time>
      </trkpt>
      <trkpt lat="45.53249" lon="4.76318">
        <ele>428.5002</ele>
        <time>2018-02-02T10:05:23Z</time>
      </trkpt>
      <trkpt lat="45.53249" lon="4.76332">
        <ele>427.5622</ele>
        <time>2018-02-02T10:05:30Z</time>
      </trkpt>
      <trkpt lat="45.53252" lon="4.76346">
        <ele>426.07724</ele>
        <time>2018-02-02T10:05:38Z</time>
      </trkpt>
      <trkpt lat="45.53257" lon="4.76357">
        <ele>425.16565</ele>
        <time>2018-02-02T10:05:45Z</time>
      </trkpt>
      <trkpt lat="45.53263" lon="4.76368">
        <ele>424.62134</ele>
        <time>2018-02-02T10:05:53Z</time>
      </trkpt>
      <trkpt lat="45.53268" lon="4.76379">
        <ele>423.2685</ele>
        <time>2018-02-02T10:06:00Z</time>
      </trkpt>
      <trkpt lat="45.53273" lon="4.7639">
        <ele>421.69897</ele>
        <time>2018-02-02T10:06:09Z</time>
      </trkpt>
      <trkpt lat="45.53276" lon="4.76403">
        <ele>421.56158</ele>
        <time>2018-02-02T10:06:16Z</time>
      </trkpt>
      <trkpt lat="45.53282" lon="4.76415">
        <ele>420.78476</ele>
        <time>2018-02-02T10:06:22Z</time>
      </trkpt>
      <trkpt lat="45.53288" lon="4.76424">
        <ele>420.32236</ele>
        <time>2018-02-02T10:06:28Z</time>
      </trkpt>
      <trkpt lat="45.53295" lon="4.76435">
        <ele>419.45834</ele>
        <time>2018-02-02T10:06:35Z</time>
      </trkpt>
      <trkpt lat="45.53301" lon="4.76447">
        <ele>418.1689</ele>
        <time>2018-02-02T10:06:42Z</time>
      </trkpt>
      <trkpt lat="45.53305" lon="4.76459">
        <ele>417.48193</ele>
        <time>2018-02-02T10:06:48Z</time>
      </trkpt>
      <trkpt lat="45.53313" lon="4.76468">
        <ele>417.08557</ele>
        <time>2018-02-02T10:06:54Z</time>
      </trkpt>
      <trkpt lat="45.53319" lon="4.76478">
        <ele>416.24005</ele>
        <time>2018-02-02T10:07:00Z</time>
      </trkpt>
      <trkpt lat="45.53327" lon="4.76487">
        <ele>415.90714</ele>
        <time>2018-02-02T10:07:06Z</time>
      </trkpt>
      <trkpt lat="45.53334" lon="4.76499">
        <ele>413.78537</ele>
        <time>2018-02-02T10:07:15Z</time>
      </trkpt>
      <trkpt lat="45.53343" lon="4.76508">
        <ele>412.3374</ele>
        <time>2018-02-02T10:07:22Z</time>
      </trkpt>
      <trkpt lat="45.5335" lon="4.76519">
        <ele>411.0744</ele>
        <time>2018-02-02T10:07:29Z</time>
      </trkpt>
      <trkpt lat="45.53354" lon="4.76531">
        <ele>409.962</ele>
        <time>2018-02-02T10:07:36Z</time>
      </trkpt>
      <trkpt lat="45.53358" lon="4.76543">
        <ele>408.25775</ele>
        <time>2018-02-02T10:07:43Z</time>
      </trkpt>
      <trkpt lat="45.53364" lon="4.76554">
        <ele>407.31973</ele>
        <time>2018-02-02T10:07:50Z</time>
      </trkpt>
      <trkpt lat="45.5337" lon="4.76564">
        <ele>406.24432</ele>
        <time>2018-02-02T10:07:58Z</time>
      </trkpt>
      <trkpt lat="45.53379" lon="4.7657">
        <ele>404.93112</ele>
        <time>2018-02-02T10:08:07Z</time>
      </trkpt>
      <trkpt lat="45.53387" lon="4.76581">
        <ele>403.58884</ele>
        <time>2018-02-02T10:08:15Z</time>
      </trkpt>
      <trkpt lat="45.53395" lon="4.76586">
        <ele>402.67197</ele>
        <time>2018-02-02T10:08:21Z</time>
      </trkpt>
      <trkpt lat="45.53404" lon="4.76592">
        <ele>401.78946</ele>
        <time>2018-02-02T10:08:28Z</time>
      </trkpt>
      <trkpt lat="45.53412" lon="4.766">
        <ele>399.87643</ele>
        <time>2018-02-02T10:08:37Z</time>
      </trkpt>
      <trkpt lat="45.53417" lon="4.76611">
        <ele>398.56323</ele>
        <time>2018-02-02T10:08:44Z</time>
      </trkpt>
      <trkpt lat="45.53422" lon="4.76623">
        <ele>397.04657</ele>
        <time>2018-02-02T10:08:51Z</time>
      </trkpt>
      <trkpt lat="45.53426" lon="4.76636">
        <ele>395.1468</ele>
        <time>2018-02-02T10:08:58Z</time>
      </trkpt>
      <trkpt lat="45.53429" lon="4.76648">
        <ele>394.08987</ele>
        <time>2018-02-02T10:09:06Z</time>
      </trkpt>
      <trkpt lat="45.53429" lon="4.76662">
        <ele>392.0289</ele>
        <time>2018-02-02T10:09:14Z</time>
      </trkpt>
      <trkpt lat="45.53429" lon="4.76675">
        <ele>390.7104</ele>
        <time>2018-02-02T10:09:22Z</time>
      </trkpt>
      <trkpt lat="45.53431" lon="4.76688">
        <ele>388.88196</ele>
        <time>2018-02-02T10:09:30Z</time>
      </trkpt>
      <trkpt lat="45.53433" lon="4.76702">
        <ele>387.8541</ele>
        <time>2018-02-02T10:09:38Z</time>
      </trkpt>
      <trkpt lat="45.53433" lon="4.76717">
        <ele>386.77078</ele>
        <time>2018-02-02T10:09:45Z</time>
      </trkpt>
      <trkpt lat="45.53431" lon="4.76731">
        <ele>385.43112</ele>
        <time>2018-02-02T10:09:53Z</time>
      </trkpt>
      <trkpt lat="45.53432" lon="4.76745">
        <ele>384.1549</ele>
        <time>2018-02-02T10:10:00Z</time>
      </trkpt>
      <trkpt lat="45.53428" lon="4.7676">
        <ele>382.97382</ele>
        <time>2018-02-02T10:10:08Z</time>
      </trkpt>
      <trkpt lat="45.53429" lon="4.76773">
        <ele>382.32648</ele>
        <time>2018-02-02T10:10:13Z</time>
      </trkpt>
      <trkpt lat="45.53427" lon="4.76787">
        <ele>381.3911</ele>
        <time>2018-02-02T10:10:21Z</time>
      </trkpt>
      <trkpt lat="45.53429" lon="4.76801">
        <ele>380.51385</ele>
        <time>2018-02-02T10:10:26Z</time>
      </trkpt>
      <trkpt lat="45.53429" lon="4.76816">
        <ele>378.93378</ele>
        <time>2018-02-02T10:10:34Z</time>
      </trkpt>
      <trkpt lat="45.53421" lon="4.76822">
        <ele>376.79617</ele>
        <time>2018-02-02T10:10:42Z</time>
      </trkpt>
      <trkpt lat="45.53412" lon="4.76824">
        <ele>374.01917</ele>
        <time>2018-02-02T10:10:51Z</time>
      </trkpt>
      <trkpt lat="45.53402" lon="4.76823">
        <ele>371.59354</ele>
        <time>2018-02-02T10:10:58Z</time>
      </trkpt>
      <trkpt lat="45.53392" lon="4.7682">
        <ele>368.36996</ele>
        <time>2018-02-02T10:11:09Z</time>
      </trkpt>
      <trkpt lat="45.53383" lon="4.76815">
        <ele>366.3539</ele>
        <time>2018-02-02T10:11:17Z</time>
      </trkpt>
      <trkpt lat="45.53381" lon="4.76829">
        <ele>360.3163</ele>
        <time>2018-02-02T10:11:42Z</time>
      </trkpt>
      <trkpt lat="45.53381" lon="4.76843">
        <ele>358.50638</ele>
        <time>2018-02-02T10:11:51Z</time>
      </trkpt>
      <trkpt lat="45.53382" lon="4.76856">
        <ele>356.5775</ele>
        <time>2018-02-02T10:11:59Z</time>
      </trkpt>
      <trkpt lat="45.53383" lon="4.76869">
        <ele>352.37628</ele>
        <time>2018-02-02T10:12:12Z</time>
      </trkpt>
      <trkpt lat="45.53388" lon="4.76881">
        <ele>351.66287</ele>
        <time>2018-02-02T10:12:21Z</time>
      </trkpt>
      <trkpt lat="45.53394" lon="4.7689">
        <ele>353.0844</ele>
        <time>2018-02-02T10:12:28Z</time>
      </trkpt>
      <trkpt lat="45.534" lon="4.769">
        <ele>352.0143</ele>
        <time>2018-02-02T10:12:40Z</time>
      </trkpt>
      <trkpt lat="45.53408" lon="4.76909">
        <ele>351.86633</ele>
        <time>2018-02-02T10:12:50Z</time>
      </trkpt>
      <trkpt lat="45.53416" lon="4.76917">
        <ele>350.57425</ele>
        <time>2018-02-02T10:12:58Z</time>
      </trkpt>
      <trkpt lat="45.53424" lon="4.76926">
        <ele>349.73138</ele>
        <time>2018-02-02T10:13:06Z</time>
      </trkpt>
      <trkpt lat="45.53433" lon="4.76936">
        <ele>349.2399</ele>
        <time>2018-02-02T10:13:12Z</time>
      </trkpt>
      <trkpt lat="45.53442" lon="4.76941">
        <ele>349.3958</ele>
        <time>2018-02-02T10:13:19Z</time>
      </trkpt>
      <trkpt lat="45.53451" lon="4.76947">
        <ele>348.31512</ele>
        <time>2018-02-02T10:13:25Z</time>
      </trkpt>
      <trkpt lat="45.5346" lon="4.76952">
        <ele>346.77203</ele>
        <time>2018-02-02T10:13:33Z</time>
      </trkpt>
      <trkpt lat="45.53469" lon="4.76956">
        <ele>345.3003</ele>
        <time>2018-02-02T10:13:42Z</time>
      </trkpt>
      <trkpt lat="45.53478" lon="4.76959">
        <ele>344.4072</ele>
        <time>2018-02-02T10:13:48Z</time>
      </trkpt>
      <trkpt lat="45.53486" lon="4.76968">
        <ele>345.82608</ele>
        <time>2018-02-02T10:13:57Z</time>
      </trkpt>
      <trkpt lat="45.53492" lon="4.76978">
        <ele>346.33606</ele>
        <time>2018-02-02T10:14:05Z</time>
      </trkpt>
      <trkpt lat="45.53496" lon="4.76992">
        <ele>347.10233</ele>
        <time>2018-02-02T10:14:14Z</time>
      </trkpt>
      <trkpt lat="45.53502" lon="4.77001">
        <ele>347.6889</ele>
        <time>2018-02-02T10:14:19Z</time>
      </trkpt>
      <trkpt lat="45.53507" lon="4.77014">
        <ele>348.7141</ele>
        <time>2018-02-02T10:14:27Z</time>
      </trkpt>
      <trkpt lat="45.53511" lon="4.77026">
        <ele>349.3826</ele>
        <time>2018-02-02T10:14:33Z</time>
      </trkpt>
      <trkpt lat="45.53515" lon="4.77038">
        <ele>349.7948</ele>
        <time>2018-02-02T10:14:39Z</time>
      </trkpt>
      <trkpt lat="45.53515" lon="4.77052">
        <ele>350.88605</ele>
        <time>2018-02-02T10:14:47Z</time>
      </trkpt>
      <trkpt lat="45.53519" lon="4.77064">
        <ele>349.45395</ele>
        <time>2018-02-02T10:14:59Z</time>
      </trkpt>
      <trkpt lat="45.53526" lon="4.77073">
        <ele>346.32547</ele>
        <time>2018-02-02T10:15:10Z</time>
      </trkpt>
      <trkpt lat="45.53533" lon="4.77085">
        <ele>344.13766</ele>
        <time>2018-02-02T10:15:22Z</time>
      </trkpt>
      <trkpt lat="45.53539" lon="4.77094">
        <ele>343.5749</ele>
        <time>2018-02-02T10:15:28Z</time>
      </trkpt>
      <trkpt lat="45.53545" lon="4.77105">
        <ele>342.9328</ele>
        <time>2018-02-02T10:15:33Z</time>
      </trkpt>
      <trkpt lat="45.53549" lon="4.77116">
        <ele>342.8007</ele>
        <time>2018-02-02T10:15:40Z</time>
      </trkpt>
      <trkpt lat="45.53553" lon="4.77129">
        <ele>342.34885</ele>
        <time>2018-02-02T10:15:48Z</time>
      </trkpt>
      <trkpt lat="45.53561" lon="4.77137">
        <ele>339.94968</ele>
        <time>2018-02-02T10:16:01Z</time>
      </trkpt>
      <trkpt lat="45.53568" lon="4.77144">
        <ele>339.83078</ele>
        <time>2018-02-02T10:16:21Z</time>
      </trkpt>
      <trkpt lat="45.53576" lon="4.77152">
        <ele>340.9273</ele>
        <time>2018-02-02T10:16:34Z</time>
      </trkpt>
      <trkpt lat="45.53583" lon="4.77163">
        <ele>340.31696</ele>
        <time>2018-02-02T10:16:46Z</time>
      </trkpt>
      <trkpt lat="45.5359" lon="4.77171">
        <ele>339.2812</ele>
        <time>2018-02-02T10:16:56Z</time>
      </trkpt>
      <trkpt lat="45.53597" lon="4.77179">
        <ele>339.63788</ele>
        <time>2018-02-02T10:17:05Z</time>
      </trkpt>
      <trkpt lat="45.53605" lon="4.77188">
        <ele>340.3513</ele>
        <time>2018-02-02T10:17:12Z</time>
      </trkpt>
      <trkpt lat="45.53611" lon="4.77199">
        <ele>340.9643</ele>
        <time>2018-02-02T10:17:20Z</time>
      </trkpt>
      <trkpt lat="45.53619" lon="4.77209">
        <ele>340.86655</ele>
        <time>2018-02-02T10:17:28Z</time>
      </trkpt>
      <trkpt lat="45.53628" lon="4.77215">
        <ele>341.03564</ele>
        <time>2018-02-02T10:17:36Z</time>
      </trkpt>
      <trkpt lat="45.53636" lon="4.77225">
        <ele>340.71066</ele>
        <time>2018-02-02T10:17:44Z</time>
      </trkpt>
      <trkpt lat="45.53644" lon="4.77231">
        <ele>342.9011</ele>
        <time>2018-02-02T10:17:52Z</time>
      </trkpt>
      <trkpt lat="45.53652" lon="4.77237">
        <ele>343.53787</ele>
        <time>2018-02-02T10:18:00Z</time>
      </trkpt>
      <trkpt lat="45.53659" lon="4.77245">
        <ele>343.05435</ele>
        <time>2018-02-02T10:18:07Z</time>
      </trkpt>
      <trkpt lat="45.53664" lon="4.77256">
        <ele>339.51105</ele>
        <time>2018-02-02T10:18:20Z</time>
      </trkpt>
      <trkpt lat="45.53669" lon="4.77268">
        <ele>337.10394</ele>
        <time>2018-02-02T10:18:29Z</time>
      </trkpt>
      <trkpt lat="45.53673" lon="4.77281">
        <ele>337.17792</ele>
        <time>2018-02-02T10:18:35Z</time>
      </trkpt>
      <trkpt lat="45.5368" lon="4.77291">
        <ele>335.69296</ele>
        <time>2018-02-02T10:18:43Z</time>
      </trkpt>
      <trkpt lat="45.53684" lon="4.77302">
        <ele>335.01654</ele>
        <time>2018-02-02T10:18:49Z</time>
      </trkpt>
      <trkpt lat="45.5369" lon="4.77314">
        <ele>333.7271</ele>
        <time>2018-02-02T10:18:57Z</time>
      </trkpt>
      <trkpt lat="45.53697" lon="4.77325">
        <ele>334.16046</ele>
        <time>2018-02-02T10:19:05Z</time>
      </trkpt>
      <trkpt lat="45.53704" lon="4.77334">
        <ele>334.245</ele>
        <time>2018-02-02T10:19:12Z</time>
      </trkpt>
      <trkpt lat="45.53713" lon="4.77341">
        <ele>334.1446</ele>
        <time>2018-02-02T10:19:20Z</time>
      </trkpt>
      <trkpt lat="45.53721" lon="4.7735">
        <ele>332.731</ele>
        <time>2018-02-02T10:19:33Z</time>
      </trkpt>
      <trkpt lat="45.53723" lon="4.77362">
        <ele>330.04907</ele>
        <time>2018-02-02T10:19:49Z</time>
      </trkpt>
      <trkpt lat="45.53729" lon="4.77374">
        <ele>331.1377</ele>
        <time>2018-02-02T10:20:04Z</time>
      </trkpt>
      <trkpt lat="45.53737" lon="4.77382">
        <ele>331.23544</ele>
        <time>2018-02-02T10:20:18Z</time>
      </trkpt>
      <trkpt lat="45.53744" lon="4.77391">
        <ele>331.17734</ele>
        <time>2018-02-02T10:20:26Z</time>
      </trkpt>
      <trkpt lat="45.53751" lon="4.774">
        <ele>330.86026</ele>
        <time>2018-02-02T10:20:33Z</time>
      </trkpt>
      <trkpt lat="45.53759" lon="4.77407">
        <ele>330.38464</ele>
        <time>2018-02-02T10:20:39Z</time>
      </trkpt>
      <trkpt lat="45.53764" lon="4.77418">
        <ele>329.51535</ele>
        <time>2018-02-02T10:20:46Z</time>
      </trkpt>
      <trkpt lat="45.53769" lon="4.7743">
        <ele>329.21677</ele>
        <time>2018-02-02T10:20:53Z</time>
      </trkpt>
      <trkpt lat="45.53773" lon="4.77443">
        <ele>327.87186</ele>
        <time>2018-02-02T10:21:05Z</time>
      </trkpt>
      <trkpt lat="45.53778" lon="4.77455">
        <ele>328.09378</ele>
        <time>2018-02-02T10:21:14Z</time>
      </trkpt>
      <trkpt lat="45.53785" lon="4.77463">
        <ele>326.93384</ele>
        <time>2018-02-02T10:21:21Z</time>
      </trkpt>
      <trkpt lat="45.53795" lon="4.77472">
        <ele>326.27063</ele>
        <time>2018-02-02T10:21:29Z</time>
      </trkpt>
      <trkpt lat="45.53799" lon="4.77484">
        <ele>325.65762</ele>
        <time>2018-02-02T10:21:38Z</time>
      </trkpt>
      <trkpt lat="45.53807" lon="4.77494">
        <ele>325.95355</ele>
        <time>2018-02-02T10:21:50Z</time>
      </trkpt>
      <trkpt lat="45.53816" lon="4.77503">
        <ele>325.78445</ele>
        <time>2018-02-02T10:21:59Z</time>
      </trkpt>
      <trkpt lat="45.53824" lon="4.77511">
        <ele>326.08832</ele>
        <time>2018-02-02T10:22:08Z</time>
      </trkpt>
      <trkpt lat="45.53831" lon="4.77521">
        <ele>327.27734</ele>
        <time>2018-02-02T10:22:16Z</time>
      </trkpt>
      <trkpt lat="45.53839" lon="4.77528">
        <ele>327.42795</ele>
        <time>2018-02-02T10:22:23Z</time>
      </trkpt>
      <trkpt lat="45.53848" lon="4.77533">
        <ele>326.33405</ele>
        <time>2018-02-02T10:22:31Z</time>
      </trkpt>
      <trkpt lat="45.53857" lon="4.77535">
        <ele>323.4381</ele>
        <time>2018-02-02T10:22:45Z</time>
      </trkpt>
      <trkpt lat="45.53866" lon="4.77537">
        <ele>325.2824</ele>
        <time>2018-02-02T10:22:53Z</time>
      </trkpt>
      <trkpt lat="45.53874" lon="4.77542">
        <ele>325.08954</ele>
        <time>2018-02-02T10:23:01Z</time>
      </trkpt>
      <trkpt lat="45.53884" lon="4.77549">
        <ele>325.04724</ele>
        <time>2018-02-02T10:23:10Z</time>
      </trkpt>
      <trkpt lat="45.53893" lon="4.77557">
        <ele>324.2995</ele>
        <time>2018-02-02T10:23:20Z</time>
      </trkpt>
      <trkpt lat="45.53902" lon="4.77567">
        <ele>323.40112</ele>
        <time>2018-02-02T10:23:28Z</time>
      </trkpt>
      <trkpt lat="45.5391" lon="4.77577">
        <ele>323.60458</ele>
        <time>2018-02-02T10:23:35Z</time>
      </trkpt>
      <trkpt lat="45.53916" lon="4.77587">
        <ele>324.62186</ele>
        <time>2018-02-02T10:23:44Z</time>
      </trkpt>
      <trkpt lat="45.53922" lon="4.77597">
        <ele>326.1808</ele>
        <time>2018-02-02T10:23:54Z</time>
      </trkpt>
      <trkpt lat="45.53929" lon="4.77607">
        <ele>326.25214</ele>
        <time>2018-02-02T10:24:00Z</time>
      </trkpt>
      <trkpt lat="45.53936" lon="4.77616">
        <ele>325.65234</ele>
        <time>2018-02-02T10:24:08Z</time>
      </trkpt>
      <trkpt lat="45.53945" lon="4.77623">
        <ele>326.70395</ele>
        <time>2018-02-02T10:24:15Z</time>
      </trkpt>
      <trkpt lat="45.53952" lon="4.77631">
        <ele>324.41574</ele>
        <time>2018-02-02T10:24:21Z</time>
      </trkpt>
      <trkpt lat="45.53958" lon="4.77642">
        <ele>323.1131</ele>
        <time>2018-02-02T10:24:26Z</time>
      </trkpt>
      <trkpt lat="45.53967" lon="4.77642">
        <ele>322.04828</ele>
        <time>2018-02-02T10:24:33Z</time>
      </trkpt>
      <trkpt lat="45.53976" lon="4.77647">
        <ele>322.3442</ele>
        <time>2018-02-02T10:24:40Z</time>
      </trkpt>
      <trkpt lat="45.53985" lon="4.77654">
        <ele>321.76553</ele>
        <time>2018-02-02T10:24:47Z</time>
      </trkpt>
      <trkpt lat="45.53993" lon="4.77662">
        <ele>321.39297</ele>
        <time>2018-02-02T10:24:56Z</time>
      </trkpt>
      <trkpt lat="45.54002" lon="4.77666">
        <ele>320.418</ele>
        <time>2018-02-02T10:25:09Z</time>
      </trkpt>
      <trkpt lat="45.54011" lon="4.7767">
        <ele>319.37164</ele>
        <time>2018-02-02T10:25:17Z</time>
      </trkpt>
      <trkpt lat="45.54019" lon="4.77677">
        <ele>317.8682</ele>
        <time>2018-02-02T10:25:28Z</time>
      </trkpt>
      <trkpt lat="45.54026" lon="4.77686">
        <ele>318.4125</ele>
        <time>2018-02-02T10:25:45Z</time>
      </trkpt>
      <trkpt lat="45.54036" lon="4.77688">
        <ele>318.39136</ele>
        <time>2018-02-02T10:25:58Z</time>
      </trkpt>
      <trkpt lat="45.54043" lon="4.77698">
        <ele>318.02673</ele>
        <time>2018-02-02T10:26:33Z</time>
      </trkpt>
      <trkpt lat="45.54052" lon="4.77706">
        <ele>319.48526</ele>
        <time>2018-02-02T10:26:42Z</time>
      </trkpt>
      <trkpt lat="45.54059" lon="4.77714">
        <ele>319.76797</ele>
        <time>2018-02-02T10:26:50Z</time>
      </trkpt>
      <trkpt lat="45.5407" lon="4.77717">
        <ele>318.9251</ele>
        <time>2018-02-02T10:27:02Z</time>
      </trkpt>
      <trkpt lat="45.54079" lon="4.77723">
        <ele>318.6609</ele>
        <time>2018-02-02T10:27:10Z</time>
      </trkpt>
      <trkpt lat="45.54087" lon="4.77729">
        <ele>318.53668</ele>
        <time>2018-02-02T10:27:18Z</time>
      </trkpt>
      <trkpt lat="45.54096" lon="4.77734">
        <ele>318.07166</ele>
        <time>2018-02-02T10:27:27Z</time>
      </trkpt>
      <trkpt lat="45.54103" lon="4.77744">
        <ele>317.77573</ele>
        <time>2018-02-02T10:27:34Z</time>
      </trkpt>
      <trkpt lat="45.54114" lon="4.77748">
        <ele>316.87735</ele>
        <time>2018-02-02T10:27:44Z</time>
      </trkpt>
      <trkpt lat="45.54123" lon="4.77751">
        <ele>316.5312</ele>
        <time>2018-02-02T10:27:52Z</time>
      </trkpt>
      <trkpt lat="45.54131" lon="4.77758">
        <ele>315.9235</ele>
        <time>2018-02-02T10:28:00Z</time>
      </trkpt>
      <trkpt lat="45.54139" lon="4.77768">
        <ele>315.89706</ele>
        <time>2018-02-02T10:28:07Z</time>
      </trkpt>
      <trkpt lat="45.54145" lon="4.77778">
        <ele>315.64603</ele>
        <time>2018-02-02T10:28:15Z</time>
      </trkpt>
      <trkpt lat="45.54153" lon="4.77784">
        <ele>315.4637</ele>
        <time>2018-02-02T10:28:22Z</time>
      </trkpt>
      <trkpt lat="45.54164" lon="4.77793">
        <ele>315.0436</ele>
        <time>2018-02-02T10:28:32Z</time>
      </trkpt>
      <trkpt lat="45.54173" lon="4.77799">
        <ele>314.9194</ele>
        <time>2018-02-02T10:28:40Z</time>
      </trkpt>
      <trkpt lat="45.54183" lon="4.77809">
        <ele>314.6499</ele>
        <time>2018-02-02T10:28:48Z</time>
      </trkpt>
      <trkpt lat="45.54192" lon="4.77816">
        <ele>314.40945</ele>
        <time>2018-02-02T10:28:57Z</time>
      </trkpt>
      <trkpt lat="45.542" lon="4.77823">
        <ele>314.19806</ele>
        <time>2018-02-02T10:29:03Z</time>
      </trkpt>
      <trkpt lat="45.54208" lon="4.77832">
        <ele>313.97876</ele>
        <time>2018-02-02T10:29:10Z</time>
      </trkpt>
      <trkpt lat="45.54215" lon="4.77843">
        <ele>314.19806</ele>
        <time>2018-02-02T10:29:16Z</time>
      </trkpt>
      <trkpt lat="45.54221" lon="4.77852">
        <ele>314.56006</ele>
        <time>2018-02-02T10:29:22Z</time>
      </trkpt>
      <trkpt lat="45.54225" lon="4.77865">
        <ele>314.50723</ele>
        <time>2018-02-02T10:29:29Z</time>
      </trkpt>
      <trkpt lat="45.54232" lon="4.77874">
        <ele>313.80438</ele>
        <time>2018-02-02T10:29:36Z</time>
      </trkpt>
      <trkpt lat="45.54241" lon="4.77883">
        <ele>313.60358</ele>
        <time>2018-02-02T10:29:44Z</time>
      </trkpt>
      <trkpt lat="45.54247" lon="4.77893">
        <ele>312.43567</ele>
        <time>2018-02-02T10:29:54Z</time>
      </trkpt>
      <trkpt lat="45.54254" lon="4.77902">
        <ele>311.82004</ele>
        <time>2018-02-02T10:30:02Z</time>
      </trkpt>
      <trkpt lat="45.54263" lon="4.77911">
        <ele>311.26514</ele>
        <time>2018-02-02T10:30:12Z</time>
      </trkpt>
      <trkpt lat="45.54271" lon="4.77917">
        <ele>313.807</ele>
        <time>2018-02-02T10:30:43Z</time>
      </trkpt>
      <trkpt lat="45.54281" lon="4.77919">
        <ele>312.56516</ele>
        <time>2018-02-02T10:30:52Z</time>
      </trkpt>
      <trkpt lat="45.54288" lon="4.77928">
        <ele>311.72226</ele>
        <time>2018-02-02T10:31:01Z</time>
      </trkpt>
      <trkpt lat="45.54298" lon="4.77932">
        <ele>311.31537</ele>
        <time>2018-02-02T10:31:10Z</time>
      </trkpt>
      <trkpt lat="45.54306" lon="4.77937">
        <ele>311.18854</ele>
        <time>2018-02-02T10:31:17Z</time>
      </trkpt>
      <trkpt lat="45.54316" lon="4.77943">
        <ele>310.6812</ele>
        <time>2018-02-02T10:31:24Z</time>
      </trkpt>
      <trkpt lat="45.54324" lon="4.77953">
        <ele>311.281</ele>
        <time>2018-02-02T10:31:31Z</time>
      </trkpt>
      <trkpt lat="45.54331" lon="4.77962">
        <ele>310.52795</ele>
        <time>2018-02-02T10:31:38Z</time>
      </trkpt>
      <trkpt lat="45.54337" lon="4.77974">
        <ele>311.63507</ele>
        <time>2018-02-02T10:31:47Z</time>
      </trkpt>
      <trkpt lat="45.54342" lon="4.77985">
        <ele>312.73425</ele>
        <time>2018-02-02T10:31:56Z</time>
      </trkpt>
      <trkpt lat="45.54347" lon="4.77997">
        <ele>313.1676</ele>
        <time>2018-02-02T10:32:04Z</time>
      </trkpt>
      <trkpt lat="45.54352" lon="4.78009">
        <ele>313.24686</ele>
        <time>2018-02-02T10:32:13Z</time>
      </trkpt>
      <trkpt lat="45.54358" lon="4.7802">
        <ele>313.61676</ele>
        <time>2018-02-02T10:32:22Z</time>
      </trkpt>
      <trkpt lat="45.54365" lon="4.78031">
        <ele>314.29056</ele>
        <time>2018-02-02T10:32:29Z</time>
      </trkpt>
      <trkpt lat="45.54371" lon="4.78042">
        <ele>314.09766</ele>
        <time>2018-02-02T10:32:35Z</time>
      </trkpt>
      <trkpt lat="45.54379" lon="4.78048">
        <ele>314.70538</ele>
        <time>2018-02-02T10:32:42Z</time>
      </trkpt>
      <trkpt lat="45.54388" lon="4.78055">
        <ele>315.78345</ele>
        <time>2018-02-02T10:32:50Z</time>
      </trkpt>
      <trkpt lat="45.54396" lon="4.7806">
        <ele>316.62103</ele>
        <time>2018-02-02T10:32:58Z</time>
      </trkpt>
      <trkpt lat="45.54405" lon="4.78065">
        <ele>317.419</ele>
        <time>2018-02-02T10:33:05Z</time>
      </trkpt>
      <trkpt lat="45.54415" lon="4.78065">
        <ele>318.47592</ele>
        <time>2018-02-02T10:33:12Z</time>
      </trkpt>
      <trkpt lat="45.54425" lon="4.78066">
        <ele>319.76007</ele>
        <time>2018-02-02T10:33:19Z</time>
      </trkpt>
      <trkpt lat="45.54435" lon="4.78069">
        <ele>320.29907</ele>
        <time>2018-02-02T10:33:26Z</time>
      </trkpt>
      <trkpt lat="45.54443" lon="4.78074">
        <ele>320.28323</ele>
        <time>2018-02-02T10:33:34Z</time>
      </trkpt>
      <trkpt lat="45.54452" lon="4.7808">
        <ele>321.4802</ele>
        <time>2018-02-02T10:33:42Z</time>
      </trkpt>
      <trkpt lat="45.54462" lon="4.78085">
        <ele>323.54907</ele>
        <time>2018-02-02T10:33:53Z</time>
      </trkpt>
      <trkpt lat="45.54471" lon="4.78091">
        <ele>324.6879</ele>
        <time>2018-02-02T10:34:01Z</time>
      </trkpt>
      <trkpt lat="45.54479" lon="4.78099">
        <ele>325.9562</ele>
        <time>2018-02-02T10:34:10Z</time>
      </trkpt>
      <trkpt lat="45.54488" lon="4.78106">
        <ele>327.53363</ele>
        <time>2018-02-02T10:34:19Z</time>
      </trkpt>
      <trkpt lat="45.54497" lon="4.78109">
        <ele>329.3119</ele>
        <time>2018-02-02T10:34:29Z</time>
      </trkpt>
      <trkpt lat="45.54506" lon="4.78113">
        <ele>331.30945</ele>
        <time>2018-02-02T10:34:40Z</time>
      </trkpt>
      <trkpt lat="45.54513" lon="4.78123">
        <ele>332.40598</ele>
        <time>2018-02-02T10:34:50Z</time>
      </trkpt>
      <trkpt lat="45.54523" lon="4.78129">
        <ele>334.42468</ele>
        <time>2018-02-02T10:35:01Z</time>
      </trkpt>
      <trkpt lat="45.54538" lon="4.78138">
        <ele>336.44073</ele>
        <time>2018-02-02T10:35:16Z</time>
      </trkpt>
      <trkpt lat="45.54549" lon="4.78143">
        <ele>337.39197</ele>
        <time>2018-02-02T10:35:26Z</time>
      </trkpt>
      <trkpt lat="45.54559" lon="4.78148">
        <ele>339.63525</ele>
        <time>2018-02-02T10:35:37Z</time>
      </trkpt>
      <trkpt lat="45.54567" lon="4.78154">
        <ele>340.29053</ele>
        <time>2018-02-02T10:35:49Z</time>
      </trkpt>
      <trkpt lat="45.54576" lon="4.78158">
        <ele>341.92874</ele>
        <time>2018-02-02T10:35:57Z</time>
      </trkpt>
      <trkpt lat="45.54586" lon="4.78163">
        <ele>343.5828</ele>
        <time>2018-02-02T10:36:07Z</time>
      </trkpt>
      <trkpt lat="45.54594" lon="4.7817">
        <ele>344.95944</ele>
        <time>2018-02-02T10:36:16Z</time>
      </trkpt>
      <trkpt lat="45.54602" lon="4.78176">
        <ele>347.28992</ele>
        <time>2018-02-02T10:36:27Z</time>
      </trkpt>
      <trkpt lat="45.54613" lon="4.78172">
        <ele>348.3019</ele>
        <time>2018-02-02T10:36:43Z</time>
      </trkpt>
      <trkpt lat="45.54619" lon="4.78161">
        <ele>350.25717</ele>
        <time>2018-02-02T10:37:00Z</time>
      </trkpt>
      <trkpt lat="45.54625" lon="4.78151">
        <ele>352.49255</ele>
        <time>2018-02-02T10:37:15Z</time>
      </trkpt>
      <trkpt lat="45.54633" lon="4.78141">
        <ele>354.2153</ele>
        <time>2018-02-02T10:37:25Z</time>
      </trkpt>
      <trkpt lat="45.54643" lon="4.78127">
        <ele>355.333</ele>
        <time>2018-02-02T10:37:32Z</time>
      </trkpt>
      <trkpt lat="45.54652" lon="4.78119">
        <ele>356.57224</ele>
        <time>2018-02-02T10:37:40Z</time>
      </trkpt>
      <trkpt lat="45.54662" lon="4.78117">
        <ele>358.46674</ele>
        <time>2018-02-02T10:37:51Z</time>
      </trkpt>
      <trkpt lat="45.54662" lon="4.7813">
        <ele>358.84985</ele>
        <time>2018-02-02T10:37:59Z</time>
      </trkpt>
      <trkpt lat="45.54667" lon="4.78143">
        <ele>357.59213</ele>
        <time>2018-02-02T10:38:08Z</time>
      </trkpt>
      <trkpt lat="45.5467" lon="4.78155">
        <ele>356.69904</ele>
        <time>2018-02-02T10:38:15Z</time>
      </trkpt>
      <trkpt lat="45.54675" lon="4.78167">
        <ele>355.42548</ele>
        <time>2018-02-02T10:38:23Z</time>
      </trkpt>
      <trkpt lat="45.54678" lon="4.78182">
        <ele>354.8759</ele>
        <time>2018-02-02T10:38:30Z</time>
      </trkpt>
      <trkpt lat="45.54683" lon="4.78194">
        <ele>354.17038</ele>
        <time>2018-02-02T10:38:37Z</time>
      </trkpt>
      <trkpt lat="45.54689" lon="4.78205">
        <ele>353.62344</ele>
        <time>2018-02-02T10:38:44Z</time>
      </trkpt>
      <trkpt lat="45.54696" lon="4.78214">
        <ele>352.82547</ele>
        <time>2018-02-02T10:38:50Z</time>
      </trkpt>
      <trkpt lat="45.54703" lon="4.78226">
        <ele>353.26672</ele>
        <time>2018-02-02T10:38:57Z</time>
      </trkpt>
      <trkpt lat="45.5471" lon="4.78234">
        <ele>352.21246</ele>
        <time>2018-02-02T10:39:03Z</time>
      </trkpt>
      <trkpt lat="45.54714" lon="4.78247">
        <ele>351.1265</ele>
        <time>2018-02-02T10:39:10Z</time>
      </trkpt>
      <trkpt lat="45.54715" lon="4.78263">
        <ele>349.73138</ele>
        <time>2018-02-02T10:39:18Z</time>
      </trkpt>
      <trkpt lat="45.5471" lon="4.78279">
        <ele>348.5899</ele>
        <time>2018-02-02T10:39:26Z</time>
      </trkpt>
      <trkpt lat="45.54707" lon="4.78293">
        <ele>347.6149</ele>
        <time>2018-02-02T10:39:33Z</time>
      </trkpt>
      <trkpt lat="45.54706" lon="4.78307">
        <ele>345.65698</ele>
        <time>2018-02-02T10:39:41Z</time>
      </trkpt>
      <trkpt lat="45.54704" lon="4.7832">
        <ele>344.64236</ele>
        <time>2018-02-02T10:39:49Z</time>
      </trkpt>
      <trkpt lat="45.54699" lon="4.78332">
        <ele>342.10312</ele>
        <time>2018-02-02T10:39:57Z</time>
      </trkpt>
      <trkpt lat="45.54694" lon="4.78345">
        <ele>341.24966</ele>
        <time>2018-02-02T10:40:04Z</time>
      </trkpt>
      <trkpt lat="45.54688" lon="4.78358">
        <ele>340.07913</ele>
        <time>2018-02-02T10:40:12Z</time>
      </trkpt>
      <trkpt lat="45.54683" lon="4.7837">
        <ele>338.94824</ele>
        <time>2018-02-02T10:40:19Z</time>
      </trkpt>
      <trkpt lat="45.54684" lon="4.78384">
        <ele>336.6944</ele>
        <time>2018-02-02T10:40:27Z</time>
      </trkpt>
      <trkpt lat="45.54689" lon="4.78397">
        <ele>334.4088</ele>
        <time>2018-02-02T10:40:37Z</time>
      </trkpt>
      <trkpt lat="45.54693" lon="4.78409">
        <ele>332.42712</ele>
        <time>2018-02-02T10:40:45Z</time>
      </trkpt>
      <trkpt lat="45.54699" lon="4.7842">
        <ele>330.13364</ele>
        <time>2018-02-02T10:40:53Z</time>
      </trkpt>
      <trkpt lat="45.54702" lon="4.78432">
        <ele>327.8877</ele>
        <time>2018-02-02T10:41:02Z</time>
      </trkpt>
      <trkpt lat="45.54708" lon="4.78444">
        <ele>325.67346</ele>
        <time>2018-02-02T10:41:10Z</time>
      </trkpt>
      <trkpt lat="45.54712" lon="4.78457">
        <ele>324.6562</ele>
        <time>2018-02-02T10:41:17Z</time>
      </trkpt>
      <trkpt lat="45.54716" lon="4.78468">
        <ele>322.61108</ele>
        <time>2018-02-02T10:41:24Z</time>
      </trkpt>
      <trkpt lat="45.54722" lon="4.7848">
        <ele>320.37836</ele>
        <time>2018-02-02T10:41:33Z</time>
      </trkpt>
      <trkpt lat="45.54723" lon="4.78494">
        <ele>318.64502</ele>
        <time>2018-02-02T10:41:41Z</time>
      </trkpt>
      <trkpt lat="45.5473" lon="4.78504">
        <ele>317.32916</ele>
        <time>2018-02-02T10:41:49Z</time>
      </trkpt>
      <trkpt lat="45.54734" lon="4.78516">
        <ele>316.70294</ele>
        <time>2018-02-02T10:41:56Z</time>
      </trkpt>
      <trkpt lat="45.54741" lon="4.78528">
        <ele>315.10965</ele>
        <time>2018-02-02T10:42:03Z</time>
      </trkpt>
      <trkpt lat="45.54744" lon="4.78543">
        <ele>314.81638</ele>
        <time>2018-02-02T10:42:11Z</time>
      </trkpt>
      <trkpt lat="45.54744" lon="4.78556">
        <ele>314.45172</ele>
        <time>2018-02-02T10:42:19Z</time>
      </trkpt>
      <trkpt lat="45.54742" lon="4.78569">
        <ele>313.881</ele>
        <time>2018-02-02T10:42:28Z</time>
      </trkpt>
      <trkpt lat="45.5474" lon="4.78583">
        <ele>310.17654</ele>
        <time>2018-02-02T10:42:42Z</time>
      </trkpt>
      <trkpt lat="45.54738" lon="4.78596">
        <ele>307.75885</ele>
        <time>2018-02-02T10:42:52Z</time>
      </trkpt>
      <trkpt lat="45.54735" lon="4.78609">
        <ele>304.63306</ele>
        <time>2018-02-02T10:43:05Z</time>
      </trkpt>
      <trkpt lat="45.54733" lon="4.78624">
        <ele>301.5997</ele>
        <time>2018-02-02T10:43:15Z</time>
      </trkpt>
      <trkpt lat="45.54724" lon="4.7862">
        <ele>296.5873</ele>
        <time>2018-02-02T10:43:35Z</time>
      </trkpt>
      <trkpt lat="45.54715" lon="4.78613">
        <ele>293.9292</ele>
        <time>2018-02-02T10:43:46Z</time>
      </trkpt>
      <trkpt lat="45.54706" lon="4.78603">
        <ele>291.5432</ele>
        <time>2018-02-02T10:43:55Z</time>
      </trkpt>
      <trkpt lat="45.54697" lon="4.78597">
        <ele>288.6103</ele>
        <time>2018-02-02T10:44:06Z</time>
      </trkpt>
      <trkpt lat="45.54692" lon="4.78584">
        <ele>286.4172</ele>
        <time>2018-02-02T10:44:16Z</time>
      </trkpt>
      <trkpt lat="45.54683" lon="4.78589">
        <ele>288.2615</ele>
        <time>2018-02-02T10:44:46Z</time>
      </trkpt>
      <trkpt lat="45.54673" lon="4.78589">
        <ele>291.00156</ele>
        <time>2018-02-02T10:44:58Z</time>
      </trkpt>
      <trkpt lat="45.54671" lon="4.78602">
        <ele>295.86597</ele>
        <time>2018-02-02T10:45:26Z</time>
      </trkpt>
      <trkpt lat="45.54674" lon="4.78617">
        <ele>298.56638</ele>
        <time>2018-02-02T10:45:39Z</time>
      </trkpt>
      <trkpt lat="45.54676" lon="4.7863">
        <ele>301.5601</ele>
        <time>2018-02-02T10:45:56Z</time>
      </trkpt>
      <trkpt lat="45.54678" lon="4.78644">
        <ele>303.57086</ele>
        <time>2018-02-02T10:46:10Z</time>
      </trkpt>
      <trkpt lat="45.54679" lon="4.78657">
        <ele>304.75723</ele>
        <time>2018-02-02T10:46:21Z</time>
      </trkpt>
      <trkpt lat="45.54682" lon="4.7867">
        <ele>305.88284</ele>
        <time>2018-02-02T10:46:31Z</time>
      </trkpt>
      <trkpt lat="45.54687" lon="4.78681">
        <ele>307.74036</ele>
        <time>2018-02-02T10:46:46Z</time>
      </trkpt>
      <trkpt lat="45.54691" lon="4.78695">
        <ele>309.37857</ele>
        <time>2018-02-02T10:46:56Z</time>
      </trkpt>
      <trkpt lat="45.54696" lon="4.78706">
        <ele>310.4566</ele>
        <time>2018-02-02T10:47:03Z</time>
      </trkpt>
      <trkpt lat="45.54697" lon="4.7872">
        <ele>312.09482</ele>
        <time>2018-02-02T10:47:16Z</time>
      </trkpt>
      <trkpt lat="45.54702" lon="4.78732">
        <ele>313.43182</ele>
        <time>2018-02-02T10:47:24Z</time>
      </trkpt>
      <trkpt lat="45.54705" lon="4.78746">
        <ele>315.23914</ele>
        <time>2018-02-02T10:47:38Z</time>
      </trkpt>
      <trkpt lat="45.5471" lon="4.78759">
        <ele>317.23932</ele>
        <time>2018-02-02T10:47:51Z</time>
      </trkpt>
      <trkpt lat="45.54716" lon="4.78768">
        <ele>318.8009</ele>
        <time>2018-02-02T10:48:01Z</time>
      </trkpt>
      <trkpt lat="45.54719" lon="4.78781">
        <ele>321.1684</ele>
        <time>2018-02-02T10:48:13Z</time>
      </trkpt>
      <trkpt lat="45.54726" lon="4.7879">
        <ele>323.43546</ele>
        <time>2018-02-02T10:48:26Z</time>
      </trkpt>
      <trkpt lat="45.54733" lon="4.78799">
        <ele>324.85965</ele>
        <time>2018-02-02T10:48:35Z</time>
      </trkpt>
      <trkpt lat="45.54741" lon="4.78809">
        <ele>326.68546</ele>
        <time>2018-02-02T10:48:45Z</time>
      </trkpt>
      <trkpt lat="45.54746" lon="4.78821">
        <ele>328.3633</ele>
        <time>2018-02-02T10:48:55Z</time>
      </trkpt>
      <trkpt lat="45.54753" lon="4.78833">
        <ele>330.9316</ele>
        <time>2018-02-02T10:49:13Z</time>
      </trkpt>
      <trkpt lat="45.5476" lon="4.78844">
        <ele>331.78503</ele>
        <time>2018-02-02T10:49:22Z</time>
      </trkpt>
      <trkpt lat="45.54767" lon="4.78852">
        <ele>333.01898</ele>
        <time>2018-02-02T10:49:32Z</time>
      </trkpt>
      <trkpt lat="45.54774" lon="4.78861">
        <ele>333.93057</ele>
        <time>2018-02-02T10:49:40Z</time>
      </trkpt>
      <trkpt lat="45.54782" lon="4.78868">
        <ele>334.57</ele>
        <time>2018-02-02T10:49:48Z</time>
      </trkpt>
      <trkpt lat="45.5479" lon="4.78878">
        <ele>335.981</ele>
        <time>2018-02-02T10:49:57Z</time>
      </trkpt>
      <trkpt lat="45.54799" lon="4.78884">
        <ele>337.3259</ele>
        <time>2018-02-02T10:50:11Z</time>
      </trkpt>
      <trkpt lat="45.54807" lon="4.78893">
        <ele>338.47266</ele>
        <time>2018-02-02T10:50:20Z</time>
      </trkpt>
      <trkpt lat="45.54815" lon="4.789">
        <ele>338.77914</ele>
        <time>2018-02-02T10:50:29Z</time>
      </trkpt>
      <trkpt lat="45.54823" lon="4.78906">
        <ele>339.61676</ele>
        <time>2018-02-02T10:50:38Z</time>
      </trkpt>
      <trkpt lat="45.54832" lon="4.78914">
        <ele>341.1017</ele>
        <time>2018-02-02T10:50:49Z</time>
      </trkpt>
      <trkpt lat="45.54841" lon="4.78921">
        <ele>341.9895</ele>
        <time>2018-02-02T10:51:00Z</time>
      </trkpt>
      <trkpt lat="45.54848" lon="4.78929">
        <ele>342.73993</ele>
        <time>2018-02-02T10:51:10Z</time>
      </trkpt>
      <trkpt lat="45.54856" lon="4.78937">
        <ele>342.1084</ele>
        <time>2018-02-02T10:51:18Z</time>
      </trkpt>
      <trkpt lat="45.54858" lon="4.78951">
        <ele>341.78604</ele>
        <time>2018-02-02T10:51:24Z</time>
      </trkpt>
      <trkpt lat="45.54867" lon="4.78958">
        <ele>342.0582</ele>
        <time>2018-02-02T10:51:37Z</time>
      </trkpt>
      <trkpt lat="45.54876" lon="4.78963">
        <ele>342.5391</ele>
        <time>2018-02-02T10:51:46Z</time>
      </trkpt>
      <trkpt lat="45.54885" lon="4.78968">
        <ele>342.46512</ele>
        <time>2018-02-02T10:51:54Z</time>
      </trkpt>
      <trkpt lat="45.54894" lon="4.78973">
        <ele>343.52997</ele>
        <time>2018-02-02T10:52:03Z</time>
      </trkpt>
      <trkpt lat="45.54903" lon="4.78978">
        <ele>344.17203</ele>
        <time>2018-02-02T10:52:12Z</time>
      </trkpt>
      <trkpt lat="45.54913" lon="4.78982">
        <ele>344.8009</ele>
        <time>2018-02-02T10:52:21Z</time>
      </trkpt>
      <trkpt lat="45.54922" lon="4.78987">
        <ele>345.39276</ele>
        <time>2018-02-02T10:52:30Z</time>
      </trkpt>
      <trkpt lat="45.54931" lon="4.78991">
        <ele>346.17752</ele>
        <time>2018-02-02T10:52:39Z</time>
      </trkpt>
      <trkpt lat="45.5494" lon="4.78996">
        <ele>347.18423</ele>
        <time>2018-02-02T10:52:48Z</time>
      </trkpt>
      <trkpt lat="45.54949" lon="4.79">
        <ele>348.2279</ele>
        <time>2018-02-02T10:52:56Z</time>
      </trkpt>
      <trkpt lat="45.54958" lon="4.79009">
        <ele>348.8885</ele>
        <time>2018-02-02T10:53:04Z</time>
      </trkpt>
      <trkpt lat="45.54964" lon="4.79018">
        <ele>349.6627</ele>
        <time>2018-02-02T10:53:11Z</time>
      </trkpt>
      <trkpt lat="45.5497" lon="4.79029">
        <ele>351.03403</ele>
        <time>2018-02-02T10:53:18Z</time>
      </trkpt>
      <trkpt lat="45.54972" lon="4.79043">
        <ele>351.69724</ele>
        <time>2018-02-02T10:53:28Z</time>
      </trkpt>
      <trkpt lat="45.54973" lon="4.79057">
        <ele>352.63522</ele>
        <time>2018-02-02T10:53:35Z</time>
      </trkpt>
      <trkpt lat="45.54973" lon="4.79072">
        <ele>353.5336</ele>
        <time>2018-02-02T10:53:43Z</time>
      </trkpt>
      <trkpt lat="45.54973" lon="4.79086">
        <ele>354.43198</ele>
        <time>2018-02-02T10:53:51Z</time>
      </trkpt>
      <trkpt lat="45.54972" lon="4.79102">
        <ele>354.82303</ele>
        <time>2018-02-02T10:53:59Z</time>
      </trkpt>
      <trkpt lat="45.54971" lon="4.79116">
        <ele>355.93808</ele>
        <time>2018-02-02T10:54:07Z</time>
      </trkpt>
      <trkpt lat="45.5497" lon="4.79129">
        <ele>356.80737</ele>
        <time>2018-02-02T10:54:16Z</time>
      </trkpt>
      <trkpt lat="45.54977" lon="4.79137">
        <ele>355.44662</ele>
        <time>2018-02-02T10:54:27Z</time>
      </trkpt>
      <trkpt lat="45.54987" lon="4.79135">
        <ele>353.86655</ele>
        <time>2018-02-02T10:54:36Z</time>
      </trkpt>
      <trkpt lat="45.54996" lon="4.79132">
        <ele>352.19135</ele>
        <time>2018-02-02T10:54:43Z</time>
      </trkpt>
      <trkpt lat="45.55006" lon="4.79134">
        <ele>351.04193</ele>
        <time>2018-02-02T10:54:50Z</time>
      </trkpt>
      <trkpt lat="45.55016" lon="4.79132">
        <ele>349.7631</ele>
        <time>2018-02-02T10:54:57Z</time>
      </trkpt>
      <trkpt lat="45.55037" lon="4.79133">
        <ele>347.1393</ele>
        <time>2018-02-02T10:55:14Z</time>
      </trkpt>
      <trkpt lat="45.55043" lon="4.79151">
        <ele>345.56186</ele>
        <time>2018-02-02T10:55:24Z</time>
      </trkpt>
      <trkpt lat="45.55046" lon="4.79163">
        <ele>344.2275</ele>
        <time>2018-02-02T10:55:31Z</time>
      </trkpt>
      <trkpt lat="45.55047" lon="4.79178">
        <ele>342.37265</ele>
        <time>2018-02-02T10:55:40Z</time>
      </trkpt>
      <trkpt lat="45.55047" lon="4.79192">
        <ele>339.55334</ele>
        <time>2018-02-02T10:55:50Z</time>
      </trkpt>
      <trkpt lat="45.55052" lon="4.79203">
        <ele>337.08545</ele>
        <time>2018-02-02T10:55:58Z</time>
      </trkpt>
      <trkpt lat="45.55056" lon="4.7922">
        <ele>334.5251</ele>
        <time>2018-02-02T10:56:08Z</time>
      </trkpt>
      <trkpt lat="45.55057" lon="4.79234">
        <ele>332.5751</ele>
        <time>2018-02-02T10:56:16Z</time>
      </trkpt>
      <trkpt lat="45.55057" lon="4.79247">
        <ele>331.90396</ele>
        <time>2018-02-02T10:56:22Z</time>
      </trkpt>
      <trkpt lat="45.55059" lon="4.7926">
        <ele>330.73077</ele>
        <time>2018-02-02T10:56:30Z</time>
      </trkpt>
      <trkpt lat="45.55065" lon="4.79271">
        <ele>330.59338</ele>
        <time>2018-02-02T10:56:38Z</time>
      </trkpt>
      <trkpt lat="45.55074" lon="4.79279">
        <ele>331.12448</ele>
        <time>2018-02-02T10:56:44Z</time>
      </trkpt>
      <trkpt lat="45.55079" lon="4.7929">
        <ele>331.17203</ele>
        <time>2018-02-02T10:56:53Z</time>
      </trkpt>
      <trkpt lat="45.55086" lon="4.79297">
        <ele>331.32266</ele>
        <time>2018-02-02T10:57:00Z</time>
      </trkpt>
      <trkpt lat="45.55094" lon="4.79305">
        <ele>331.90924</ele>
        <time>2018-02-02T10:57:08Z</time>
      </trkpt>
      <trkpt lat="45.55102" lon="4.79313">
        <ele>331.82996</ele>
        <time>2018-02-02T10:57:16Z</time>
      </trkpt>
      <trkpt lat="45.55111" lon="4.79319">
        <ele>330.95538</ele>
        <time>2018-02-02T10:57:23Z</time>
      </trkpt>
      <trkpt lat="45.55119" lon="4.79324">
        <ele>330.65945</ele>
        <time>2018-02-02T10:57:29Z</time>
      </trkpt>
      <trkpt lat="45.55128" lon="4.79331">
        <ele>330.1125</ele>
        <time>2018-02-02T10:57:36Z</time>
      </trkpt>
      <trkpt lat="45.55138" lon="4.79336">
        <ele>329.6818</ele>
        <time>2018-02-02T10:57:44Z</time>
      </trkpt>
      <trkpt lat="45.55146" lon="4.79344">
        <ele>329.55234</ele>
        <time>2018-02-02T10:57:51Z</time>
      </trkpt>
      <trkpt lat="45.55148" lon="4.79358">
        <ele>330.37143</ele>
        <time>2018-02-02T10:57:59Z</time>
      </trkpt>
      <trkpt lat="45.55145" lon="4.7937">
        <ele>331.34906</ele>
        <time>2018-02-02T10:58:07Z</time>
      </trkpt>
      <trkpt lat="45.55141" lon="4.79382">
        <ele>331.85904</ele>
        <time>2018-02-02T10:58:14Z</time>
      </trkpt>
      <trkpt lat="45.55135" lon="4.79393">
        <ele>332.6623</ele>
        <time>2018-02-02T10:58:21Z</time>
      </trkpt>
      <trkpt lat="45.55128" lon="4.794">
        <ele>333.0137</ele>
        <time>2018-02-02T10:58:29Z</time>
      </trkpt>
      <trkpt lat="45.55118" lon="4.79404">
        <ele>334.08118</ele>
        <time>2018-02-02T10:58:37Z</time>
      </trkpt>
      <trkpt lat="45.55109" lon="4.79403">
        <ele>334.14197</ele>
        <time>2018-02-02T10:58:45Z</time>
      </trkpt>
      <trkpt lat="45.551" lon="4.79403">
        <ele>335.11166</ele>
        <time>2018-02-02T10:58:53Z</time>
      </trkpt>
      <trkpt lat="45.5509" lon="4.79402">
        <ele>335.97305</ele>
        <time>2018-02-02T10:59:02Z</time>
      </trkpt>
      <trkpt lat="45.5508" lon="4.79402">
        <ele>336.86615</ele>
        <time>2018-02-02T10:59:10Z</time>
      </trkpt>
      <trkpt lat="45.55071" lon="4.79403">
        <ele>337.17264</ele>
        <time>2018-02-02T10:59:18Z</time>
      </trkpt>
      <trkpt lat="45.55063" lon="4.79408">
        <ele>336.79745</ele>
        <time>2018-02-02T10:59:26Z</time>
      </trkpt>
      <trkpt lat="45.55056" lon="4.79418">
        <ele>335.3125</ele>
        <time>2018-02-02T10:59:34Z</time>
      </trkpt>
      <trkpt lat="45.5505" lon="4.79429">
        <ele>333.4946</ele>
        <time>2018-02-02T10:59:42Z</time>
      </trkpt>
      <trkpt lat="45.55042" lon="4.79435">
        <ele>333.25153</ele>
        <time>2018-02-02T10:59:49Z</time>
      </trkpt>
      <trkpt lat="45.55032" lon="4.79438">
        <ele>332.99255</ele>
        <time>2018-02-02T10:59:55Z</time>
      </trkpt>
      <trkpt lat="45.55022" lon="4.7944">
        <ele>332.5645</ele>
        <time>2018-02-02T11:00:03Z</time>
      </trkpt>
      <trkpt lat="45.55012" lon="4.79442">
        <ele>332.10742</ele>
        <time>2018-02-02T11:00:10Z</time>
      </trkpt>
      <trkpt lat="45.55001" lon="4.79443">
        <ele>331.6873</ele>
        <time>2018-02-02T11:00:17Z</time>
      </trkpt>
      <trkpt lat="45.54992" lon="4.79445">
        <ele>331.16412</ele>
        <time>2018-02-02T11:00:24Z</time>
      </trkpt>
      <trkpt lat="45.54983" lon="4.79449">
        <ele>331.25925</ele>
        <time>2018-02-02T11:00:30Z</time>
      </trkpt>
      <trkpt lat="45.54974" lon="4.79453">
        <ele>330.92896</ele>
        <time>2018-02-02T11:00:37Z</time>
      </trkpt>
      <trkpt lat="45.54964" lon="4.79457">
        <ele>330.9501</ele>
        <time>2018-02-02T11:00:45Z</time>
      </trkpt>
      <trkpt lat="45.54955" lon="4.79456">
        <ele>330.92368</ele>
        <time>2018-02-02T11:00:53Z</time>
      </trkpt>
      <trkpt lat="45.54945" lon="4.79458">
        <ele>331.26715</ele>
        <time>2018-02-02T11:01:01Z</time>
      </trkpt>
      <trkpt lat="45.54935" lon="4.79461">
        <ele>331.8009</ele>
        <time>2018-02-02T11:01:09Z</time>
      </trkpt>
      <trkpt lat="45.54925" lon="4.79461">
        <ele>332.4192</ele>
        <time>2018-02-02T11:01:16Z</time>
      </trkpt>
      <trkpt lat="45.54915" lon="4.79465">
        <ele>331.94095</ele>
        <time>2018-02-02T11:01:24Z</time>
      </trkpt>
      <trkpt lat="45.54905" lon="4.79469">
        <ele>332.30557</ele>
        <time>2018-02-02T11:01:32Z</time>
      </trkpt>
      <trkpt lat="45.54896" lon="4.79472">
        <ele>332.3135</ele>
        <time>2018-02-02T11:01:40Z</time>
      </trkpt>
      <trkpt lat="45.54887" lon="4.79477">
        <ele>331.62387</ele>
        <time>2018-02-02T11:01:49Z</time>
      </trkpt>
      <trkpt lat="45.54882" lon="4.79488">
        <ele>331.4178</ele>
        <time>2018-02-02T11:02:00Z</time>
      </trkpt>
      <trkpt lat="45.54886" lon="4.795">
        <ele>331.75598</ele>
        <time>2018-02-02T11:02:13Z</time>
      </trkpt>
      <trkpt lat="45.54894" lon="4.79508">
        <ele>333.2621</ele>
        <time>2018-02-02T11:02:26Z</time>
      </trkpt>
      <trkpt lat="45.54902" lon="4.79515">
        <ele>334.12347</ele>
        <time>2018-02-02T11:02:34Z</time>
      </trkpt>
      <trkpt lat="45.54909" lon="4.79523">
        <ele>335.87265</ele>
        <time>2018-02-02T11:02:43Z</time>
      </trkpt>
      <trkpt lat="45.54916" lon="4.79533">
        <ele>336.8952</ele>
        <time>2018-02-02T11:02:49Z</time>
      </trkpt>
      <trkpt lat="45.54923" lon="4.79542">
        <ele>338.01553</ele>
        <time>2018-02-02T11:02:55Z</time>
      </trkpt>
      <trkpt lat="45.5493" lon="4.79553">
        <ele>338.63647</ele>
        <time>2018-02-02T11:03:04Z</time>
      </trkpt>
      <trkpt lat="45.54933" lon="4.79567">
        <ele>339.54013</ele>
        <time>2018-02-02T11:03:12Z</time>
      </trkpt>
      <trkpt lat="45.54934" lon="4.79582">
        <ele>339.97083</ele>
        <time>2018-02-02T11:03:18Z</time>
      </trkpt>
      <trkpt lat="45.54934" lon="4.79597">
        <ele>341.4954</ele>
        <time>2018-02-02T11:03:26Z</time>
      </trkpt>
      <trkpt lat="45.54937" lon="4.7961">
        <ele>342.4308</ele>
        <time>2018-02-02T11:03:35Z</time>
      </trkpt>
      <trkpt lat="45.54945" lon="4.7962">
        <ele>343.58017</ele>
        <time>2018-02-02T11:03:43Z</time>
      </trkpt>
      <trkpt lat="45.54951" lon="4.7963">
        <ele>343.9633</ele>
        <time>2018-02-02T11:03:51Z</time>
      </trkpt>
      <trkpt lat="45.54956" lon="4.79641">
        <ele>344.24338</ele>
        <time>2018-02-02T11:03:58Z</time>
      </trkpt>
      <trkpt lat="45.54963" lon="4.79649">
        <ele>344.7639</ele>
        <time>2018-02-02T11:04:05Z</time>
      </trkpt>
      <trkpt lat="45.5497" lon="4.79658">
        <ele>344.94357</ele>
        <time>2018-02-02T11:04:13Z</time>
      </trkpt>
      <trkpt lat="45.54977" lon="4.79668">
        <ele>345.6332</ele>
        <time>2018-02-02T11:04:20Z</time>
      </trkpt>
      <trkpt lat="45.54982" lon="4.7968">
        <ele>346.27264</ele>
        <time>2018-02-02T11:04:28Z</time>
      </trkpt>
      <trkpt lat="45.54983" lon="4.79693">
        <ele>347.23444</ele>
        <time>2018-02-02T11:04:35Z</time>
      </trkpt>
      <trkpt lat="45.54981" lon="4.79705">
        <ele>347.73383</ele>
        <time>2018-02-02T11:04:42Z</time>
      </trkpt>
      <trkpt lat="45.54976" lon="4.79717">
        <ele>348.4208</ele>
        <time>2018-02-02T11:04:49Z</time>
      </trkpt>
      <trkpt lat="45.54971" lon="4.79729">
        <ele>349.55435</ele>
        <time>2018-02-02T11:04:57Z</time>
      </trkpt>
      <trkpt lat="45.54965" lon="4.79738">
        <ele>350.8755</ele>
        <time>2018-02-02T11:05:05Z</time>
      </trkpt>
      <trkpt lat="45.54959" lon="4.79748">
        <ele>351.92447</ele>
        <time>2018-02-02T11:05:13Z</time>
      </trkpt>
      <trkpt lat="45.54955" lon="4.7976">
        <ele>353.02893</ele>
        <time>2018-02-02T11:05:22Z</time>
      </trkpt>
      <trkpt lat="45.54949" lon="4.79773">
        <ele>354.8019</ele>
        <time>2018-02-02T11:05:32Z</time>
      </trkpt>
      <trkpt lat="45.54944" lon="4.79786">
        <ele>356.234</ele>
        <time>2018-02-02T11:05:41Z</time>
      </trkpt>
      <trkpt lat="45.54937" lon="4.79795">
        <ele>356.8338</ele>
        <time>2018-02-02T11:05:48Z</time>
      </trkpt>
      <trkpt lat="45.54931" lon="4.79807">
        <ele>357.497</ele>
        <time>2018-02-02T11:05:56Z</time>
      </trkpt>
      <trkpt lat="45.54924" lon="4.79816">
        <ele>357.84845</ele>
        <time>2018-02-02T11:06:03Z</time>
      </trkpt>
      <trkpt lat="45.54917" lon="4.79827">
        <ele>359.16693</ele>
        <time>2018-02-02T11:06:11Z</time>
      </trkpt>
      <trkpt lat="45.54912" lon="4.79839">
        <ele>359.44965</ele>
        <time>2018-02-02T11:06:19Z</time>
      </trkpt>
      <trkpt lat="45.54906" lon="4.7985">
        <ele>359.4391</ele>
        <time>2018-02-02T11:06:27Z</time>
      </trkpt>
      <trkpt lat="45.54902" lon="4.79862">
        <ele>359.58707</ele>
        <time>2018-02-02T11:06:35Z</time>
      </trkpt>
      <trkpt lat="45.54912" lon="4.79871">
        <ele>358.71774</ele>
        <time>2018-02-02T11:06:44Z</time>
      </trkpt>
      <trkpt lat="45.54918" lon="4.79881">
        <ele>358.41388</ele>
        <time>2018-02-02T11:06:52Z</time>
      </trkpt>
      <trkpt lat="45.54924" lon="4.79891">
        <ele>358.69397</ele>
        <time>2018-02-02T11:06:59Z</time>
      </trkpt>
      <trkpt lat="45.5493" lon="4.79901">
        <ele>359.06387</ele>
        <time>2018-02-02T11:07:06Z</time>
      </trkpt>
      <trkpt lat="45.54936" lon="4.79912">
        <ele>359.2832</ele>
        <time>2018-02-02T11:07:13Z</time>
      </trkpt>
      <trkpt lat="45.5494" lon="4.79923">
        <ele>359.72708</ele>
        <time>2018-02-02T11:07:20Z</time>
      </trkpt>
      <trkpt lat="45.54946" lon="4.79934">
        <ele>359.53156</ele>
        <time>2018-02-02T11:07:27Z</time>
      </trkpt>
      <trkpt lat="45.54952" lon="4.79945">
        <ele>359.9464</ele>
        <time>2018-02-02T11:07:35Z</time>
      </trkpt>
      <trkpt lat="45.54959" lon="4.79955">
        <ele>359.8222</ele>
        <time>2018-02-02T11:07:43Z</time>
      </trkpt>
      <trkpt lat="45.54964" lon="4.79967">
        <ele>359.30432</ele>
        <time>2018-02-02T11:07:50Z</time>
      </trkpt>
      <trkpt lat="45.5497" lon="4.7998">
        <ele>359.8222</ele>
        <time>2018-02-02T11:07:58Z</time>
      </trkpt>
      <trkpt lat="45.54974" lon="4.79991">
        <ele>359.50516</ele>
        <time>2018-02-02T11:08:05Z</time>
      </trkpt>
      <trkpt lat="45.54983" lon="4.79998">
        <ele>359.23035</ele>
        <time>2018-02-02T11:08:13Z</time>
      </trkpt>
      <trkpt lat="45.54991" lon="4.80003">
        <ele>358.59357</ele>
        <time>2018-02-02T11:08:20Z</time>
      </trkpt>
      <trkpt lat="45.55" lon="4.80011">
        <ele>357.56836</ele>
        <time>2018-02-02T11:08:28Z</time>
      </trkpt>
      <trkpt lat="45.55007" lon="4.80018">
        <ele>358.30026</ele>
        <time>2018-02-02T11:08:35Z</time>
      </trkpt>
      <trkpt lat="45.55014" lon="4.80027">
        <ele>357.70575</ele>
        <time>2018-02-02T11:08:42Z</time>
      </trkpt>
      <trkpt lat="45.55022" lon="4.80036">
        <ele>357.66876</ele>
        <time>2018-02-02T11:08:50Z</time>
      </trkpt>
      <trkpt lat="45.55032" lon="4.80046">
        <ele>357.34375</ele>
        <time>2018-02-02T11:08:59Z</time>
      </trkpt>
      <trkpt lat="45.55039" lon="4.80054">
        <ele>356.94214</ele>
        <time>2018-02-02T11:09:06Z</time>
      </trkpt>
      <trkpt lat="45.55047" lon="4.80063">
        <ele>356.68054</ele>
        <time>2018-02-02T11:09:13Z</time>
      </trkpt>
      <trkpt lat="45.55056" lon="4.80069">
        <ele>355.3779</ele>
        <time>2018-02-02T11:09:21Z</time>
      </trkpt>
      <trkpt lat="45.55063" lon="4.80078">
        <ele>354.14133</ele>
        <time>2018-02-02T11:09:29Z</time>
      </trkpt>
      <trkpt lat="45.55055" lon="4.80083">
        <ele>351.53342</ele>
        <time>2018-02-02T11:09:44Z</time>
      </trkpt>
      <trkpt lat="45.55062" lon="4.80094">
        <ele>351.07892</ele>
        <time>2018-02-02T11:09:51Z</time>
      </trkpt>
      <trkpt lat="45.55069" lon="4.80102">
        <ele>349.5702</ele>
        <time>2018-02-02T11:09:58Z</time>
      </trkpt>
      <trkpt lat="45.55078" lon="4.8011">
        <ele>348.88583</ele>
        <time>2018-02-02T11:10:06Z</time>
      </trkpt>
      <trkpt lat="45.55086" lon="4.80117">
        <ele>347.5753</ele>
        <time>2018-02-02T11:10:12Z</time>
      </trkpt>
      <trkpt lat="45.55095" lon="4.80124">
        <ele>345.7336</ele>
        <time>2018-02-02T11:10:20Z</time>
      </trkpt>
      <trkpt lat="45.55102" lon="4.80133">
        <ele>344.89072</ele>
        <time>2018-02-02T11:10:27Z</time>
      </trkpt>
      <trkpt lat="45.55108" lon="4.80143">
        <ele>343.707</ele>
        <time>2018-02-02T11:10:34Z</time>
      </trkpt>
      <trkpt lat="45.55113" lon="4.80154">
        <ele>342.86676</ele>
        <time>2018-02-02T11:10:41Z</time>
      </trkpt>
      <trkpt lat="45.55117" lon="4.80166">
        <ele>342.12692</ele>
        <time>2018-02-02T11:10:48Z</time>
      </trkpt>
      <trkpt lat="45.55118" lon="4.80181">
        <ele>340.494</ele>
        <time>2018-02-02T11:10:56Z</time>
      </trkpt>
      <trkpt lat="45.55115" lon="4.80197">
        <ele>339.61676</ele>
        <time>2018-02-02T11:11:04Z</time>
      </trkpt>
      <trkpt lat="45.5511" lon="4.80209">
        <ele>338.77914</ele>
        <time>2018-02-02T11:11:11Z</time>
      </trkpt>
      <trkpt lat="45.55108" lon="4.80223">
        <ele>337.76715</ele>
        <time>2018-02-02T11:11:18Z</time>
      </trkpt>
      <trkpt lat="45.55107" lon="4.80236">
        <ele>337.21228</ele>
        <time>2018-02-02T11:11:26Z</time>
      </trkpt>
      <trkpt lat="45.55108" lon="4.80249">
        <ele>336.15274</ele>
        <time>2018-02-02T11:11:33Z</time>
      </trkpt>
      <trkpt lat="45.55111" lon="4.80263">
        <ele>334.88443</ele>
        <time>2018-02-02T11:11:41Z</time>
      </trkpt>
      <trkpt lat="45.55116" lon="4.80276">
        <ele>333.75882</ele>
        <time>2018-02-02T11:11:49Z</time>
      </trkpt>
      <trkpt lat="45.55119" lon="4.80289">
        <ele>332.8314</ele>
        <time>2018-02-02T11:11:57Z</time>
      </trkpt>
      <trkpt lat="45.55123" lon="4.80301">
        <ele>331.89337</ele>
        <time>2018-02-02T11:12:04Z</time>
      </trkpt>
      <trkpt lat="45.55128" lon="4.80312">
        <ele>330.8365</ele>
        <time>2018-02-02T11:12:11Z</time>
      </trkpt>
      <trkpt lat="45.55134" lon="4.80324">
        <ele>330.0438</ele>
        <time>2018-02-02T11:12:18Z</time>
      </trkpt>
      <trkpt lat="45.55139" lon="4.80336">
        <ele>329.12164</ele>
        <time>2018-02-02T11:12:25Z</time>
      </trkpt>
      <trkpt lat="45.55145" lon="4.80347">
        <ele>328.2312</ele>
        <time>2018-02-02T11:12:32Z</time>
      </trkpt>
      <trkpt lat="45.5515" lon="4.80359">
        <ele>327.1875</ele>
        <time>2018-02-02T11:12:39Z</time>
      </trkpt>
      <trkpt lat="45.55154" lon="4.80371">
        <ele>326.87836</ele>
        <time>2018-02-02T11:12:46Z</time>
      </trkpt>
      <trkpt lat="45.55161" lon="4.80383">
        <ele>325.65497</ele>
        <time>2018-02-02T11:12:54Z</time>
      </trkpt>
      <trkpt lat="45.55169" lon="4.8039">
        <ele>324.45804</ele>
        <time>2018-02-02T11:13:02Z</time>
      </trkpt>
      <trkpt lat="45.55179" lon="4.80389">
        <ele>323.6574</ele>
        <time>2018-02-02T11:13:09Z</time>
      </trkpt>
      <trkpt lat="45.55188" lon="4.80388">
        <ele>322.3495</ele>
        <time>2018-02-02T11:13:16Z</time>
      </trkpt>
      <trkpt lat="45.55197" lon="4.80387">
        <ele>321.5885</ele>
        <time>2018-02-02T11:13:23Z</time>
      </trkpt>
      <trkpt lat="45.55207" lon="4.80382">
        <ele>320.15112</ele>
        <time>2018-02-02T11:13:31Z</time>
      </trkpt>
      <trkpt lat="45.55214" lon="4.80375">
        <ele>319.07043</ele>
        <time>2018-02-02T11:13:38Z</time>
      </trkpt>
      <trkpt lat="45.55222" lon="4.80367">
        <ele>317.69382</ele>
        <time>2018-02-02T11:13:46Z</time>
      </trkpt>
      <trkpt lat="45.5523" lon="4.80357">
        <ele>316.7373</ele>
        <time>2018-02-02T11:13:53Z</time>
      </trkpt>
      <trkpt lat="45.55237" lon="4.8035">
        <ele>315.68304</ele>
        <time>2018-02-02T11:14:00Z</time>
      </trkpt>
      <trkpt lat="45.55246" lon="4.80346">
        <ele>315.08322</ele>
        <time>2018-02-02T11:14:06Z</time>
      </trkpt>
      <trkpt lat="45.55255" lon="4.80342">
        <ele>313.99463</ele>
        <time>2018-02-02T11:14:14Z</time>
      </trkpt>
      <trkpt lat="45.55265" lon="4.8034">
        <ele>313.60358</ele>
        <time>2018-02-02T11:14:21Z</time>
      </trkpt>
      <trkpt lat="45.55274" lon="4.80339">
        <ele>312.26657</ele>
        <time>2018-02-02T11:14:28Z</time>
      </trkpt>
      <trkpt lat="45.55283" lon="4.80336">
        <ele>311.75397</ele>
        <time>2018-02-02T11:14:36Z</time>
      </trkpt>
      <trkpt lat="45.55292" lon="4.80334">
        <ele>309.64545</ele>
        <time>2018-02-02T11:14:48Z</time>
      </trkpt>
      <trkpt lat="45.55303" lon="4.80335">
        <ele>308.9743</ele>
        <time>2018-02-02T11:14:54Z</time>
      </trkpt>
      <trkpt lat="45.55327" lon="4.8034">
        <ele>304.79422</ele>
        <time>2018-02-02T11:15:16Z</time>
      </trkpt>
      <trkpt lat="45.55337" lon="4.80343">
        <ele>302.42676</ele>
        <time>2018-02-02T11:15:25Z</time>
      </trkpt>
      <trkpt lat="45.55346" lon="4.80341">
        <ele>302.59058</ele>
        <time>2018-02-02T11:15:36Z</time>
      </trkpt>
      <trkpt lat="45.55356" lon="4.80339">
        <ele>302.13873</ele>
        <time>2018-02-02T11:15:46Z</time>
      </trkpt>
      <trkpt lat="45.55364" lon="4.80332">
        <ele>301.5733</ele>
        <time>2018-02-02T11:16:00Z</time>
      </trkpt>
      <trkpt lat="45.55373" lon="4.80335">
        <ele>299.01294</ele>
        <time>2018-02-02T11:16:10Z</time>
      </trkpt>
      <trkpt lat="45.55379" lon="4.80342">
        <ele>300.4979</ele>
        <time>2018-02-02T11:16:28Z</time>
      </trkpt>
      <trkpt lat="45.55379" lon="4.80342">
        <ele>300.4979</ele>
        <time>2018-02-02T11:16:28Z</time>
      </trkpt>
    </trkseg>
  </trk>
</gpx>